<?xml version="1.0" encoding="UTF-8" standalone="no" ?>
<gpx xmlns="http://www.topografix.com/GPX/1/1" xmlns:xsi="http://www.w3.org/2001/XMLSchema-instance" xsi:schemaLocation="http://www.topografix.com/GPX/1/1 http://www.topografix.com/GPX/1/1/gpx.xsd" version="1.1" creator="VisuGPX - https://www.visugpx.com">
  <metadata>
    <name>RANDO LES BONDONS 21 KM.</name>
    <desc><![CDATA[RANDO LES BONDONS 21 KM.DEPART ARRIVEE PLACE DE L'EGLISE . LOZERETTE.RUAS.LES CHABRIERS .LES MENIOS]]></desc>
  </metadata>
  <trk>
    <name><![CDATA[06-MAI-23 17:36:24]]></name>
    <extensions>
      <line xmlns="http://www.topografix.com/GPX/gpx_style/0/2">
        <color>0000FF</color>
        <width>4</width>
      </line>
    </extensions>
    <trkseg>
      <trkpt lat="44.38677" lon="3.61655">
        <ele>943.67</ele>
        <time>2023-05-06T08:36:45Z</time>
      </trkpt>
      <trkpt lat="44.38677" lon="3.61655">
        <ele>944.15</ele>
        <time>2023-05-06T08:37:02Z</time>
      </trkpt>
      <trkpt lat="44.38677" lon="3.61655">
        <ele>944.15</ele>
        <time>2023-05-06T08:37:07Z</time>
      </trkpt>
      <trkpt lat="44.38678" lon="3.61655">
        <ele>944.15</ele>
        <time>2023-05-06T08:37:12Z</time>
      </trkpt>
      <trkpt lat="44.38679" lon="3.61655">
        <ele>944.63</ele>
        <time>2023-05-06T08:37:36Z</time>
      </trkpt>
      <trkpt lat="44.38679" lon="3.61657">
        <ele>945.11</ele>
        <time>2023-05-06T08:38:02Z</time>
      </trkpt>
      <trkpt lat="44.38679" lon="3.61657">
        <ele>945.59</ele>
        <time>2023-05-06T08:38:21Z</time>
      </trkpt>
      <trkpt lat="44.3868" lon="3.61656">
        <ele>945.11</ele>
        <time>2023-05-06T08:38:38Z</time>
      </trkpt>
      <trkpt lat="44.3868" lon="3.61656">
        <ele>944.63</ele>
        <time>2023-05-06T08:39:00Z</time>
      </trkpt>
      <trkpt lat="44.3868" lon="3.61657">
        <ele>944.63</ele>
        <time>2023-05-06T08:39:16Z</time>
      </trkpt>
      <trkpt lat="44.38678" lon="3.61659">
        <ele>944.15</ele>
        <time>2023-05-06T08:39:30Z</time>
      </trkpt>
      <trkpt lat="44.38678" lon="3.61659">
        <ele>944.15</ele>
        <time>2023-05-06T08:39:47Z</time>
      </trkpt>
      <trkpt lat="44.38677" lon="3.6166">
        <ele>943.67</ele>
        <time>2023-05-06T08:40:10Z</time>
      </trkpt>
      <trkpt lat="44.38678" lon="3.61662">
        <ele>943.19</ele>
        <time>2023-05-06T08:40:41Z</time>
      </trkpt>
      <trkpt lat="44.38678" lon="3.61661">
        <ele>943.19</ele>
        <time>2023-05-06T08:41:09Z</time>
      </trkpt>
      <trkpt lat="44.38677" lon="3.61661">
        <ele>942.71</ele>
        <time>2023-05-06T08:41:26Z</time>
      </trkpt>
      <trkpt lat="44.38676" lon="3.61661">
        <ele>941.75</ele>
        <time>2023-05-06T08:41:54Z</time>
      </trkpt>
      <trkpt lat="44.38675" lon="3.6166">
        <ele>941.75</ele>
        <time>2023-05-06T08:42:22Z</time>
      </trkpt>
      <trkpt lat="44.38674" lon="3.6166">
        <ele>941.27</ele>
        <time>2023-05-06T08:42:49Z</time>
      </trkpt>
      <trkpt lat="44.38674" lon="3.61661">
        <ele>941.27</ele>
        <time>2023-05-06T08:43:23Z</time>
      </trkpt>
      <trkpt lat="44.38675" lon="3.61661">
        <ele>941.27</ele>
        <time>2023-05-06T08:43:47Z</time>
      </trkpt>
      <trkpt lat="44.38675" lon="3.61661">
        <ele>941.27</ele>
        <time>2023-05-06T08:44:11Z</time>
      </trkpt>
      <trkpt lat="44.38675" lon="3.61661">
        <ele>941.27</ele>
        <time>2023-05-06T08:44:38Z</time>
      </trkpt>
      <trkpt lat="44.38676" lon="3.61659">
        <ele>942.71</ele>
        <time>2023-05-06T08:44:54Z</time>
      </trkpt>
      <trkpt lat="44.38677" lon="3.6166">
        <ele>942.23</ele>
        <time>2023-05-06T08:45:15Z</time>
      </trkpt>
      <trkpt lat="44.38678" lon="3.61659">
        <ele>943.19</ele>
        <time>2023-05-06T08:45:30Z</time>
      </trkpt>
      <trkpt lat="44.38679" lon="3.61661">
        <ele>942.71</ele>
        <time>2023-05-06T08:45:46Z</time>
      </trkpt>
      <trkpt lat="44.3868" lon="3.61662">
        <ele>942.71</ele>
        <time>2023-05-06T08:46:03Z</time>
      </trkpt>
      <trkpt lat="44.38681" lon="3.61684">
        <ele>941.75</ele>
        <time>2023-05-06T08:46:24Z</time>
      </trkpt>
      <trkpt lat="44.3868" lon="3.61689">
        <ele>942.23</ele>
        <time>2023-05-06T08:46:28Z</time>
      </trkpt>
      <trkpt lat="44.38661" lon="3.61725">
        <ele>939.35</ele>
        <time>2023-05-06T08:46:55Z</time>
      </trkpt>
      <trkpt lat="44.38647" lon="3.61757">
        <ele>942.23</ele>
        <time>2023-05-06T08:47:16Z</time>
      </trkpt>
      <trkpt lat="44.38635" lon="3.61776">
        <ele>943.19</ele>
        <time>2023-05-06T08:47:30Z</time>
      </trkpt>
      <trkpt lat="44.38624" lon="3.61788">
        <ele>942.23</ele>
        <time>2023-05-06T08:47:41Z</time>
      </trkpt>
      <trkpt lat="44.38617" lon="3.61811">
        <ele>943.19</ele>
        <time>2023-05-06T08:47:53Z</time>
      </trkpt>
      <trkpt lat="44.38612" lon="3.61828">
        <ele>943.19</ele>
        <time>2023-05-06T08:48:04Z</time>
      </trkpt>
      <trkpt lat="44.38611" lon="3.61837">
        <ele>941.27</ele>
        <time>2023-05-06T08:48:09Z</time>
      </trkpt>
      <trkpt lat="44.38606" lon="3.6185">
        <ele>941.75</ele>
        <time>2023-05-06T08:48:17Z</time>
      </trkpt>
      <trkpt lat="44.38611" lon="3.61867">
        <ele>942.71</ele>
        <time>2023-05-06T08:48:27Z</time>
      </trkpt>
      <trkpt lat="44.38615" lon="3.61875">
        <ele>943.19</ele>
        <time>2023-05-06T08:48:33Z</time>
      </trkpt>
      <trkpt lat="44.38616" lon="3.61884">
        <ele>945.11</ele>
        <time>2023-05-06T08:48:40Z</time>
      </trkpt>
      <trkpt lat="44.38615" lon="3.61891">
        <ele>944.63</ele>
        <time>2023-05-06T08:48:44Z</time>
      </trkpt>
      <trkpt lat="44.3861" lon="3.619">
        <ele>943.67</ele>
        <time>2023-05-06T08:48:52Z</time>
      </trkpt>
      <trkpt lat="44.38607" lon="3.61912">
        <ele>943.19</ele>
        <time>2023-05-06T08:48:59Z</time>
      </trkpt>
      <trkpt lat="44.38603" lon="3.61928">
        <ele>943.67</ele>
        <time>2023-05-06T08:49:06Z</time>
      </trkpt>
      <trkpt lat="44.38597" lon="3.61948">
        <ele>943.19</ele>
        <time>2023-05-06T08:49:17Z</time>
      </trkpt>
      <trkpt lat="44.38595" lon="3.61973">
        <ele>942.71</ele>
        <time>2023-05-06T08:49:31Z</time>
      </trkpt>
      <trkpt lat="44.38596" lon="3.61975">
        <ele>942.23</ele>
        <time>2023-05-06T08:49:33Z</time>
      </trkpt>
      <trkpt lat="44.38601" lon="3.61988">
        <ele>941.75</ele>
        <time>2023-05-06T08:49:39Z</time>
      </trkpt>
      <trkpt lat="44.38605" lon="3.62014">
        <ele>940.79</ele>
        <time>2023-05-06T08:49:52Z</time>
      </trkpt>
      <trkpt lat="44.38605" lon="3.62019">
        <ele>939.83</ele>
        <time>2023-05-06T08:49:56Z</time>
      </trkpt>
      <trkpt lat="44.38612" lon="3.62037">
        <ele>937.9</ele>
        <time>2023-05-06T08:50:10Z</time>
      </trkpt>
      <trkpt lat="44.38617" lon="3.62048">
        <ele>935.5</ele>
        <time>2023-05-06T08:50:18Z</time>
      </trkpt>
      <trkpt lat="44.38621" lon="3.62061">
        <ele>934.06</ele>
        <time>2023-05-06T08:50:24Z</time>
      </trkpt>
      <trkpt lat="44.38631" lon="3.62074">
        <ele>932.14</ele>
        <time>2023-05-06T08:50:35Z</time>
      </trkpt>
      <trkpt lat="44.38645" lon="3.62097">
        <ele>931.65</ele>
        <time>2023-05-06T08:50:51Z</time>
      </trkpt>
      <trkpt lat="44.38651" lon="3.62106">
        <ele>931.17</ele>
        <time>2023-05-06T08:50:59Z</time>
      </trkpt>
      <trkpt lat="44.3866" lon="3.62115">
        <ele>930.69</ele>
        <time>2023-05-06T08:51:07Z</time>
      </trkpt>
      <trkpt lat="44.38662" lon="3.62121">
        <ele>930.21</ele>
        <time>2023-05-06T08:51:13Z</time>
      </trkpt>
      <trkpt lat="44.38667" lon="3.62131">
        <ele>929.73</ele>
        <time>2023-05-06T08:51:19Z</time>
      </trkpt>
      <trkpt lat="44.38667" lon="3.6214">
        <ele>929.73</ele>
        <time>2023-05-06T08:51:24Z</time>
      </trkpt>
      <trkpt lat="44.38663" lon="3.62158">
        <ele>929.73</ele>
        <time>2023-05-06T08:51:33Z</time>
      </trkpt>
      <trkpt lat="44.3865" lon="3.62175">
        <ele>929.25</ele>
        <time>2023-05-06T08:51:48Z</time>
      </trkpt>
      <trkpt lat="44.38629" lon="3.62186">
        <ele>930.21</ele>
        <time>2023-05-06T08:52:03Z</time>
      </trkpt>
      <trkpt lat="44.38619" lon="3.62195">
        <ele>929.73</ele>
        <time>2023-05-06T08:52:12Z</time>
      </trkpt>
      <trkpt lat="44.38607" lon="3.62202">
        <ele>928.77</ele>
        <time>2023-05-06T08:52:19Z</time>
      </trkpt>
      <trkpt lat="44.38602" lon="3.62203">
        <ele>927.81</ele>
        <time>2023-05-06T08:52:23Z</time>
      </trkpt>
      <trkpt lat="44.38596" lon="3.62203">
        <ele>926.85</ele>
        <time>2023-05-06T08:52:27Z</time>
      </trkpt>
      <trkpt lat="44.38584" lon="3.62201">
        <ele>926.85</ele>
        <time>2023-05-06T08:52:37Z</time>
      </trkpt>
      <trkpt lat="44.38571" lon="3.62199">
        <ele>927.33</ele>
        <time>2023-05-06T08:52:47Z</time>
      </trkpt>
      <trkpt lat="44.38554" lon="3.62196">
        <ele>926.85</ele>
        <time>2023-05-06T08:52:59Z</time>
      </trkpt>
      <trkpt lat="44.3854" lon="3.6219">
        <ele>927.81</ele>
        <time>2023-05-06T08:53:09Z</time>
      </trkpt>
      <trkpt lat="44.38519" lon="3.62182">
        <ele>926.85</ele>
        <time>2023-05-06T08:53:25Z</time>
      </trkpt>
      <trkpt lat="44.38515" lon="3.62182">
        <ele>926.37</ele>
        <time>2023-05-06T08:53:29Z</time>
      </trkpt>
      <trkpt lat="44.38508" lon="3.62178">
        <ele>926.37</ele>
        <time>2023-05-06T08:53:41Z</time>
      </trkpt>
      <trkpt lat="44.38491" lon="3.62172">
        <ele>927.81</ele>
        <time>2023-05-06T08:53:56Z</time>
      </trkpt>
      <trkpt lat="44.38473" lon="3.6218">
        <ele>930.21</ele>
        <time>2023-05-06T08:54:10Z</time>
      </trkpt>
      <trkpt lat="44.38456" lon="3.62196">
        <ele>932.14</ele>
        <time>2023-05-06T08:54:26Z</time>
      </trkpt>
      <trkpt lat="44.3844" lon="3.62209">
        <ele>935.98</ele>
        <time>2023-05-06T08:54:40Z</time>
      </trkpt>
      <trkpt lat="44.38437" lon="3.62211">
        <ele>935.98</ele>
        <time>2023-05-06T08:54:43Z</time>
      </trkpt>
      <trkpt lat="44.38423" lon="3.62223">
        <ele>935.5</ele>
        <time>2023-05-06T08:54:55Z</time>
      </trkpt>
      <trkpt lat="44.38409" lon="3.62236">
        <ele>935.5</ele>
        <time>2023-05-06T08:55:07Z</time>
      </trkpt>
      <trkpt lat="44.38408" lon="3.62237">
        <ele>935.5</ele>
        <time>2023-05-06T08:55:08Z</time>
      </trkpt>
      <trkpt lat="44.38401" lon="3.62242">
        <ele>934.06</ele>
        <time>2023-05-06T08:55:13Z</time>
      </trkpt>
      <trkpt lat="44.38382" lon="3.62267">
        <ele>932.14</ele>
        <time>2023-05-06T08:55:33Z</time>
      </trkpt>
      <trkpt lat="44.38361" lon="3.62287">
        <ele>930.21</ele>
        <time>2023-05-06T08:55:54Z</time>
      </trkpt>
      <trkpt lat="44.38347" lon="3.62324">
        <ele>928.77</ele>
        <time>2023-05-06T08:56:17Z</time>
      </trkpt>
      <trkpt lat="44.38343" lon="3.62357">
        <ele>928.29</ele>
        <time>2023-05-06T08:56:37Z</time>
      </trkpt>
      <trkpt lat="44.38356" lon="3.62405">
        <ele>929.73</ele>
        <time>2023-05-06T08:57:00Z</time>
      </trkpt>
      <trkpt lat="44.38365" lon="3.62426">
        <ele>930.69</ele>
        <time>2023-05-06T08:57:12Z</time>
      </trkpt>
      <trkpt lat="44.38373" lon="3.62441">
        <ele>928.77</ele>
        <time>2023-05-06T08:57:22Z</time>
      </trkpt>
      <trkpt lat="44.38382" lon="3.62458">
        <ele>930.21</ele>
        <time>2023-05-06T08:57:33Z</time>
      </trkpt>
      <trkpt lat="44.38393" lon="3.62482">
        <ele>931.17</ele>
        <time>2023-05-06T08:57:49Z</time>
      </trkpt>
      <trkpt lat="44.38401" lon="3.62507">
        <ele>931.65</ele>
        <time>2023-05-06T08:58:03Z</time>
      </trkpt>
      <trkpt lat="44.38408" lon="3.62533">
        <ele>930.69</ele>
        <time>2023-05-06T08:58:17Z</time>
      </trkpt>
      <trkpt lat="44.38414" lon="3.62559">
        <ele>928.77</ele>
        <time>2023-05-06T08:58:31Z</time>
      </trkpt>
      <trkpt lat="44.38414" lon="3.62588">
        <ele>926.85</ele>
        <time>2023-05-06T08:58:46Z</time>
      </trkpt>
      <trkpt lat="44.38408" lon="3.62606">
        <ele>926.37</ele>
        <time>2023-05-06T08:58:56Z</time>
      </trkpt>
      <trkpt lat="44.38406" lon="3.62609">
        <ele>926.37</ele>
        <time>2023-05-06T08:58:59Z</time>
      </trkpt>
      <trkpt lat="44.38393" lon="3.62615">
        <ele>928.77</ele>
        <time>2023-05-06T08:59:09Z</time>
      </trkpt>
      <trkpt lat="44.38372" lon="3.62619">
        <ele>930.69</ele>
        <time>2023-05-06T08:59:22Z</time>
      </trkpt>
      <trkpt lat="44.38353" lon="3.62627">
        <ele>932.62</ele>
        <time>2023-05-06T08:59:36Z</time>
      </trkpt>
      <trkpt lat="44.38345" lon="3.62635">
        <ele>933.1</ele>
        <time>2023-05-06T08:59:44Z</time>
      </trkpt>
      <trkpt lat="44.38324" lon="3.62647">
        <ele>932.14</ele>
        <time>2023-05-06T08:59:58Z</time>
      </trkpt>
      <trkpt lat="44.38311" lon="3.62666">
        <ele>932.62</ele>
        <time>2023-05-06T09:00:11Z</time>
      </trkpt>
      <trkpt lat="44.38304" lon="3.62688">
        <ele>933.58</ele>
        <time>2023-05-06T09:00:25Z</time>
      </trkpt>
      <trkpt lat="44.38299" lon="3.62715">
        <ele>935.02</ele>
        <time>2023-05-06T09:00:39Z</time>
      </trkpt>
      <trkpt lat="44.38301" lon="3.6274">
        <ele>935.98</ele>
        <time>2023-05-06T09:00:53Z</time>
      </trkpt>
      <trkpt lat="44.38302" lon="3.62763">
        <ele>937.9</ele>
        <time>2023-05-06T09:01:07Z</time>
      </trkpt>
      <trkpt lat="44.38302" lon="3.62775">
        <ele>938.38</ele>
        <time>2023-05-06T09:01:14Z</time>
      </trkpt>
      <trkpt lat="44.38292" lon="3.62795">
        <ele>938.86</ele>
        <time>2023-05-06T09:01:28Z</time>
      </trkpt>
      <trkpt lat="44.38279" lon="3.62806">
        <ele>938.86</ele>
        <time>2023-05-06T09:01:40Z</time>
      </trkpt>
      <trkpt lat="44.38267" lon="3.62817">
        <ele>938.86</ele>
        <time>2023-05-06T09:01:51Z</time>
      </trkpt>
      <trkpt lat="44.38258" lon="3.62838">
        <ele>935.98</ele>
        <time>2023-05-06T09:02:02Z</time>
      </trkpt>
      <trkpt lat="44.38251" lon="3.62857">
        <ele>933.58</ele>
        <time>2023-05-06T09:02:13Z</time>
      </trkpt>
      <trkpt lat="44.38245" lon="3.62881">
        <ele>932.62</ele>
        <time>2023-05-06T09:02:25Z</time>
      </trkpt>
      <trkpt lat="44.38242" lon="3.62901">
        <ele>931.65</ele>
        <time>2023-05-06T09:02:36Z</time>
      </trkpt>
      <trkpt lat="44.3824" lon="3.62907">
        <ele>931.17</ele>
        <time>2023-05-06T09:02:46Z</time>
      </trkpt>
      <trkpt lat="44.3824" lon="3.62912">
        <ele>931.17</ele>
        <time>2023-05-06T09:02:48Z</time>
      </trkpt>
      <trkpt lat="44.38238" lon="3.62913">
        <ele>931.65</ele>
        <time>2023-05-06T09:02:50Z</time>
      </trkpt>
      <trkpt lat="44.38236" lon="3.62919">
        <ele>932.14</ele>
        <time>2023-05-06T09:02:54Z</time>
      </trkpt>
      <trkpt lat="44.38232" lon="3.62945">
        <ele>933.1</ele>
        <time>2023-05-06T09:03:07Z</time>
      </trkpt>
      <trkpt lat="44.38232" lon="3.62962">
        <ele>933.58</ele>
        <time>2023-05-06T09:03:15Z</time>
      </trkpt>
      <trkpt lat="44.38234" lon="3.6297">
        <ele>933.1</ele>
        <time>2023-05-06T09:03:19Z</time>
      </trkpt>
      <trkpt lat="44.38235" lon="3.62984">
        <ele>933.58</ele>
        <time>2023-05-06T09:03:27Z</time>
      </trkpt>
      <trkpt lat="44.38241" lon="3.63003">
        <ele>933.1</ele>
        <time>2023-05-06T09:03:38Z</time>
      </trkpt>
      <trkpt lat="44.38252" lon="3.63022">
        <ele>934.54</ele>
        <time>2023-05-06T09:03:49Z</time>
      </trkpt>
      <trkpt lat="44.38255" lon="3.63028">
        <ele>935.02</ele>
        <time>2023-05-06T09:03:53Z</time>
      </trkpt>
      <trkpt lat="44.38258" lon="3.63033">
        <ele>935.5</ele>
        <time>2023-05-06T09:03:57Z</time>
      </trkpt>
      <trkpt lat="44.38268" lon="3.63049">
        <ele>933.58</ele>
        <time>2023-05-06T09:04:09Z</time>
      </trkpt>
      <trkpt lat="44.3828" lon="3.63068">
        <ele>931.65</ele>
        <time>2023-05-06T09:04:21Z</time>
      </trkpt>
      <trkpt lat="44.38292" lon="3.6309">
        <ele>929.73</ele>
        <time>2023-05-06T09:04:34Z</time>
      </trkpt>
      <trkpt lat="44.38301" lon="3.63106">
        <ele>929.25</ele>
        <time>2023-05-06T09:04:45Z</time>
      </trkpt>
      <trkpt lat="44.38302" lon="3.63107">
        <ele>928.77</ele>
        <time>2023-05-06T09:04:46Z</time>
      </trkpt>
      <trkpt lat="44.3831" lon="3.63125">
        <ele>927.33</ele>
        <time>2023-05-06T09:04:56Z</time>
      </trkpt>
      <trkpt lat="44.38318" lon="3.63152">
        <ele>927.81</ele>
        <time>2023-05-06T09:05:11Z</time>
      </trkpt>
      <trkpt lat="44.38325" lon="3.63173">
        <ele>929.25</ele>
        <time>2023-05-06T09:05:23Z</time>
      </trkpt>
      <trkpt lat="44.38337" lon="3.63188">
        <ele>930.69</ele>
        <time>2023-05-06T09:05:35Z</time>
      </trkpt>
      <trkpt lat="44.38352" lon="3.63205">
        <ele>931.65</ele>
        <time>2023-05-06T09:05:48Z</time>
      </trkpt>
      <trkpt lat="44.38365" lon="3.63224">
        <ele>933.1</ele>
        <time>2023-05-06T09:06:01Z</time>
      </trkpt>
      <trkpt lat="44.38376" lon="3.63244">
        <ele>935.02</ele>
        <time>2023-05-06T09:06:12Z</time>
      </trkpt>
      <trkpt lat="44.38383" lon="3.63263">
        <ele>935.5</ele>
        <time>2023-05-06T09:06:23Z</time>
      </trkpt>
      <trkpt lat="44.38384" lon="3.63285">
        <ele>934.06</ele>
        <time>2023-05-06T09:06:35Z</time>
      </trkpt>
      <trkpt lat="44.38384" lon="3.63301">
        <ele>934.06</ele>
        <time>2023-05-06T09:06:43Z</time>
      </trkpt>
      <trkpt lat="44.38387" lon="3.63308">
        <ele>934.54</ele>
        <time>2023-05-06T09:06:49Z</time>
      </trkpt>
      <trkpt lat="44.384" lon="3.63325">
        <ele>934.54</ele>
        <time>2023-05-06T09:07:03Z</time>
      </trkpt>
      <trkpt lat="44.38409" lon="3.63349">
        <ele>935.98</ele>
        <time>2023-05-06T09:07:16Z</time>
      </trkpt>
      <trkpt lat="44.38415" lon="3.63381">
        <ele>936.46</ele>
        <time>2023-05-06T09:07:33Z</time>
      </trkpt>
      <trkpt lat="44.38419" lon="3.63406">
        <ele>937.9</ele>
        <time>2023-05-06T09:07:46Z</time>
      </trkpt>
      <trkpt lat="44.38421" lon="3.6343">
        <ele>938.86</ele>
        <time>2023-05-06T09:07:59Z</time>
      </trkpt>
      <trkpt lat="44.38423" lon="3.6345">
        <ele>940.31</ele>
        <time>2023-05-06T09:08:10Z</time>
      </trkpt>
      <trkpt lat="44.38424" lon="3.63475">
        <ele>942.23</ele>
        <time>2023-05-06T09:08:25Z</time>
      </trkpt>
      <trkpt lat="44.38429" lon="3.63504">
        <ele>945.11</ele>
        <time>2023-05-06T09:08:40Z</time>
      </trkpt>
      <trkpt lat="44.38431" lon="3.63527">
        <ele>948.48</ele>
        <time>2023-05-06T09:08:53Z</time>
      </trkpt>
      <trkpt lat="44.38433" lon="3.63549">
        <ele>949.92</ele>
        <time>2023-05-06T09:09:06Z</time>
      </trkpt>
      <trkpt lat="44.38436" lon="3.63573">
        <ele>951.36</ele>
        <time>2023-05-06T09:09:18Z</time>
      </trkpt>
      <trkpt lat="44.3844" lon="3.63587">
        <ele>951.84</ele>
        <time>2023-05-06T09:09:27Z</time>
      </trkpt>
      <trkpt lat="44.38443" lon="3.63594">
        <ele>952.8</ele>
        <time>2023-05-06T09:09:31Z</time>
      </trkpt>
      <trkpt lat="44.38448" lon="3.63602">
        <ele>954.73</ele>
        <time>2023-05-06T09:09:38Z</time>
      </trkpt>
      <trkpt lat="44.38463" lon="3.63624">
        <ele>956.65</ele>
        <time>2023-05-06T09:09:57Z</time>
      </trkpt>
      <trkpt lat="44.38471" lon="3.63643">
        <ele>955.21</ele>
        <time>2023-05-06T09:10:10Z</time>
      </trkpt>
      <trkpt lat="44.38479" lon="3.63662">
        <ele>955.69</ele>
        <time>2023-05-06T09:10:22Z</time>
      </trkpt>
      <trkpt lat="44.3848" lon="3.63667">
        <ele>955.21</ele>
        <time>2023-05-06T09:10:26Z</time>
      </trkpt>
      <trkpt lat="44.38483" lon="3.63675">
        <ele>954.73</ele>
        <time>2023-05-06T09:10:30Z</time>
      </trkpt>
      <trkpt lat="44.38487" lon="3.63692">
        <ele>953.28</ele>
        <time>2023-05-06T09:10:42Z</time>
      </trkpt>
      <trkpt lat="44.38487" lon="3.63714">
        <ele>951.84</ele>
        <time>2023-05-06T09:10:53Z</time>
      </trkpt>
      <trkpt lat="44.38484" lon="3.63736">
        <ele>949.44</ele>
        <time>2023-05-06T09:11:05Z</time>
      </trkpt>
      <trkpt lat="44.38481" lon="3.63755">
        <ele>947.52</ele>
        <time>2023-05-06T09:11:15Z</time>
      </trkpt>
      <trkpt lat="44.38479" lon="3.63779">
        <ele>945.59</ele>
        <time>2023-05-06T09:11:28Z</time>
      </trkpt>
      <trkpt lat="44.38482" lon="3.63807">
        <ele>945.59</ele>
        <time>2023-05-06T09:11:42Z</time>
      </trkpt>
      <trkpt lat="44.38486" lon="3.63833">
        <ele>948</ele>
        <time>2023-05-06T09:11:54Z</time>
      </trkpt>
      <trkpt lat="44.38489" lon="3.6385">
        <ele>948.48</ele>
        <time>2023-05-06T09:12:04Z</time>
      </trkpt>
      <trkpt lat="44.38491" lon="3.63862">
        <ele>948.48</ele>
        <time>2023-05-06T09:12:10Z</time>
      </trkpt>
      <trkpt lat="44.38481" lon="3.63882">
        <ele>948.48</ele>
        <time>2023-05-06T09:12:24Z</time>
      </trkpt>
      <trkpt lat="44.3847" lon="3.63896">
        <ele>949.92</ele>
        <time>2023-05-06T09:12:34Z</time>
      </trkpt>
      <trkpt lat="44.38465" lon="3.63906">
        <ele>950.88</ele>
        <time>2023-05-06T09:12:45Z</time>
      </trkpt>
      <trkpt lat="44.3846" lon="3.63927">
        <ele>951.84</ele>
        <time>2023-05-06T09:12:56Z</time>
      </trkpt>
      <trkpt lat="44.38458" lon="3.63932">
        <ele>952.32</ele>
        <time>2023-05-06T09:13:00Z</time>
      </trkpt>
      <trkpt lat="44.38448" lon="3.63952">
        <ele>952.8</ele>
        <time>2023-05-06T09:13:13Z</time>
      </trkpt>
      <trkpt lat="44.38441" lon="3.63969">
        <ele>951.36</ele>
        <time>2023-05-06T09:13:25Z</time>
      </trkpt>
      <trkpt lat="44.38431" lon="3.63991">
        <ele>951.84</ele>
        <time>2023-05-06T09:13:38Z</time>
      </trkpt>
      <trkpt lat="44.38425" lon="3.6401">
        <ele>950.88</ele>
        <time>2023-05-06T09:13:50Z</time>
      </trkpt>
      <trkpt lat="44.38422" lon="3.6403">
        <ele>949.44</ele>
        <time>2023-05-06T09:14:02Z</time>
      </trkpt>
      <trkpt lat="44.38424" lon="3.64035">
        <ele>948.48</ele>
        <time>2023-05-06T09:14:15Z</time>
      </trkpt>
      <trkpt lat="44.38422" lon="3.64035">
        <ele>947.52</ele>
        <time>2023-05-06T09:14:27Z</time>
      </trkpt>
      <trkpt lat="44.38421" lon="3.64034">
        <ele>947.04</ele>
        <time>2023-05-06T09:14:43Z</time>
      </trkpt>
      <trkpt lat="44.38423" lon="3.64035">
        <ele>947.52</ele>
        <time>2023-05-06T09:15:01Z</time>
      </trkpt>
      <trkpt lat="44.38425" lon="3.64038">
        <ele>948.48</ele>
        <time>2023-05-06T09:15:18Z</time>
      </trkpt>
      <trkpt lat="44.38427" lon="3.64041">
        <ele>949.44</ele>
        <time>2023-05-06T09:15:44Z</time>
      </trkpt>
      <trkpt lat="44.38428" lon="3.6404">
        <ele>951.84</ele>
        <time>2023-05-06T09:16:03Z</time>
      </trkpt>
      <trkpt lat="44.38425" lon="3.64041">
        <ele>952.32</ele>
        <time>2023-05-06T09:16:26Z</time>
      </trkpt>
      <trkpt lat="44.38417" lon="3.64043">
        <ele>952.8</ele>
        <time>2023-05-06T09:16:40Z</time>
      </trkpt>
      <trkpt lat="44.38416" lon="3.64044">
        <ele>952.8</ele>
        <time>2023-05-06T09:16:41Z</time>
      </trkpt>
      <trkpt lat="44.38415" lon="3.64047">
        <ele>952.8</ele>
        <time>2023-05-06T09:16:44Z</time>
      </trkpt>
      <trkpt lat="44.38411" lon="3.64051">
        <ele>953.28</ele>
        <time>2023-05-06T09:16:49Z</time>
      </trkpt>
      <trkpt lat="44.38406" lon="3.64068">
        <ele>950.88</ele>
        <time>2023-05-06T09:17:00Z</time>
      </trkpt>
      <trkpt lat="44.38403" lon="3.64074">
        <ele>950.4</ele>
        <time>2023-05-06T09:17:04Z</time>
      </trkpt>
      <trkpt lat="44.384" lon="3.64082">
        <ele>949.92</ele>
        <time>2023-05-06T09:17:11Z</time>
      </trkpt>
      <trkpt lat="44.38385" lon="3.64095">
        <ele>946.07</ele>
        <time>2023-05-06T09:17:22Z</time>
      </trkpt>
      <trkpt lat="44.38383" lon="3.64097">
        <ele>945.59</ele>
        <time>2023-05-06T09:17:26Z</time>
      </trkpt>
      <trkpt lat="44.38378" lon="3.64107">
        <ele>944.15</ele>
        <time>2023-05-06T09:17:35Z</time>
      </trkpt>
      <trkpt lat="44.38376" lon="3.64113">
        <ele>944.15</ele>
        <time>2023-05-06T09:17:42Z</time>
      </trkpt>
      <trkpt lat="44.38369" lon="3.64122">
        <ele>945.59</ele>
        <time>2023-05-06T09:17:53Z</time>
      </trkpt>
      <trkpt lat="44.38362" lon="3.64131">
        <ele>946.56</ele>
        <time>2023-05-06T09:18:07Z</time>
      </trkpt>
      <trkpt lat="44.38355" lon="3.64141">
        <ele>947.52</ele>
        <time>2023-05-06T09:18:18Z</time>
      </trkpt>
      <trkpt lat="44.38354" lon="3.64145">
        <ele>947.04</ele>
        <time>2023-05-06T09:18:21Z</time>
      </trkpt>
      <trkpt lat="44.3835" lon="3.64162">
        <ele>947.04</ele>
        <time>2023-05-06T09:18:32Z</time>
      </trkpt>
      <trkpt lat="44.38342" lon="3.64179">
        <ele>948</ele>
        <time>2023-05-06T09:18:47Z</time>
      </trkpt>
      <trkpt lat="44.38339" lon="3.64184">
        <ele>948</ele>
        <time>2023-05-06T09:19:00Z</time>
      </trkpt>
      <trkpt lat="44.38337" lon="3.64185">
        <ele>948</ele>
        <time>2023-05-06T09:19:18Z</time>
      </trkpt>
      <trkpt lat="44.38335" lon="3.64197">
        <ele>947.52</ele>
        <time>2023-05-06T09:19:31Z</time>
      </trkpt>
      <trkpt lat="44.38329" lon="3.64218">
        <ele>948</ele>
        <time>2023-05-06T09:19:44Z</time>
      </trkpt>
      <trkpt lat="44.38325" lon="3.64239">
        <ele>948.48</ele>
        <time>2023-05-06T09:19:55Z</time>
      </trkpt>
      <trkpt lat="44.38325" lon="3.6424">
        <ele>948.48</ele>
        <time>2023-05-06T09:19:56Z</time>
      </trkpt>
      <trkpt lat="44.38327" lon="3.64249">
        <ele>948.96</ele>
        <time>2023-05-06T09:20:00Z</time>
      </trkpt>
      <trkpt lat="44.38328" lon="3.64257">
        <ele>948.96</ele>
        <time>2023-05-06T09:20:06Z</time>
      </trkpt>
      <trkpt lat="44.38332" lon="3.64268">
        <ele>949.44</ele>
        <time>2023-05-06T09:20:11Z</time>
      </trkpt>
      <trkpt lat="44.38333" lon="3.64271">
        <ele>948.96</ele>
        <time>2023-05-06T09:20:13Z</time>
      </trkpt>
      <trkpt lat="44.38332" lon="3.64277">
        <ele>948.48</ele>
        <time>2023-05-06T09:20:17Z</time>
      </trkpt>
      <trkpt lat="44.38333" lon="3.64289">
        <ele>948</ele>
        <time>2023-05-06T09:20:23Z</time>
      </trkpt>
      <trkpt lat="44.38332" lon="3.64308">
        <ele>947.52</ele>
        <time>2023-05-06T09:20:34Z</time>
      </trkpt>
      <trkpt lat="44.38325" lon="3.64334">
        <ele>946.56</ele>
        <time>2023-05-06T09:20:47Z</time>
      </trkpt>
      <trkpt lat="44.3832" lon="3.64351">
        <ele>944.15</ele>
        <time>2023-05-06T09:20:58Z</time>
      </trkpt>
      <trkpt lat="44.3832" lon="3.64357">
        <ele>943.67</ele>
        <time>2023-05-06T09:21:01Z</time>
      </trkpt>
      <trkpt lat="44.38315" lon="3.6437">
        <ele>942.71</ele>
        <time>2023-05-06T09:21:08Z</time>
      </trkpt>
      <trkpt lat="44.38304" lon="3.64363">
        <ele>940.31</ele>
        <time>2023-05-06T09:21:18Z</time>
      </trkpt>
      <trkpt lat="44.38293" lon="3.64352">
        <ele>940.79</ele>
        <time>2023-05-06T09:21:31Z</time>
      </trkpt>
      <trkpt lat="44.38284" lon="3.64348">
        <ele>941.75</ele>
        <time>2023-05-06T09:21:40Z</time>
      </trkpt>
      <trkpt lat="44.38276" lon="3.64345">
        <ele>942.23</ele>
        <time>2023-05-06T09:21:46Z</time>
      </trkpt>
      <trkpt lat="44.38262" lon="3.64338">
        <ele>944.15</ele>
        <time>2023-05-06T09:21:59Z</time>
      </trkpt>
      <trkpt lat="44.38247" lon="3.64334">
        <ele>949.44</ele>
        <time>2023-05-06T09:22:11Z</time>
      </trkpt>
      <trkpt lat="44.38238" lon="3.64335">
        <ele>952.8</ele>
        <time>2023-05-06T09:22:18Z</time>
      </trkpt>
      <trkpt lat="44.38229" lon="3.64336">
        <ele>956.65</ele>
        <time>2023-05-06T09:22:26Z</time>
      </trkpt>
      <trkpt lat="44.38214" lon="3.64335">
        <ele>960.01</ele>
        <time>2023-05-06T09:22:37Z</time>
      </trkpt>
      <trkpt lat="44.38212" lon="3.64336">
        <ele>960.49</ele>
        <time>2023-05-06T09:22:38Z</time>
      </trkpt>
      <trkpt lat="44.38201" lon="3.64338">
        <ele>962.42</ele>
        <time>2023-05-06T09:22:48Z</time>
      </trkpt>
      <trkpt lat="44.38186" lon="3.64342">
        <ele>964.82</ele>
        <time>2023-05-06T09:23:00Z</time>
      </trkpt>
      <trkpt lat="44.38181" lon="3.64345">
        <ele>965.78</ele>
        <time>2023-05-06T09:23:05Z</time>
      </trkpt>
      <trkpt lat="44.38167" lon="3.64353">
        <ele>968.67</ele>
        <time>2023-05-06T09:23:17Z</time>
      </trkpt>
      <trkpt lat="44.38161" lon="3.64359">
        <ele>971.07</ele>
        <time>2023-05-06T09:23:25Z</time>
      </trkpt>
      <trkpt lat="44.38152" lon="3.64371">
        <ele>973.95</ele>
        <time>2023-05-06T09:23:36Z</time>
      </trkpt>
      <trkpt lat="44.38142" lon="3.64383">
        <ele>977.32</ele>
        <time>2023-05-06T09:23:48Z</time>
      </trkpt>
      <trkpt lat="44.38134" lon="3.64389">
        <ele>979.72</ele>
        <time>2023-05-06T09:23:56Z</time>
      </trkpt>
      <trkpt lat="44.38119" lon="3.64402">
        <ele>981.64</ele>
        <time>2023-05-06T09:24:10Z</time>
      </trkpt>
      <trkpt lat="44.38109" lon="3.64411">
        <ele>982.6</ele>
        <time>2023-05-06T09:24:20Z</time>
      </trkpt>
      <trkpt lat="44.38098" lon="3.64421">
        <ele>984.05</ele>
        <time>2023-05-06T09:24:32Z</time>
      </trkpt>
      <trkpt lat="44.38088" lon="3.64432">
        <ele>984.05</ele>
        <time>2023-05-06T09:24:43Z</time>
      </trkpt>
      <trkpt lat="44.38078" lon="3.64437">
        <ele>984.53</ele>
        <time>2023-05-06T09:24:54Z</time>
      </trkpt>
      <trkpt lat="44.38073" lon="3.6444">
        <ele>985.97</ele>
        <time>2023-05-06T09:25:03Z</time>
      </trkpt>
      <trkpt lat="44.38058" lon="3.64448">
        <ele>988.37</ele>
        <time>2023-05-06T09:25:15Z</time>
      </trkpt>
      <trkpt lat="44.38051" lon="3.6445">
        <ele>989.33</ele>
        <time>2023-05-06T09:25:27Z</time>
      </trkpt>
      <trkpt lat="44.38033" lon="3.64447">
        <ele>989.33</ele>
        <time>2023-05-06T09:25:40Z</time>
      </trkpt>
      <trkpt lat="44.38018" lon="3.64437">
        <ele>989.81</ele>
        <time>2023-05-06T09:25:53Z</time>
      </trkpt>
      <trkpt lat="44.38003" lon="3.64426">
        <ele>990.78</ele>
        <time>2023-05-06T09:26:04Z</time>
      </trkpt>
      <trkpt lat="44.37986" lon="3.64413">
        <ele>991.74</ele>
        <time>2023-05-06T09:26:18Z</time>
      </trkpt>
      <trkpt lat="44.37969" lon="3.64399">
        <ele>993.66</ele>
        <time>2023-05-06T09:26:32Z</time>
      </trkpt>
      <trkpt lat="44.37954" lon="3.64388">
        <ele>994.14</ele>
        <time>2023-05-06T09:26:45Z</time>
      </trkpt>
      <trkpt lat="44.37938" lon="3.64379">
        <ele>995.1</ele>
        <time>2023-05-06T09:26:58Z</time>
      </trkpt>
      <trkpt lat="44.37934" lon="3.64376">
        <ele>994.62</ele>
        <time>2023-05-06T09:27:02Z</time>
      </trkpt>
      <trkpt lat="44.37922" lon="3.64373">
        <ele>993.66</ele>
        <time>2023-05-06T09:27:15Z</time>
      </trkpt>
      <trkpt lat="44.37909" lon="3.6437">
        <ele>995.1</ele>
        <time>2023-05-06T09:27:27Z</time>
      </trkpt>
      <trkpt lat="44.37895" lon="3.64373">
        <ele>997.02</ele>
        <time>2023-05-06T09:27:40Z</time>
      </trkpt>
      <trkpt lat="44.3788" lon="3.64377">
        <ele>999.43</ele>
        <time>2023-05-06T09:27:52Z</time>
      </trkpt>
      <trkpt lat="44.37866" lon="3.64383">
        <ele>1002.31</ele>
        <time>2023-05-06T09:28:05Z</time>
      </trkpt>
      <trkpt lat="44.3786" lon="3.64388">
        <ele>1003.27</ele>
        <time>2023-05-06T09:28:11Z</time>
      </trkpt>
      <trkpt lat="44.37854" lon="3.64393">
        <ele>1004.72</ele>
        <time>2023-05-06T09:28:17Z</time>
      </trkpt>
      <trkpt lat="44.37843" lon="3.64403">
        <ele>1006.16</ele>
        <time>2023-05-06T09:28:27Z</time>
      </trkpt>
      <trkpt lat="44.37832" lon="3.64412">
        <ele>1007.6</ele>
        <time>2023-05-06T09:28:38Z</time>
      </trkpt>
      <trkpt lat="44.37822" lon="3.6442">
        <ele>1009.04</ele>
        <time>2023-05-06T09:28:48Z</time>
      </trkpt>
      <trkpt lat="44.3781" lon="3.64431">
        <ele>1011.44</ele>
        <time>2023-05-06T09:29:00Z</time>
      </trkpt>
      <trkpt lat="44.37798" lon="3.64437">
        <ele>1012.89</ele>
        <time>2023-05-06T09:29:10Z</time>
      </trkpt>
      <trkpt lat="44.37795" lon="3.64439">
        <ele>1013.37</ele>
        <time>2023-05-06T09:29:14Z</time>
      </trkpt>
      <trkpt lat="44.37783" lon="3.64445">
        <ele>1015.29</ele>
        <time>2023-05-06T09:29:25Z</time>
      </trkpt>
      <trkpt lat="44.37767" lon="3.64447">
        <ele>1016.73</ele>
        <time>2023-05-06T09:29:37Z</time>
      </trkpt>
      <trkpt lat="44.37752" lon="3.64444">
        <ele>1017.69</ele>
        <time>2023-05-06T09:29:49Z</time>
      </trkpt>
      <trkpt lat="44.37744" lon="3.64443">
        <ele>1017.69</ele>
        <time>2023-05-06T09:29:55Z</time>
      </trkpt>
      <trkpt lat="44.3773" lon="3.64439">
        <ele>1015.77</ele>
        <time>2023-05-06T09:30:06Z</time>
      </trkpt>
      <trkpt lat="44.37716" lon="3.6444">
        <ele>1017.69</ele>
        <time>2023-05-06T09:30:17Z</time>
      </trkpt>
      <trkpt lat="44.37702" lon="3.64439">
        <ele>1019.62</ele>
        <time>2023-05-06T09:30:28Z</time>
      </trkpt>
      <trkpt lat="44.3769" lon="3.64439">
        <ele>1021.06</ele>
        <time>2023-05-06T09:30:39Z</time>
      </trkpt>
      <trkpt lat="44.37678" lon="3.64438">
        <ele>1022.02</ele>
        <time>2023-05-06T09:30:51Z</time>
      </trkpt>
      <trkpt lat="44.37668" lon="3.64435">
        <ele>1022.5</ele>
        <time>2023-05-06T09:31:02Z</time>
      </trkpt>
      <trkpt lat="44.3766" lon="3.64434">
        <ele>1022.02</ele>
        <time>2023-05-06T09:31:11Z</time>
      </trkpt>
      <trkpt lat="44.37649" lon="3.64431">
        <ele>1021.54</ele>
        <time>2023-05-06T09:31:21Z</time>
      </trkpt>
      <trkpt lat="44.3764" lon="3.6443">
        <ele>1022.02</ele>
        <time>2023-05-06T09:31:29Z</time>
      </trkpt>
      <trkpt lat="44.37636" lon="3.64431">
        <ele>1022.02</ele>
        <time>2023-05-06T09:31:33Z</time>
      </trkpt>
      <trkpt lat="44.37624" lon="3.64429">
        <ele>1022.98</ele>
        <time>2023-05-06T09:31:44Z</time>
      </trkpt>
      <trkpt lat="44.37614" lon="3.64429">
        <ele>1022.5</ele>
        <time>2023-05-06T09:31:54Z</time>
      </trkpt>
      <trkpt lat="44.37602" lon="3.64428">
        <ele>1022.02</ele>
        <time>2023-05-06T09:32:03Z</time>
      </trkpt>
      <trkpt lat="44.37597" lon="3.64427">
        <ele>1022.02</ele>
        <time>2023-05-06T09:32:08Z</time>
      </trkpt>
      <trkpt lat="44.37583" lon="3.64428">
        <ele>1022.02</ele>
        <time>2023-05-06T09:32:19Z</time>
      </trkpt>
      <trkpt lat="44.37571" lon="3.64427">
        <ele>1022.98</ele>
        <time>2023-05-06T09:32:29Z</time>
      </trkpt>
      <trkpt lat="44.37564" lon="3.64427">
        <ele>1023.46</ele>
        <time>2023-05-06T09:32:35Z</time>
      </trkpt>
      <trkpt lat="44.3756" lon="3.64432">
        <ele>1023.46</ele>
        <time>2023-05-06T09:32:46Z</time>
      </trkpt>
      <trkpt lat="44.37559" lon="3.64432">
        <ele>1023.94</ele>
        <time>2023-05-06T09:32:56Z</time>
      </trkpt>
      <trkpt lat="44.37559" lon="3.64431">
        <ele>1023.94</ele>
        <time>2023-05-06T09:32:57Z</time>
      </trkpt>
      <trkpt lat="44.37547" lon="3.64432">
        <ele>1024.42</ele>
        <time>2023-05-06T09:33:06Z</time>
      </trkpt>
      <trkpt lat="44.37539" lon="3.64433">
        <ele>1024.42</ele>
        <time>2023-05-06T09:33:17Z</time>
      </trkpt>
      <trkpt lat="44.37527" lon="3.64432">
        <ele>1024.9</ele>
        <time>2023-05-06T09:33:26Z</time>
      </trkpt>
      <trkpt lat="44.37515" lon="3.64429">
        <ele>1025.86</ele>
        <time>2023-05-06T09:33:35Z</time>
      </trkpt>
      <trkpt lat="44.37503" lon="3.64426">
        <ele>1025.38</ele>
        <time>2023-05-06T09:33:44Z</time>
      </trkpt>
      <trkpt lat="44.37491" lon="3.64419">
        <ele>1024.42</ele>
        <time>2023-05-06T09:33:54Z</time>
      </trkpt>
      <trkpt lat="44.37479" lon="3.64409">
        <ele>1023.94</ele>
        <time>2023-05-06T09:34:04Z</time>
      </trkpt>
      <trkpt lat="44.37469" lon="3.64398">
        <ele>1024.42</ele>
        <time>2023-05-06T09:34:14Z</time>
      </trkpt>
      <trkpt lat="44.37463" lon="3.64382">
        <ele>1026.34</ele>
        <time>2023-05-06T09:34:25Z</time>
      </trkpt>
      <trkpt lat="44.37458" lon="3.64367">
        <ele>1028.27</ele>
        <time>2023-05-06T09:34:35Z</time>
      </trkpt>
      <trkpt lat="44.37456" lon="3.64358">
        <ele>1029.23</ele>
        <time>2023-05-06T09:34:44Z</time>
      </trkpt>
      <trkpt lat="44.37451" lon="3.64345">
        <ele>1030.19</ele>
        <time>2023-05-06T09:35:00Z</time>
      </trkpt>
      <trkpt lat="44.37451" lon="3.64344">
        <ele>1030.19</ele>
        <time>2023-05-06T09:35:33Z</time>
      </trkpt>
      <trkpt lat="44.37451" lon="3.64344">
        <ele>1030.19</ele>
        <time>2023-05-06T09:35:57Z</time>
      </trkpt>
      <trkpt lat="44.37451" lon="3.64344">
        <ele>1030.19</ele>
        <time>2023-05-06T09:36:18Z</time>
      </trkpt>
      <trkpt lat="44.37451" lon="3.64343">
        <ele>1029.71</ele>
        <time>2023-05-06T09:36:38Z</time>
      </trkpt>
      <trkpt lat="44.3745" lon="3.6434">
        <ele>1030.19</ele>
        <time>2023-05-06T09:36:55Z</time>
      </trkpt>
      <trkpt lat="44.37448" lon="3.64339">
        <ele>1030.19</ele>
        <time>2023-05-06T09:37:15Z</time>
      </trkpt>
      <trkpt lat="44.37447" lon="3.64336">
        <ele>1029.71</ele>
        <time>2023-05-06T09:37:32Z</time>
      </trkpt>
      <trkpt lat="44.37442" lon="3.64332">
        <ele>1030.19</ele>
        <time>2023-05-06T09:37:49Z</time>
      </trkpt>
      <trkpt lat="44.37437" lon="3.64331">
        <ele>1030.19</ele>
        <time>2023-05-06T09:37:59Z</time>
      </trkpt>
      <trkpt lat="44.37433" lon="3.64329">
        <ele>1030.67</ele>
        <time>2023-05-06T09:38:02Z</time>
      </trkpt>
      <trkpt lat="44.37424" lon="3.64321">
        <ele>1029.71</ele>
        <time>2023-05-06T09:38:13Z</time>
      </trkpt>
      <trkpt lat="44.37421" lon="3.64318">
        <ele>1029.71</ele>
        <time>2023-05-06T09:38:21Z</time>
      </trkpt>
      <trkpt lat="44.37421" lon="3.64318">
        <ele>1029.71</ele>
        <time>2023-05-06T09:38:34Z</time>
      </trkpt>
      <trkpt lat="44.37416" lon="3.64317">
        <ele>1029.23</ele>
        <time>2023-05-06T09:38:43Z</time>
      </trkpt>
      <trkpt lat="44.37411" lon="3.64315">
        <ele>1029.23</ele>
        <time>2023-05-06T09:38:55Z</time>
      </trkpt>
      <trkpt lat="44.37409" lon="3.64312">
        <ele>1029.23</ele>
        <time>2023-05-06T09:39:19Z</time>
      </trkpt>
      <trkpt lat="44.37409" lon="3.64311">
        <ele>1029.23</ele>
        <time>2023-05-06T09:39:20Z</time>
      </trkpt>
      <trkpt lat="44.37405" lon="3.64309">
        <ele>1028.27</ele>
        <time>2023-05-06T09:39:24Z</time>
      </trkpt>
      <trkpt lat="44.37393" lon="3.64296">
        <ele>1027.79</ele>
        <time>2023-05-06T09:39:36Z</time>
      </trkpt>
      <trkpt lat="44.37382" lon="3.64285">
        <ele>1027.79</ele>
        <time>2023-05-06T09:39:48Z</time>
      </trkpt>
      <trkpt lat="44.37373" lon="3.64277">
        <ele>1028.27</ele>
        <time>2023-05-06T09:39:58Z</time>
      </trkpt>
      <trkpt lat="44.37363" lon="3.64269">
        <ele>1028.75</ele>
        <time>2023-05-06T09:40:07Z</time>
      </trkpt>
      <trkpt lat="44.37352" lon="3.64263">
        <ele>1027.79</ele>
        <time>2023-05-06T09:40:18Z</time>
      </trkpt>
      <trkpt lat="44.37343" lon="3.64262">
        <ele>1028.75</ele>
        <time>2023-05-06T09:40:27Z</time>
      </trkpt>
      <trkpt lat="44.37327" lon="3.64261">
        <ele>1028.75</ele>
        <time>2023-05-06T09:40:39Z</time>
      </trkpt>
      <trkpt lat="44.37326" lon="3.64261">
        <ele>1028.75</ele>
        <time>2023-05-06T09:40:42Z</time>
      </trkpt>
      <trkpt lat="44.37309" lon="3.6426">
        <ele>1026.83</ele>
        <time>2023-05-06T09:40:53Z</time>
      </trkpt>
      <trkpt lat="44.37299" lon="3.6426">
        <ele>1025.86</ele>
        <time>2023-05-06T09:41:01Z</time>
      </trkpt>
      <trkpt lat="44.37284" lon="3.64259">
        <ele>1026.83</ele>
        <time>2023-05-06T09:41:12Z</time>
      </trkpt>
      <trkpt lat="44.3728" lon="3.64259">
        <ele>1026.83</ele>
        <time>2023-05-06T09:41:15Z</time>
      </trkpt>
      <trkpt lat="44.37264" lon="3.64258">
        <ele>1024.42</ele>
        <time>2023-05-06T09:41:26Z</time>
      </trkpt>
      <trkpt lat="44.37247" lon="3.64257">
        <ele>1022.5</ele>
        <time>2023-05-06T09:41:38Z</time>
      </trkpt>
      <trkpt lat="44.3723" lon="3.64253">
        <ele>1021.54</ele>
        <time>2023-05-06T09:41:52Z</time>
      </trkpt>
      <trkpt lat="44.37214" lon="3.64248">
        <ele>1020.58</ele>
        <time>2023-05-06T09:42:04Z</time>
      </trkpt>
      <trkpt lat="44.37197" lon="3.64239">
        <ele>1019.13</ele>
        <time>2023-05-06T09:42:17Z</time>
      </trkpt>
      <trkpt lat="44.37181" lon="3.64228">
        <ele>1018.65</ele>
        <time>2023-05-06T09:42:30Z</time>
      </trkpt>
      <trkpt lat="44.37168" lon="3.64218">
        <ele>1019.13</ele>
        <time>2023-05-06T09:42:41Z</time>
      </trkpt>
      <trkpt lat="44.37158" lon="3.64206">
        <ele>1019.13</ele>
        <time>2023-05-06T09:42:51Z</time>
      </trkpt>
      <trkpt lat="44.37147" lon="3.64192">
        <ele>1018.65</ele>
        <time>2023-05-06T09:43:01Z</time>
      </trkpt>
      <trkpt lat="44.37134" lon="3.64176">
        <ele>1017.21</ele>
        <time>2023-05-06T09:43:12Z</time>
      </trkpt>
      <trkpt lat="44.37127" lon="3.64168">
        <ele>1016.73</ele>
        <time>2023-05-06T09:43:18Z</time>
      </trkpt>
      <trkpt lat="44.37119" lon="3.64161">
        <ele>1016.73</ele>
        <time>2023-05-06T09:43:27Z</time>
      </trkpt>
      <trkpt lat="44.37108" lon="3.64148">
        <ele>1016.25</ele>
        <time>2023-05-06T09:43:38Z</time>
      </trkpt>
      <trkpt lat="44.37094" lon="3.64132">
        <ele>1016.73</ele>
        <time>2023-05-06T09:43:49Z</time>
      </trkpt>
      <trkpt lat="44.37083" lon="3.64122">
        <ele>1015.77</ele>
        <time>2023-05-06T09:43:59Z</time>
      </trkpt>
      <trkpt lat="44.37073" lon="3.64114">
        <ele>1014.81</ele>
        <time>2023-05-06T09:44:09Z</time>
      </trkpt>
      <trkpt lat="44.37063" lon="3.64108">
        <ele>1014.81</ele>
        <time>2023-05-06T09:44:18Z</time>
      </trkpt>
      <trkpt lat="44.37058" lon="3.64108">
        <ele>1014.81</ele>
        <time>2023-05-06T09:44:28Z</time>
      </trkpt>
      <trkpt lat="44.37059" lon="3.64108">
        <ele>1015.29</ele>
        <time>2023-05-06T09:44:38Z</time>
      </trkpt>
      <trkpt lat="44.3706" lon="3.64109">
        <ele>1015.77</ele>
        <time>2023-05-06T09:44:50Z</time>
      </trkpt>
      <trkpt lat="44.37049" lon="3.64102">
        <ele>1016.73</ele>
        <time>2023-05-06T09:45:13Z</time>
      </trkpt>
      <trkpt lat="44.37024" lon="3.64085">
        <ele>1017.21</ele>
        <time>2023-05-06T09:45:34Z</time>
      </trkpt>
      <trkpt lat="44.37007" lon="3.64075">
        <ele>1009.52</ele>
        <time>2023-05-06T09:45:52Z</time>
      </trkpt>
      <trkpt lat="44.36998" lon="3.6407">
        <ele>1006.16</ele>
        <time>2023-05-06T09:46:10Z</time>
      </trkpt>
      <trkpt lat="44.36987" lon="3.64065">
        <ele>1003.27</ele>
        <time>2023-05-06T09:46:26Z</time>
      </trkpt>
      <trkpt lat="44.36971" lon="3.64056">
        <ele>1004.23</ele>
        <time>2023-05-06T09:46:43Z</time>
      </trkpt>
      <trkpt lat="44.36962" lon="3.64051">
        <ele>1004.23</ele>
        <time>2023-05-06T09:46:52Z</time>
      </trkpt>
      <trkpt lat="44.36958" lon="3.64047">
        <ele>1004.72</ele>
        <time>2023-05-06T09:47:03Z</time>
      </trkpt>
      <trkpt lat="44.36955" lon="3.6404">
        <ele>1005.2</ele>
        <time>2023-05-06T09:47:17Z</time>
      </trkpt>
      <trkpt lat="44.36944" lon="3.64021">
        <ele>1004.72</ele>
        <time>2023-05-06T09:47:30Z</time>
      </trkpt>
      <trkpt lat="44.36935" lon="3.64006">
        <ele>1003.75</ele>
        <time>2023-05-06T09:47:41Z</time>
      </trkpt>
      <trkpt lat="44.36926" lon="3.63989">
        <ele>1001.83</ele>
        <time>2023-05-06T09:47:53Z</time>
      </trkpt>
      <trkpt lat="44.36925" lon="3.63988">
        <ele>1001.83</ele>
        <time>2023-05-06T09:47:55Z</time>
      </trkpt>
      <trkpt lat="44.3692" lon="3.6398">
        <ele>1001.83</ele>
        <time>2023-05-06T09:48:00Z</time>
      </trkpt>
      <trkpt lat="44.36909" lon="3.63963">
        <ele>1000.39</ele>
        <time>2023-05-06T09:48:14Z</time>
      </trkpt>
      <trkpt lat="44.36898" lon="3.63944">
        <ele>997.51</ele>
        <time>2023-05-06T09:48:26Z</time>
      </trkpt>
      <trkpt lat="44.36889" lon="3.63932">
        <ele>996.54</ele>
        <time>2023-05-06T09:48:35Z</time>
      </trkpt>
      <trkpt lat="44.36882" lon="3.63924">
        <ele>994.62</ele>
        <time>2023-05-06T09:48:54Z</time>
      </trkpt>
      <trkpt lat="44.36878" lon="3.63921">
        <ele>994.14</ele>
        <time>2023-05-06T09:49:11Z</time>
      </trkpt>
      <trkpt lat="44.3687" lon="3.63914">
        <ele>994.62</ele>
        <time>2023-05-06T09:49:20Z</time>
      </trkpt>
      <trkpt lat="44.3687" lon="3.63914">
        <ele>995.1</ele>
        <time>2023-05-06T09:49:35Z</time>
      </trkpt>
      <trkpt lat="44.36872" lon="3.63916">
        <ele>995.1</ele>
        <time>2023-05-06T09:49:40Z</time>
      </trkpt>
      <trkpt lat="44.36876" lon="3.63925">
        <ele>996.06</ele>
        <time>2023-05-06T09:49:47Z</time>
      </trkpt>
      <trkpt lat="44.36886" lon="3.63942">
        <ele>997.51</ele>
        <time>2023-05-06T09:50:00Z</time>
      </trkpt>
      <trkpt lat="44.36889" lon="3.63951">
        <ele>998.47</ele>
        <time>2023-05-06T09:50:09Z</time>
      </trkpt>
      <trkpt lat="44.36893" lon="3.63971">
        <ele>999.91</ele>
        <time>2023-05-06T09:50:21Z</time>
      </trkpt>
      <trkpt lat="44.36897" lon="3.63996">
        <ele>1002.31</ele>
        <time>2023-05-06T09:50:35Z</time>
      </trkpt>
      <trkpt lat="44.369" lon="3.6401">
        <ele>1002.79</ele>
        <time>2023-05-06T09:50:47Z</time>
      </trkpt>
      <trkpt lat="44.36901" lon="3.64021">
        <ele>1004.23</ele>
        <time>2023-05-06T09:50:56Z</time>
      </trkpt>
      <trkpt lat="44.36901" lon="3.64046">
        <ele>1007.12</ele>
        <time>2023-05-06T09:51:11Z</time>
      </trkpt>
      <trkpt lat="44.36897" lon="3.64061">
        <ele>1010</ele>
        <time>2023-05-06T09:51:21Z</time>
      </trkpt>
      <trkpt lat="44.36896" lon="3.64064">
        <ele>1010.48</ele>
        <time>2023-05-06T09:51:24Z</time>
      </trkpt>
      <trkpt lat="44.36889" lon="3.64083">
        <ele>1011.93</ele>
        <time>2023-05-06T09:51:36Z</time>
      </trkpt>
      <trkpt lat="44.36886" lon="3.6409">
        <ele>1011.44</ele>
        <time>2023-05-06T09:51:41Z</time>
      </trkpt>
      <trkpt lat="44.36883" lon="3.64094">
        <ele>1011.93</ele>
        <time>2023-05-06T09:51:45Z</time>
      </trkpt>
      <trkpt lat="44.36872" lon="3.64101">
        <ele>1010.96</ele>
        <time>2023-05-06T09:51:56Z</time>
      </trkpt>
      <trkpt lat="44.36865" lon="3.64107">
        <ele>1009.52</ele>
        <time>2023-05-06T09:52:04Z</time>
      </trkpt>
      <trkpt lat="44.36864" lon="3.64108">
        <ele>1009.52</ele>
        <time>2023-05-06T09:52:07Z</time>
      </trkpt>
      <trkpt lat="44.36852" lon="3.64122">
        <ele>1009.52</ele>
        <time>2023-05-06T09:52:19Z</time>
      </trkpt>
      <trkpt lat="44.3685" lon="3.64126">
        <ele>1008.56</ele>
        <time>2023-05-06T09:52:22Z</time>
      </trkpt>
      <trkpt lat="44.36848" lon="3.64129">
        <ele>1008.08</ele>
        <time>2023-05-06T09:52:26Z</time>
      </trkpt>
      <trkpt lat="44.36839" lon="3.64139">
        <ele>1004.72</ele>
        <time>2023-05-06T09:52:34Z</time>
      </trkpt>
      <trkpt lat="44.36827" lon="3.64152">
        <ele>1000.39</ele>
        <time>2023-05-06T09:52:47Z</time>
      </trkpt>
      <trkpt lat="44.36821" lon="3.64157">
        <ele>998.95</ele>
        <time>2023-05-06T09:52:52Z</time>
      </trkpt>
      <trkpt lat="44.36806" lon="3.64164">
        <ele>995.1</ele>
        <time>2023-05-06T09:53:05Z</time>
      </trkpt>
      <trkpt lat="44.36793" lon="3.64176">
        <ele>991.26</ele>
        <time>2023-05-06T09:53:17Z</time>
      </trkpt>
      <trkpt lat="44.3679" lon="3.64181">
        <ele>989.81</ele>
        <time>2023-05-06T09:53:21Z</time>
      </trkpt>
      <trkpt lat="44.36784" lon="3.64199">
        <ele>985.97</ele>
        <time>2023-05-06T09:53:33Z</time>
      </trkpt>
      <trkpt lat="44.36781" lon="3.64219">
        <ele>984.05</ele>
        <time>2023-05-06T09:53:44Z</time>
      </trkpt>
      <trkpt lat="44.36782" lon="3.64232">
        <ele>984.05</ele>
        <time>2023-05-06T09:53:56Z</time>
      </trkpt>
      <trkpt lat="44.36783" lon="3.64241">
        <ele>984.05</ele>
        <time>2023-05-06T09:54:04Z</time>
      </trkpt>
      <trkpt lat="44.36789" lon="3.64256">
        <ele>984.05</ele>
        <time>2023-05-06T09:54:16Z</time>
      </trkpt>
      <trkpt lat="44.36795" lon="3.64272">
        <ele>984.53</ele>
        <time>2023-05-06T09:54:28Z</time>
      </trkpt>
      <trkpt lat="44.36796" lon="3.64289">
        <ele>984.53</ele>
        <time>2023-05-06T09:54:43Z</time>
      </trkpt>
      <trkpt lat="44.36795" lon="3.64289">
        <ele>985.01</ele>
        <time>2023-05-06T09:54:55Z</time>
      </trkpt>
      <trkpt lat="44.36791" lon="3.64294">
        <ele>983.57</ele>
        <time>2023-05-06T09:55:07Z</time>
      </trkpt>
      <trkpt lat="44.36791" lon="3.64295">
        <ele>984.05</ele>
        <time>2023-05-06T09:55:25Z</time>
      </trkpt>
      <trkpt lat="44.36791" lon="3.64295">
        <ele>984.05</ele>
        <time>2023-05-06T09:55:30Z</time>
      </trkpt>
      <trkpt lat="44.36788" lon="3.64295">
        <ele>984.05</ele>
        <time>2023-05-06T09:55:46Z</time>
      </trkpt>
      <trkpt lat="44.36786" lon="3.64293">
        <ele>984.05</ele>
        <time>2023-05-06T09:55:52Z</time>
      </trkpt>
      <trkpt lat="44.36776" lon="3.64293">
        <ele>983.09</ele>
        <time>2023-05-06T09:56:02Z</time>
      </trkpt>
      <trkpt lat="44.36766" lon="3.64293">
        <ele>981.64</ele>
        <time>2023-05-06T09:56:13Z</time>
      </trkpt>
      <trkpt lat="44.36763" lon="3.64294">
        <ele>980.68</ele>
        <time>2023-05-06T09:56:25Z</time>
      </trkpt>
      <trkpt lat="44.36763" lon="3.64294">
        <ele>980.2</ele>
        <time>2023-05-06T09:56:42Z</time>
      </trkpt>
      <trkpt lat="44.36763" lon="3.64294">
        <ele>979.24</ele>
        <time>2023-05-06T09:57:06Z</time>
      </trkpt>
      <trkpt lat="44.36762" lon="3.64294">
        <ele>979.24</ele>
        <time>2023-05-06T09:57:26Z</time>
      </trkpt>
      <trkpt lat="44.36747" lon="3.64296">
        <ele>976.84</ele>
        <time>2023-05-06T09:57:43Z</time>
      </trkpt>
      <trkpt lat="44.36741" lon="3.64294">
        <ele>974.43</ele>
        <time>2023-05-06T09:58:06Z</time>
      </trkpt>
      <trkpt lat="44.36741" lon="3.64295">
        <ele>974.43</ele>
        <time>2023-05-06T09:58:34Z</time>
      </trkpt>
      <trkpt lat="44.36741" lon="3.64295">
        <ele>973.95</ele>
        <time>2023-05-06T09:58:59Z</time>
      </trkpt>
      <trkpt lat="44.3674" lon="3.64294">
        <ele>972.99</ele>
        <time>2023-05-06T09:59:22Z</time>
      </trkpt>
      <trkpt lat="44.36729" lon="3.64291">
        <ele>967.7</ele>
        <time>2023-05-06T09:59:43Z</time>
      </trkpt>
      <trkpt lat="44.36713" lon="3.6429">
        <ele>969.63</ele>
        <time>2023-05-06T09:59:58Z</time>
      </trkpt>
      <trkpt lat="44.36698" lon="3.64291">
        <ele>969.63</ele>
        <time>2023-05-06T10:00:11Z</time>
      </trkpt>
      <trkpt lat="44.3668" lon="3.6429">
        <ele>968.67</ele>
        <time>2023-05-06T10:00:23Z</time>
      </trkpt>
      <trkpt lat="44.36662" lon="3.64286">
        <ele>967.22</ele>
        <time>2023-05-06T10:00:36Z</time>
      </trkpt>
      <trkpt lat="44.36646" lon="3.64285">
        <ele>965.3</ele>
        <time>2023-05-06T10:00:47Z</time>
      </trkpt>
      <trkpt lat="44.36635" lon="3.6428">
        <ele>964.34</ele>
        <time>2023-05-06T10:00:58Z</time>
      </trkpt>
      <trkpt lat="44.36627" lon="3.64277">
        <ele>962.9</ele>
        <time>2023-05-06T10:01:05Z</time>
      </trkpt>
      <trkpt lat="44.36615" lon="3.6427">
        <ele>960.01</ele>
        <time>2023-05-06T10:01:16Z</time>
      </trkpt>
      <trkpt lat="44.36605" lon="3.64266">
        <ele>959.05</ele>
        <time>2023-05-06T10:01:26Z</time>
      </trkpt>
      <trkpt lat="44.36589" lon="3.64259">
        <ele>956.65</ele>
        <time>2023-05-06T10:01:38Z</time>
      </trkpt>
      <trkpt lat="44.36581" lon="3.64257">
        <ele>954.73</ele>
        <time>2023-05-06T10:01:45Z</time>
      </trkpt>
      <trkpt lat="44.36565" lon="3.64255">
        <ele>952.32</ele>
        <time>2023-05-06T10:01:56Z</time>
      </trkpt>
      <trkpt lat="44.36555" lon="3.64246">
        <ele>951.36</ele>
        <time>2023-05-06T10:02:05Z</time>
      </trkpt>
      <trkpt lat="44.36546" lon="3.64239">
        <ele>949.92</ele>
        <time>2023-05-06T10:02:14Z</time>
      </trkpt>
      <trkpt lat="44.36544" lon="3.64238">
        <ele>949.44</ele>
        <time>2023-05-06T10:02:16Z</time>
      </trkpt>
      <trkpt lat="44.3654" lon="3.64238">
        <ele>948.96</ele>
        <time>2023-05-06T10:02:19Z</time>
      </trkpt>
      <trkpt lat="44.36538" lon="3.64241">
        <ele>947.52</ele>
        <time>2023-05-06T10:02:22Z</time>
      </trkpt>
      <trkpt lat="44.36544" lon="3.64254">
        <ele>944.63</ele>
        <time>2023-05-06T10:02:32Z</time>
      </trkpt>
      <trkpt lat="44.36549" lon="3.64268">
        <ele>941.27</ele>
        <time>2023-05-06T10:02:45Z</time>
      </trkpt>
      <trkpt lat="44.36552" lon="3.64272">
        <ele>939.83</ele>
        <time>2023-05-06T10:02:49Z</time>
      </trkpt>
      <trkpt lat="44.36565" lon="3.64292">
        <ele>935.98</ele>
        <time>2023-05-06T10:03:06Z</time>
      </trkpt>
      <trkpt lat="44.36573" lon="3.64306">
        <ele>932.62</ele>
        <time>2023-05-06T10:03:21Z</time>
      </trkpt>
      <trkpt lat="44.36572" lon="3.64304">
        <ele>931.65</ele>
        <time>2023-05-06T10:03:40Z</time>
      </trkpt>
      <trkpt lat="44.36572" lon="3.64305">
        <ele>931.65</ele>
        <time>2023-05-06T10:04:10Z</time>
      </trkpt>
      <trkpt lat="44.36572" lon="3.64305">
        <ele>931.65</ele>
        <time>2023-05-06T10:04:39Z</time>
      </trkpt>
      <trkpt lat="44.36571" lon="3.64304">
        <ele>931.65</ele>
        <time>2023-05-06T10:05:01Z</time>
      </trkpt>
      <trkpt lat="44.36572" lon="3.64304">
        <ele>931.65</ele>
        <time>2023-05-06T10:05:24Z</time>
      </trkpt>
      <trkpt lat="44.36583" lon="3.64327">
        <ele>931.17</ele>
        <time>2023-05-06T10:05:42Z</time>
      </trkpt>
      <trkpt lat="44.36596" lon="3.64349">
        <ele>928.29</ele>
        <time>2023-05-06T10:05:59Z</time>
      </trkpt>
      <trkpt lat="44.36607" lon="3.64365">
        <ele>926.37</ele>
        <time>2023-05-06T10:06:13Z</time>
      </trkpt>
      <trkpt lat="44.36608" lon="3.64368">
        <ele>925.41</ele>
        <time>2023-05-06T10:06:15Z</time>
      </trkpt>
      <trkpt lat="44.36622" lon="3.64382">
        <ele>923.48</ele>
        <time>2023-05-06T10:06:28Z</time>
      </trkpt>
      <trkpt lat="44.36629" lon="3.64391">
        <ele>921.08</ele>
        <time>2023-05-06T10:06:37Z</time>
      </trkpt>
      <trkpt lat="44.36637" lon="3.64403">
        <ele>918.68</ele>
        <time>2023-05-06T10:06:47Z</time>
      </trkpt>
      <trkpt lat="44.3665" lon="3.64416">
        <ele>915.31</ele>
        <time>2023-05-06T10:07:00Z</time>
      </trkpt>
      <trkpt lat="44.36658" lon="3.64431">
        <ele>910.03</ele>
        <time>2023-05-06T10:07:12Z</time>
      </trkpt>
      <trkpt lat="44.3667" lon="3.64444">
        <ele>906.18</ele>
        <time>2023-05-06T10:07:26Z</time>
      </trkpt>
      <trkpt lat="44.36681" lon="3.6445">
        <ele>903.78</ele>
        <time>2023-05-06T10:07:37Z</time>
      </trkpt>
      <trkpt lat="44.36688" lon="3.64459">
        <ele>902.33</ele>
        <time>2023-05-06T10:07:47Z</time>
      </trkpt>
      <trkpt lat="44.36685" lon="3.64459">
        <ele>901.85</ele>
        <time>2023-05-06T10:07:51Z</time>
      </trkpt>
      <trkpt lat="44.36676" lon="3.64461">
        <ele>899.93</ele>
        <time>2023-05-06T10:08:00Z</time>
      </trkpt>
      <trkpt lat="44.36673" lon="3.64459">
        <ele>899.45</ele>
        <time>2023-05-06T10:08:03Z</time>
      </trkpt>
      <trkpt lat="44.36664" lon="3.6446">
        <ele>898.01</ele>
        <time>2023-05-06T10:08:19Z</time>
      </trkpt>
      <trkpt lat="44.36654" lon="3.6446">
        <ele>896.57</ele>
        <time>2023-05-06T10:08:28Z</time>
      </trkpt>
      <trkpt lat="44.3665" lon="3.64461">
        <ele>896.09</ele>
        <time>2023-05-06T10:08:34Z</time>
      </trkpt>
      <trkpt lat="44.36636" lon="3.64464">
        <ele>894.64</ele>
        <time>2023-05-06T10:08:47Z</time>
      </trkpt>
      <trkpt lat="44.36621" lon="3.64466">
        <ele>891.28</ele>
        <time>2023-05-06T10:09:00Z</time>
      </trkpt>
      <trkpt lat="44.36613" lon="3.6447">
        <ele>888.4</ele>
        <time>2023-05-06T10:09:11Z</time>
      </trkpt>
      <trkpt lat="44.36599" lon="3.64473">
        <ele>885.03</ele>
        <time>2023-05-06T10:09:23Z</time>
      </trkpt>
      <trkpt lat="44.36584" lon="3.64476">
        <ele>882.15</ele>
        <time>2023-05-06T10:09:35Z</time>
      </trkpt>
      <trkpt lat="44.36572" lon="3.64477">
        <ele>879.74</ele>
        <time>2023-05-06T10:09:45Z</time>
      </trkpt>
      <trkpt lat="44.3656" lon="3.64471">
        <ele>879.74</ele>
        <time>2023-05-06T10:09:55Z</time>
      </trkpt>
      <trkpt lat="44.36551" lon="3.64465">
        <ele>876.86</ele>
        <time>2023-05-06T10:10:05Z</time>
      </trkpt>
      <trkpt lat="44.36543" lon="3.64458">
        <ele>874.94</ele>
        <time>2023-05-06T10:10:14Z</time>
      </trkpt>
      <trkpt lat="44.36533" lon="3.64449">
        <ele>872.05</ele>
        <time>2023-05-06T10:10:25Z</time>
      </trkpt>
      <trkpt lat="44.3652" lon="3.64441">
        <ele>870.61</ele>
        <time>2023-05-06T10:10:36Z</time>
      </trkpt>
      <trkpt lat="44.36509" lon="3.64435">
        <ele>867.73</ele>
        <time>2023-05-06T10:10:48Z</time>
      </trkpt>
      <trkpt lat="44.36499" lon="3.64427">
        <ele>866.29</ele>
        <time>2023-05-06T10:10:57Z</time>
      </trkpt>
      <trkpt lat="44.3649" lon="3.64423">
        <ele>865.32</ele>
        <time>2023-05-06T10:11:04Z</time>
      </trkpt>
      <trkpt lat="44.36493" lon="3.64438">
        <ele>862.44</ele>
        <time>2023-05-06T10:11:14Z</time>
      </trkpt>
      <trkpt lat="44.36496" lon="3.64443">
        <ele>861.48</ele>
        <time>2023-05-06T10:11:19Z</time>
      </trkpt>
      <trkpt lat="44.36501" lon="3.64458">
        <ele>858.11</ele>
        <time>2023-05-06T10:11:34Z</time>
      </trkpt>
      <trkpt lat="44.36504" lon="3.64464">
        <ele>857.63</ele>
        <time>2023-05-06T10:11:49Z</time>
      </trkpt>
      <trkpt lat="44.36504" lon="3.64471">
        <ele>857.15</ele>
        <time>2023-05-06T10:12:01Z</time>
      </trkpt>
      <trkpt lat="44.36507" lon="3.64478">
        <ele>857.63</ele>
        <time>2023-05-06T10:12:10Z</time>
      </trkpt>
      <trkpt lat="44.3651" lon="3.64496">
        <ele>855.71</ele>
        <time>2023-05-06T10:12:23Z</time>
      </trkpt>
      <trkpt lat="44.36512" lon="3.64507">
        <ele>853.79</ele>
        <time>2023-05-06T10:12:36Z</time>
      </trkpt>
      <trkpt lat="44.36513" lon="3.64519">
        <ele>851.38</ele>
        <time>2023-05-06T10:12:44Z</time>
      </trkpt>
      <trkpt lat="44.36518" lon="3.64543">
        <ele>848.5</ele>
        <time>2023-05-06T10:12:57Z</time>
      </trkpt>
      <trkpt lat="44.36522" lon="3.64561">
        <ele>846.1</ele>
        <time>2023-05-06T10:13:09Z</time>
      </trkpt>
      <trkpt lat="44.36524" lon="3.64559">
        <ele>845.14</ele>
        <time>2023-05-06T10:13:20Z</time>
      </trkpt>
      <trkpt lat="44.36522" lon="3.64561">
        <ele>844.66</ele>
        <time>2023-05-06T10:13:23Z</time>
      </trkpt>
      <trkpt lat="44.3653" lon="3.64578">
        <ele>843.69</ele>
        <time>2023-05-06T10:13:36Z</time>
      </trkpt>
      <trkpt lat="44.36544" lon="3.64587">
        <ele>842.73</ele>
        <time>2023-05-06T10:13:49Z</time>
      </trkpt>
      <trkpt lat="44.36546" lon="3.64587">
        <ele>842.73</ele>
        <time>2023-05-06T10:13:51Z</time>
      </trkpt>
      <trkpt lat="44.36561" lon="3.64591">
        <ele>841.29</ele>
        <time>2023-05-06T10:14:02Z</time>
      </trkpt>
      <trkpt lat="44.36562" lon="3.64593">
        <ele>841.29</ele>
        <time>2023-05-06T10:14:04Z</time>
      </trkpt>
      <trkpt lat="44.36565" lon="3.64595">
        <ele>840.81</ele>
        <time>2023-05-06T10:14:08Z</time>
      </trkpt>
      <trkpt lat="44.36571" lon="3.64598">
        <ele>839.85</ele>
        <time>2023-05-06T10:14:14Z</time>
      </trkpt>
      <trkpt lat="44.36586" lon="3.64603">
        <ele>836.48</ele>
        <time>2023-05-06T10:14:27Z</time>
      </trkpt>
      <trkpt lat="44.36591" lon="3.646">
        <ele>836.48</ele>
        <time>2023-05-06T10:14:30Z</time>
      </trkpt>
      <trkpt lat="44.366" lon="3.64602">
        <ele>835.52</ele>
        <time>2023-05-06T10:14:38Z</time>
      </trkpt>
      <trkpt lat="44.36598" lon="3.64611">
        <ele>833.12</ele>
        <time>2023-05-06T10:14:51Z</time>
      </trkpt>
      <trkpt lat="44.36598" lon="3.64611">
        <ele>832.16</ele>
        <time>2023-05-06T10:14:58Z</time>
      </trkpt>
      <trkpt lat="44.36591" lon="3.64612">
        <ele>831.2</ele>
        <time>2023-05-06T10:15:02Z</time>
      </trkpt>
      <trkpt lat="44.36576" lon="3.64622">
        <ele>829.76</ele>
        <time>2023-05-06T10:15:16Z</time>
      </trkpt>
      <trkpt lat="44.36569" lon="3.64629">
        <ele>825.91</ele>
        <time>2023-05-06T10:15:28Z</time>
      </trkpt>
      <trkpt lat="44.3656" lon="3.64632">
        <ele>824.95</ele>
        <time>2023-05-06T10:15:33Z</time>
      </trkpt>
      <trkpt lat="44.36541" lon="3.64643">
        <ele>823.99</ele>
        <time>2023-05-06T10:15:50Z</time>
      </trkpt>
      <trkpt lat="44.3652" lon="3.64652">
        <ele>822.06</ele>
        <time>2023-05-06T10:16:09Z</time>
      </trkpt>
      <trkpt lat="44.36497" lon="3.64656">
        <ele>820.14</ele>
        <time>2023-05-06T10:16:29Z</time>
      </trkpt>
      <trkpt lat="44.36486" lon="3.64659">
        <ele>815.82</ele>
        <time>2023-05-06T10:16:46Z</time>
      </trkpt>
      <trkpt lat="44.36473" lon="3.64652">
        <ele>812.45</ele>
        <time>2023-05-06T10:17:06Z</time>
      </trkpt>
      <trkpt lat="44.36465" lon="3.64655">
        <ele>808.13</ele>
        <time>2023-05-06T10:17:24Z</time>
      </trkpt>
      <trkpt lat="44.36459" lon="3.64656">
        <ele>805.72</ele>
        <time>2023-05-06T10:17:47Z</time>
      </trkpt>
      <trkpt lat="44.36457" lon="3.6466">
        <ele>804.28</ele>
        <time>2023-05-06T10:17:50Z</time>
      </trkpt>
      <trkpt lat="44.36457" lon="3.64664">
        <ele>802.84</ele>
        <time>2023-05-06T10:17:53Z</time>
      </trkpt>
      <trkpt lat="44.36461" lon="3.64673">
        <ele>798.99</ele>
        <time>2023-05-06T10:18:02Z</time>
      </trkpt>
      <trkpt lat="44.36467" lon="3.64695">
        <ele>792.74</ele>
        <time>2023-05-06T10:18:21Z</time>
      </trkpt>
      <trkpt lat="44.36458" lon="3.64702">
        <ele>790.82</ele>
        <time>2023-05-06T10:18:35Z</time>
      </trkpt>
      <trkpt lat="44.36451" lon="3.6471">
        <ele>790.82</ele>
        <time>2023-05-06T10:18:42Z</time>
      </trkpt>
      <trkpt lat="44.36434" lon="3.64733">
        <ele>788.9</ele>
        <time>2023-05-06T10:19:02Z</time>
      </trkpt>
      <trkpt lat="44.36413" lon="3.64763">
        <ele>789.38</ele>
        <time>2023-05-06T10:19:24Z</time>
      </trkpt>
      <trkpt lat="44.36411" lon="3.64764">
        <ele>789.38</ele>
        <time>2023-05-06T10:19:43Z</time>
      </trkpt>
      <trkpt lat="44.36406" lon="3.64764">
        <ele>789.38</ele>
        <time>2023-05-06T10:19:53Z</time>
      </trkpt>
      <trkpt lat="44.36378" lon="3.64771">
        <ele>786.98</ele>
        <time>2023-05-06T10:20:18Z</time>
      </trkpt>
      <trkpt lat="44.3637" lon="3.64774">
        <ele>786.98</ele>
        <time>2023-05-06T10:20:40Z</time>
      </trkpt>
      <trkpt lat="44.3637" lon="3.64775">
        <ele>785.05</ele>
        <time>2023-05-06T10:20:58Z</time>
      </trkpt>
      <trkpt lat="44.36367" lon="3.64806">
        <ele>785.05</ele>
        <time>2023-05-06T10:21:21Z</time>
      </trkpt>
      <trkpt lat="44.3637" lon="3.64809">
        <ele>785.53</ele>
        <time>2023-05-06T10:21:46Z</time>
      </trkpt>
      <trkpt lat="44.36368" lon="3.64813">
        <ele>785.53</ele>
        <time>2023-05-06T10:22:03Z</time>
      </trkpt>
      <trkpt lat="44.36369" lon="3.64825">
        <ele>785.53</ele>
        <time>2023-05-06T10:22:31Z</time>
      </trkpt>
      <trkpt lat="44.36372" lon="3.64818">
        <ele>785.53</ele>
        <time>2023-05-06T10:22:52Z</time>
      </trkpt>
      <trkpt lat="44.36371" lon="3.64815">
        <ele>786.02</ele>
        <time>2023-05-06T10:23:15Z</time>
      </trkpt>
      <trkpt lat="44.36367" lon="3.64819">
        <ele>786.02</ele>
        <time>2023-05-06T10:23:41Z</time>
      </trkpt>
      <trkpt lat="44.36368" lon="3.6481">
        <ele>786.02</ele>
        <time>2023-05-06T10:24:06Z</time>
      </trkpt>
      <trkpt lat="44.36368" lon="3.64807">
        <ele>786.02</ele>
        <time>2023-05-06T10:24:30Z</time>
      </trkpt>
      <trkpt lat="44.36368" lon="3.64805">
        <ele>786.02</ele>
        <time>2023-05-06T10:24:57Z</time>
      </trkpt>
      <trkpt lat="44.36369" lon="3.64803">
        <ele>786.02</ele>
        <time>2023-05-06T10:25:25Z</time>
      </trkpt>
      <trkpt lat="44.36368" lon="3.64802">
        <ele>789.86</ele>
        <time>2023-05-06T10:25:54Z</time>
      </trkpt>
      <trkpt lat="44.36372" lon="3.64806">
        <ele>790.82</ele>
        <time>2023-05-06T10:26:52Z</time>
      </trkpt>
      <trkpt lat="44.36366" lon="3.6479">
        <ele>790.34</ele>
        <time>2023-05-06T10:27:13Z</time>
      </trkpt>
      <trkpt lat="44.36352" lon="3.64747">
        <ele>790.34</ele>
        <time>2023-05-06T10:27:38Z</time>
      </trkpt>
      <trkpt lat="44.36366" lon="3.64799">
        <ele>790.34</ele>
        <time>2023-05-06T10:28:25Z</time>
      </trkpt>
      <trkpt lat="44.36369" lon="3.64799">
        <ele>791.3</ele>
        <time>2023-05-06T10:28:48Z</time>
      </trkpt>
      <trkpt lat="44.36365" lon="3.64798">
        <ele>789.38</ele>
        <time>2023-05-06T10:29:11Z</time>
      </trkpt>
      <trkpt lat="44.36365" lon="3.64799">
        <ele>789.38</ele>
        <time>2023-05-06T10:29:12Z</time>
      </trkpt>
      <trkpt lat="44.36361" lon="3.648">
        <ele>793.71</ele>
        <time>2023-05-06T10:29:38Z</time>
      </trkpt>
      <trkpt lat="44.36368" lon="3.6479">
        <ele>793.71</ele>
        <time>2023-05-06T10:30:04Z</time>
      </trkpt>
      <trkpt lat="44.36367" lon="3.64793">
        <ele>793.22</ele>
        <time>2023-05-06T10:30:25Z</time>
      </trkpt>
      <trkpt lat="44.36366" lon="3.64794">
        <ele>792.74</ele>
        <time>2023-05-06T10:30:42Z</time>
      </trkpt>
      <trkpt lat="44.36364" lon="3.64804">
        <ele>795.63</ele>
        <time>2023-05-06T10:31:04Z</time>
      </trkpt>
      <trkpt lat="44.36364" lon="3.64802">
        <ele>798.03</ele>
        <time>2023-05-06T10:31:28Z</time>
      </trkpt>
      <trkpt lat="44.36361" lon="3.64803">
        <ele>798.03</ele>
        <time>2023-05-06T10:31:49Z</time>
      </trkpt>
      <trkpt lat="44.36364" lon="3.64805">
        <ele>798.99</ele>
        <time>2023-05-06T10:32:14Z</time>
      </trkpt>
      <trkpt lat="44.36366" lon="3.648">
        <ele>798.51</ele>
        <time>2023-05-06T10:32:37Z</time>
      </trkpt>
      <trkpt lat="44.36366" lon="3.64796">
        <ele>797.07</ele>
        <time>2023-05-06T10:33:05Z</time>
      </trkpt>
      <trkpt lat="44.36365" lon="3.64796">
        <ele>797.07</ele>
        <time>2023-05-06T10:33:32Z</time>
      </trkpt>
      <trkpt lat="44.36366" lon="3.64792">
        <ele>795.15</ele>
        <time>2023-05-06T10:33:56Z</time>
      </trkpt>
      <trkpt lat="44.3636" lon="3.64796">
        <ele>795.63</ele>
        <time>2023-05-06T10:34:21Z</time>
      </trkpt>
      <trkpt lat="44.36366" lon="3.64798">
        <ele>797.55</ele>
        <time>2023-05-06T10:34:41Z</time>
      </trkpt>
      <trkpt lat="44.36366" lon="3.64791">
        <ele>798.51</ele>
        <time>2023-05-06T10:35:03Z</time>
      </trkpt>
      <trkpt lat="44.36367" lon="3.64791">
        <ele>798.99</ele>
        <time>2023-05-06T10:35:23Z</time>
      </trkpt>
      <trkpt lat="44.36365" lon="3.64789">
        <ele>798.51</ele>
        <time>2023-05-06T10:35:47Z</time>
      </trkpt>
      <trkpt lat="44.36366" lon="3.64786">
        <ele>798.51</ele>
        <time>2023-05-06T10:36:06Z</time>
      </trkpt>
      <trkpt lat="44.36371" lon="3.64792">
        <ele>798.99</ele>
        <time>2023-05-06T10:36:31Z</time>
      </trkpt>
      <trkpt lat="44.36365" lon="3.64793">
        <ele>797.55</ele>
        <time>2023-05-06T10:36:54Z</time>
      </trkpt>
      <trkpt lat="44.36362" lon="3.64798">
        <ele>798.03</ele>
        <time>2023-05-06T10:37:15Z</time>
      </trkpt>
      <trkpt lat="44.36367" lon="3.64806">
        <ele>794.19</ele>
        <time>2023-05-06T10:37:39Z</time>
      </trkpt>
      <trkpt lat="44.36369" lon="3.64806">
        <ele>793.71</ele>
        <time>2023-05-06T10:38:04Z</time>
      </trkpt>
      <trkpt lat="44.3637" lon="3.64808">
        <ele>793.71</ele>
        <time>2023-05-06T10:38:27Z</time>
      </trkpt>
      <trkpt lat="44.36371" lon="3.64816">
        <ele>793.71</ele>
        <time>2023-05-06T10:38:49Z</time>
      </trkpt>
      <trkpt lat="44.36376" lon="3.64813">
        <ele>793.71</ele>
        <time>2023-05-06T10:39:16Z</time>
      </trkpt>
      <trkpt lat="44.36381" lon="3.64814">
        <ele>795.15</ele>
        <time>2023-05-06T10:39:38Z</time>
      </trkpt>
      <trkpt lat="44.36388" lon="3.64818">
        <ele>795.15</ele>
        <time>2023-05-06T10:40:04Z</time>
      </trkpt>
      <trkpt lat="44.36386" lon="3.6484">
        <ele>794.67</ele>
        <time>2023-05-06T10:40:27Z</time>
      </trkpt>
      <trkpt lat="44.36384" lon="3.64843">
        <ele>794.67</ele>
        <time>2023-05-06T10:40:44Z</time>
      </trkpt>
      <trkpt lat="44.36387" lon="3.64834">
        <ele>794.67</ele>
        <time>2023-05-06T10:41:08Z</time>
      </trkpt>
      <trkpt lat="44.3638" lon="3.64821">
        <ele>790.82</ele>
        <time>2023-05-06T10:41:32Z</time>
      </trkpt>
      <trkpt lat="44.36373" lon="3.64815">
        <ele>790.34</ele>
        <time>2023-05-06T10:41:54Z</time>
      </trkpt>
      <trkpt lat="44.36369" lon="3.64805">
        <ele>790.34</ele>
        <time>2023-05-06T10:42:23Z</time>
      </trkpt>
      <trkpt lat="44.36371" lon="3.64808">
        <ele>793.22</ele>
        <time>2023-05-06T10:42:47Z</time>
      </trkpt>
      <trkpt lat="44.36368" lon="3.64799">
        <ele>792.74</ele>
        <time>2023-05-06T10:43:10Z</time>
      </trkpt>
      <trkpt lat="44.36367" lon="3.64794">
        <ele>793.71</ele>
        <time>2023-05-06T10:43:33Z</time>
      </trkpt>
      <trkpt lat="44.36367" lon="3.64795">
        <ele>793.71</ele>
        <time>2023-05-06T10:43:50Z</time>
      </trkpt>
      <trkpt lat="44.36368" lon="3.64797">
        <ele>789.86</ele>
        <time>2023-05-06T10:44:06Z</time>
      </trkpt>
      <trkpt lat="44.36368" lon="3.64796">
        <ele>788.9</ele>
        <time>2023-05-06T10:44:18Z</time>
      </trkpt>
      <trkpt lat="44.36368" lon="3.64795">
        <ele>787.94</ele>
        <time>2023-05-06T10:44:25Z</time>
      </trkpt>
      <trkpt lat="44.36367" lon="3.64795">
        <ele>786.5</ele>
        <time>2023-05-06T10:44:36Z</time>
      </trkpt>
      <trkpt lat="44.36368" lon="3.64794">
        <ele>786.02</ele>
        <time>2023-05-06T10:45:00Z</time>
      </trkpt>
      <trkpt lat="44.36366" lon="3.64795">
        <ele>785.53</ele>
        <time>2023-05-06T10:45:08Z</time>
      </trkpt>
      <trkpt lat="44.36359" lon="3.64795">
        <ele>785.53</ele>
        <time>2023-05-06T10:45:12Z</time>
      </trkpt>
      <trkpt lat="44.36355" lon="3.64797">
        <ele>784.09</ele>
        <time>2023-05-06T10:45:19Z</time>
      </trkpt>
      <trkpt lat="44.36352" lon="3.64802">
        <ele>782.17</ele>
        <time>2023-05-06T10:45:25Z</time>
      </trkpt>
      <trkpt lat="44.36346" lon="3.64806">
        <ele>780.73</ele>
        <time>2023-05-06T10:45:35Z</time>
      </trkpt>
      <trkpt lat="44.3634" lon="3.64809">
        <ele>779.29</ele>
        <time>2023-05-06T10:45:41Z</time>
      </trkpt>
      <trkpt lat="44.36337" lon="3.64819">
        <ele>777.84</ele>
        <time>2023-05-06T10:45:49Z</time>
      </trkpt>
      <trkpt lat="44.36338" lon="3.64826">
        <ele>776.88</ele>
        <time>2023-05-06T10:45:54Z</time>
      </trkpt>
      <trkpt lat="44.36347" lon="3.64838">
        <ele>773.52</ele>
        <time>2023-05-06T10:46:07Z</time>
      </trkpt>
      <trkpt lat="44.36353" lon="3.64841">
        <ele>771.6</ele>
        <time>2023-05-06T10:46:20Z</time>
      </trkpt>
      <trkpt lat="44.36353" lon="3.64841">
        <ele>771.6</ele>
        <time>2023-05-06T10:46:23Z</time>
      </trkpt>
      <trkpt lat="44.36354" lon="3.64841">
        <ele>770.15</ele>
        <time>2023-05-06T10:46:36Z</time>
      </trkpt>
      <trkpt lat="44.36354" lon="3.64841">
        <ele>769.67</ele>
        <time>2023-05-06T10:46:49Z</time>
      </trkpt>
      <trkpt lat="44.36356" lon="3.64843">
        <ele>769.19</ele>
        <time>2023-05-06T10:46:51Z</time>
      </trkpt>
      <trkpt lat="44.3636" lon="3.64854">
        <ele>769.19</ele>
        <time>2023-05-06T10:47:05Z</time>
      </trkpt>
      <trkpt lat="44.36363" lon="3.64852">
        <ele>769.67</ele>
        <time>2023-05-06T10:47:18Z</time>
      </trkpt>
      <trkpt lat="44.36363" lon="3.64852">
        <ele>769.67</ele>
        <time>2023-05-06T10:47:34Z</time>
      </trkpt>
      <trkpt lat="44.36363" lon="3.64853">
        <ele>770.15</ele>
        <time>2023-05-06T10:47:50Z</time>
      </trkpt>
      <trkpt lat="44.36363" lon="3.64854">
        <ele>771.11</ele>
        <time>2023-05-06T10:48:10Z</time>
      </trkpt>
      <trkpt lat="44.36362" lon="3.64853">
        <ele>771.11</ele>
        <time>2023-05-06T10:48:13Z</time>
      </trkpt>
      <trkpt lat="44.36356" lon="3.64848">
        <ele>771.6</ele>
        <time>2023-05-06T10:48:35Z</time>
      </trkpt>
      <trkpt lat="44.36357" lon="3.6485">
        <ele>771.6</ele>
        <time>2023-05-06T10:48:56Z</time>
      </trkpt>
      <trkpt lat="44.36357" lon="3.64851">
        <ele>771.6</ele>
        <time>2023-05-06T10:49:17Z</time>
      </trkpt>
      <trkpt lat="44.36357" lon="3.64851">
        <ele>771.6</ele>
        <time>2023-05-06T10:49:37Z</time>
      </trkpt>
      <trkpt lat="44.36354" lon="3.64855">
        <ele>771.6</ele>
        <time>2023-05-06T10:49:47Z</time>
      </trkpt>
      <trkpt lat="44.36355" lon="3.64866">
        <ele>771.11</ele>
        <time>2023-05-06T10:49:56Z</time>
      </trkpt>
      <trkpt lat="44.36376" lon="3.64877">
        <ele>768.23</ele>
        <time>2023-05-06T10:50:17Z</time>
      </trkpt>
      <trkpt lat="44.36388" lon="3.64873">
        <ele>766.79</ele>
        <time>2023-05-06T10:50:25Z</time>
      </trkpt>
      <trkpt lat="44.36415" lon="3.64863">
        <ele>765.35</ele>
        <time>2023-05-06T10:50:48Z</time>
      </trkpt>
      <trkpt lat="44.36443" lon="3.64853">
        <ele>760.06</ele>
        <time>2023-05-06T10:51:02Z</time>
      </trkpt>
      <trkpt lat="44.36446" lon="3.64852">
        <ele>759.58</ele>
        <time>2023-05-06T10:51:04Z</time>
      </trkpt>
      <trkpt lat="44.36487" lon="3.64851">
        <ele>754.77</ele>
        <time>2023-05-06T10:51:29Z</time>
      </trkpt>
      <trkpt lat="44.3651" lon="3.64852">
        <ele>749.97</ele>
        <time>2023-05-06T10:51:49Z</time>
      </trkpt>
      <trkpt lat="44.36519" lon="3.64861">
        <ele>743.24</ele>
        <time>2023-05-06T10:52:11Z</time>
      </trkpt>
      <trkpt lat="44.36529" lon="3.64869">
        <ele>740.83</ele>
        <time>2023-05-06T10:52:21Z</time>
      </trkpt>
      <trkpt lat="44.3653" lon="3.64904">
        <ele>732.66</ele>
        <time>2023-05-06T10:52:45Z</time>
      </trkpt>
      <trkpt lat="44.36535" lon="3.64926">
        <ele>730.26</ele>
        <time>2023-05-06T10:53:12Z</time>
      </trkpt>
      <trkpt lat="44.36537" lon="3.6493">
        <ele>731.22</ele>
        <time>2023-05-06T10:53:36Z</time>
      </trkpt>
      <trkpt lat="44.3654" lon="3.64936">
        <ele>728.34</ele>
        <time>2023-05-06T10:53:56Z</time>
      </trkpt>
      <trkpt lat="44.3654" lon="3.64938">
        <ele>728.34</ele>
        <time>2023-05-06T10:53:57Z</time>
      </trkpt>
      <trkpt lat="44.36554" lon="3.64972">
        <ele>723.53</ele>
        <time>2023-05-06T10:54:19Z</time>
      </trkpt>
      <trkpt lat="44.3657" lon="3.65002">
        <ele>714.4</ele>
        <time>2023-05-06T10:54:41Z</time>
      </trkpt>
      <trkpt lat="44.36601" lon="3.65029">
        <ele>704.78</ele>
        <time>2023-05-06T10:55:06Z</time>
      </trkpt>
      <trkpt lat="44.36602" lon="3.65029">
        <ele>704.3</ele>
        <time>2023-05-06T10:55:07Z</time>
      </trkpt>
      <trkpt lat="44.36627" lon="3.65033">
        <ele>705.26</ele>
        <time>2023-05-06T10:55:29Z</time>
      </trkpt>
      <trkpt lat="44.36661" lon="3.65055">
        <ele>698.53</ele>
        <time>2023-05-06T10:55:51Z</time>
      </trkpt>
      <trkpt lat="44.3669" lon="3.65077">
        <ele>692.77</ele>
        <time>2023-05-06T10:56:11Z</time>
      </trkpt>
      <trkpt lat="44.36708" lon="3.651">
        <ele>680.27</ele>
        <time>2023-05-06T10:56:32Z</time>
      </trkpt>
      <trkpt lat="44.36726" lon="3.65119">
        <ele>671.14</ele>
        <time>2023-05-06T10:56:53Z</time>
      </trkpt>
      <trkpt lat="44.36753" lon="3.65128">
        <ele>689.4</ele>
        <time>2023-05-06T10:57:08Z</time>
      </trkpt>
      <trkpt lat="44.3676" lon="3.65129">
        <ele>690.84</ele>
        <time>2023-05-06T10:57:13Z</time>
      </trkpt>
      <trkpt lat="44.36789" lon="3.65124">
        <ele>697.57</ele>
        <time>2023-05-06T10:57:27Z</time>
      </trkpt>
      <trkpt lat="44.3681" lon="3.65117">
        <ele>702.38</ele>
        <time>2023-05-06T10:57:40Z</time>
      </trkpt>
      <trkpt lat="44.36817" lon="3.65118">
        <ele>705.75</ele>
        <time>2023-05-06T10:57:51Z</time>
      </trkpt>
      <trkpt lat="44.36833" lon="3.65114">
        <ele>710.55</ele>
        <time>2023-05-06T10:58:04Z</time>
      </trkpt>
      <trkpt lat="44.36843" lon="3.65113">
        <ele>713.44</ele>
        <time>2023-05-06T10:58:16Z</time>
      </trkpt>
      <trkpt lat="44.36857" lon="3.65114">
        <ele>716.32</ele>
        <time>2023-05-06T10:58:26Z</time>
      </trkpt>
      <trkpt lat="44.36871" lon="3.65123">
        <ele>717.28</ele>
        <time>2023-05-06T10:58:37Z</time>
      </trkpt>
      <trkpt lat="44.3688" lon="3.6514">
        <ele>719.2</ele>
        <time>2023-05-06T10:58:48Z</time>
      </trkpt>
      <trkpt lat="44.36884" lon="3.65163">
        <ele>720.65</ele>
        <time>2023-05-06T10:58:59Z</time>
      </trkpt>
      <trkpt lat="44.36885" lon="3.65167">
        <ele>721.13</ele>
        <time>2023-05-06T10:59:05Z</time>
      </trkpt>
      <trkpt lat="44.36891" lon="3.65183">
        <ele>722.57</ele>
        <time>2023-05-06T10:59:17Z</time>
      </trkpt>
      <trkpt lat="44.36892" lon="3.65184">
        <ele>722.57</ele>
        <time>2023-05-06T10:59:18Z</time>
      </trkpt>
      <trkpt lat="44.36908" lon="3.65199">
        <ele>724.97</ele>
        <time>2023-05-06T10:59:32Z</time>
      </trkpt>
      <trkpt lat="44.36921" lon="3.6521">
        <ele>727.37</ele>
        <time>2023-05-06T10:59:44Z</time>
      </trkpt>
      <trkpt lat="44.36929" lon="3.65217">
        <ele>728.34</ele>
        <time>2023-05-06T10:59:54Z</time>
      </trkpt>
      <trkpt lat="44.36941" lon="3.65232">
        <ele>729.3</ele>
        <time>2023-05-06T11:00:06Z</time>
      </trkpt>
      <trkpt lat="44.36951" lon="3.65252">
        <ele>730.74</ele>
        <time>2023-05-06T11:00:18Z</time>
      </trkpt>
      <trkpt lat="44.36958" lon="3.65275">
        <ele>731.22</ele>
        <time>2023-05-06T11:00:30Z</time>
      </trkpt>
      <trkpt lat="44.3697" lon="3.65298">
        <ele>730.74</ele>
        <time>2023-05-06T11:00:43Z</time>
      </trkpt>
      <trkpt lat="44.36989" lon="3.653">
        <ele>731.7</ele>
        <time>2023-05-06T11:00:56Z</time>
      </trkpt>
      <trkpt lat="44.37004" lon="3.65294">
        <ele>732.66</ele>
        <time>2023-05-06T11:01:07Z</time>
      </trkpt>
      <trkpt lat="44.37015" lon="3.6529">
        <ele>733.62</ele>
        <time>2023-05-06T11:01:16Z</time>
      </trkpt>
      <trkpt lat="44.37028" lon="3.65288">
        <ele>736.03</ele>
        <time>2023-05-06T11:01:27Z</time>
      </trkpt>
      <trkpt lat="44.37029" lon="3.65287">
        <ele>736.51</ele>
        <time>2023-05-06T11:01:29Z</time>
      </trkpt>
      <trkpt lat="44.3705" lon="3.65281">
        <ele>737.95</ele>
        <time>2023-05-06T11:01:45Z</time>
      </trkpt>
      <trkpt lat="44.37066" lon="3.65276">
        <ele>740.35</ele>
        <time>2023-05-06T11:01:57Z</time>
      </trkpt>
      <trkpt lat="44.37081" lon="3.65274">
        <ele>741.79</ele>
        <time>2023-05-06T11:02:09Z</time>
      </trkpt>
      <trkpt lat="44.37092" lon="3.65275">
        <ele>742.76</ele>
        <time>2023-05-06T11:02:18Z</time>
      </trkpt>
      <trkpt lat="44.371" lon="3.65274">
        <ele>742.76</ele>
        <time>2023-05-06T11:02:23Z</time>
      </trkpt>
      <trkpt lat="44.37117" lon="3.65272">
        <ele>743.24</ele>
        <time>2023-05-06T11:02:36Z</time>
      </trkpt>
      <trkpt lat="44.37131" lon="3.65277">
        <ele>742.76</ele>
        <time>2023-05-06T11:02:47Z</time>
      </trkpt>
      <trkpt lat="44.37145" lon="3.65281">
        <ele>743.24</ele>
        <time>2023-05-06T11:02:57Z</time>
      </trkpt>
      <trkpt lat="44.37168" lon="3.65277">
        <ele>741.79</ele>
        <time>2023-05-06T11:03:12Z</time>
      </trkpt>
      <trkpt lat="44.37192" lon="3.6527">
        <ele>741.79</ele>
        <time>2023-05-06T11:03:29Z</time>
      </trkpt>
      <trkpt lat="44.3721" lon="3.65278">
        <ele>743.24</ele>
        <time>2023-05-06T11:03:43Z</time>
      </trkpt>
      <trkpt lat="44.37227" lon="3.65289">
        <ele>745.16</ele>
        <time>2023-05-06T11:03:57Z</time>
      </trkpt>
      <trkpt lat="44.37251" lon="3.65294">
        <ele>747.56</ele>
        <time>2023-05-06T11:04:14Z</time>
      </trkpt>
      <trkpt lat="44.37274" lon="3.65297">
        <ele>750.45</ele>
        <time>2023-05-06T11:04:31Z</time>
      </trkpt>
      <trkpt lat="44.37295" lon="3.65295">
        <ele>752.37</ele>
        <time>2023-05-06T11:04:46Z</time>
      </trkpt>
      <trkpt lat="44.37317" lon="3.65292">
        <ele>753.81</ele>
        <time>2023-05-06T11:05:03Z</time>
      </trkpt>
      <trkpt lat="44.3734" lon="3.65286">
        <ele>755.73</ele>
        <time>2023-05-06T11:05:19Z</time>
      </trkpt>
      <trkpt lat="44.37361" lon="3.65288">
        <ele>758.14</ele>
        <time>2023-05-06T11:05:35Z</time>
      </trkpt>
      <trkpt lat="44.37381" lon="3.6529">
        <ele>760.54</ele>
        <time>2023-05-06T11:05:51Z</time>
      </trkpt>
      <trkpt lat="44.37396" lon="3.65294">
        <ele>761.5</ele>
        <time>2023-05-06T11:06:02Z</time>
      </trkpt>
      <trkpt lat="44.37421" lon="3.65287">
        <ele>762.46</ele>
        <time>2023-05-06T11:06:18Z</time>
      </trkpt>
      <trkpt lat="44.37443" lon="3.65275">
        <ele>763.42</ele>
        <time>2023-05-06T11:06:34Z</time>
      </trkpt>
      <trkpt lat="44.37464" lon="3.6526">
        <ele>766.31</ele>
        <time>2023-05-06T11:06:54Z</time>
      </trkpt>
      <trkpt lat="44.37478" lon="3.65257">
        <ele>765.83</ele>
        <time>2023-05-06T11:07:04Z</time>
      </trkpt>
      <trkpt lat="44.37489" lon="3.65262">
        <ele>766.31</ele>
        <time>2023-05-06T11:07:13Z</time>
      </trkpt>
      <trkpt lat="44.37505" lon="3.65268">
        <ele>767.75</ele>
        <time>2023-05-06T11:07:25Z</time>
      </trkpt>
      <trkpt lat="44.37522" lon="3.65275">
        <ele>768.71</ele>
        <time>2023-05-06T11:07:37Z</time>
      </trkpt>
      <trkpt lat="44.37534" lon="3.65282">
        <ele>769.19</ele>
        <time>2023-05-06T11:07:48Z</time>
      </trkpt>
      <trkpt lat="44.37546" lon="3.6529">
        <ele>769.67</ele>
        <time>2023-05-06T11:07:57Z</time>
      </trkpt>
      <trkpt lat="44.37571" lon="3.65306">
        <ele>769.67</ele>
        <time>2023-05-06T11:08:15Z</time>
      </trkpt>
      <trkpt lat="44.37589" lon="3.6532">
        <ele>770.63</ele>
        <time>2023-05-06T11:08:30Z</time>
      </trkpt>
      <trkpt lat="44.37607" lon="3.65331">
        <ele>771.11</ele>
        <time>2023-05-06T11:08:44Z</time>
      </trkpt>
      <trkpt lat="44.37622" lon="3.65339">
        <ele>769.67</ele>
        <time>2023-05-06T11:08:57Z</time>
      </trkpt>
      <trkpt lat="44.37633" lon="3.65364">
        <ele>765.35</ele>
        <time>2023-05-06T11:09:13Z</time>
      </trkpt>
      <trkpt lat="44.37638" lon="3.65392">
        <ele>766.31</ele>
        <time>2023-05-06T11:09:29Z</time>
      </trkpt>
      <trkpt lat="44.37646" lon="3.6542">
        <ele>768.23</ele>
        <time>2023-05-06T11:09:47Z</time>
      </trkpt>
      <trkpt lat="44.3765" lon="3.65428">
        <ele>769.67</ele>
        <time>2023-05-06T11:09:58Z</time>
      </trkpt>
      <trkpt lat="44.3765" lon="3.65429">
        <ele>770.15</ele>
        <time>2023-05-06T11:10:20Z</time>
      </trkpt>
      <trkpt lat="44.37651" lon="3.65431">
        <ele>770.63</ele>
        <time>2023-05-06T11:10:40Z</time>
      </trkpt>
      <trkpt lat="44.37652" lon="3.6543">
        <ele>771.11</ele>
        <time>2023-05-06T11:11:06Z</time>
      </trkpt>
      <trkpt lat="44.37653" lon="3.6543">
        <ele>771.11</ele>
        <time>2023-05-06T11:11:31Z</time>
      </trkpt>
      <trkpt lat="44.37654" lon="3.65434">
        <ele>771.11</ele>
        <time>2023-05-06T11:11:48Z</time>
      </trkpt>
      <trkpt lat="44.37657" lon="3.65435">
        <ele>771.6</ele>
        <time>2023-05-06T11:12:11Z</time>
      </trkpt>
      <trkpt lat="44.37673" lon="3.65436">
        <ele>771.11</ele>
        <time>2023-05-06T11:12:31Z</time>
      </trkpt>
      <trkpt lat="44.37677" lon="3.65436">
        <ele>771.6</ele>
        <time>2023-05-06T11:12:34Z</time>
      </trkpt>
      <trkpt lat="44.37687" lon="3.65439">
        <ele>783.61</ele>
        <time>2023-05-06T11:12:44Z</time>
      </trkpt>
      <trkpt lat="44.37689" lon="3.65439">
        <ele>783.61</ele>
        <time>2023-05-06T11:12:46Z</time>
      </trkpt>
      <trkpt lat="44.37694" lon="3.65441">
        <ele>784.09</ele>
        <time>2023-05-06T11:12:52Z</time>
      </trkpt>
      <trkpt lat="44.37706" lon="3.65439">
        <ele>785.53</ele>
        <time>2023-05-06T11:13:04Z</time>
      </trkpt>
      <trkpt lat="44.37716" lon="3.65435">
        <ele>785.53</ele>
        <time>2023-05-06T11:13:17Z</time>
      </trkpt>
      <trkpt lat="44.37723" lon="3.6543">
        <ele>785.53</ele>
        <time>2023-05-06T11:13:26Z</time>
      </trkpt>
      <trkpt lat="44.37724" lon="3.65425">
        <ele>786.02</ele>
        <time>2023-05-06T11:13:31Z</time>
      </trkpt>
      <trkpt lat="44.37732" lon="3.65401">
        <ele>787.94</ele>
        <time>2023-05-06T11:13:45Z</time>
      </trkpt>
      <trkpt lat="44.37744" lon="3.65387">
        <ele>788.9</ele>
        <time>2023-05-06T11:13:57Z</time>
      </trkpt>
      <trkpt lat="44.3776" lon="3.65378">
        <ele>788.42</ele>
        <time>2023-05-06T11:14:11Z</time>
      </trkpt>
      <trkpt lat="44.37769" lon="3.65375">
        <ele>787.94</ele>
        <time>2023-05-06T11:14:21Z</time>
      </trkpt>
      <trkpt lat="44.37778" lon="3.65372">
        <ele>789.38</ele>
        <time>2023-05-06T11:14:36Z</time>
      </trkpt>
      <trkpt lat="44.37792" lon="3.65365">
        <ele>792.26</ele>
        <time>2023-05-06T11:14:49Z</time>
      </trkpt>
      <trkpt lat="44.37802" lon="3.65357">
        <ele>796.11</ele>
        <time>2023-05-06T11:15:03Z</time>
      </trkpt>
      <trkpt lat="44.37805" lon="3.65354">
        <ele>798.03</ele>
        <time>2023-05-06T11:15:08Z</time>
      </trkpt>
      <trkpt lat="44.37807" lon="3.65346">
        <ele>802.36</ele>
        <time>2023-05-06T11:15:21Z</time>
      </trkpt>
      <trkpt lat="44.37806" lon="3.65336">
        <ele>807.64</ele>
        <time>2023-05-06T11:15:32Z</time>
      </trkpt>
      <trkpt lat="44.37805" lon="3.65336">
        <ele>810.53</ele>
        <time>2023-05-06T11:15:45Z</time>
      </trkpt>
      <trkpt lat="44.37803" lon="3.65334">
        <ele>811.97</ele>
        <time>2023-05-06T11:15:57Z</time>
      </trkpt>
      <trkpt lat="44.37802" lon="3.65333">
        <ele>812.45</ele>
        <time>2023-05-06T11:16:07Z</time>
      </trkpt>
      <trkpt lat="44.37792" lon="3.6532">
        <ele>813.89</ele>
        <time>2023-05-06T11:16:18Z</time>
      </trkpt>
      <trkpt lat="44.37789" lon="3.65316">
        <ele>814.85</ele>
        <time>2023-05-06T11:16:31Z</time>
      </trkpt>
      <trkpt lat="44.37785" lon="3.65311">
        <ele>814.85</ele>
        <time>2023-05-06T11:16:47Z</time>
      </trkpt>
      <trkpt lat="44.37779" lon="3.65297">
        <ele>815.34</ele>
        <time>2023-05-06T11:16:59Z</time>
      </trkpt>
      <trkpt lat="44.37779" lon="3.65296">
        <ele>815.34</ele>
        <time>2023-05-06T11:17:00Z</time>
      </trkpt>
      <trkpt lat="44.37779" lon="3.65289">
        <ele>815.34</ele>
        <time>2023-05-06T11:17:04Z</time>
      </trkpt>
      <trkpt lat="44.37783" lon="3.65281">
        <ele>815.82</ele>
        <time>2023-05-06T11:17:12Z</time>
      </trkpt>
      <trkpt lat="44.3778" lon="3.6527">
        <ele>817.26</ele>
        <time>2023-05-06T11:17:26Z</time>
      </trkpt>
      <trkpt lat="44.37782" lon="3.65268">
        <ele>817.26</ele>
        <time>2023-05-06T11:17:34Z</time>
      </trkpt>
      <trkpt lat="44.37797" lon="3.65264">
        <ele>818.22</ele>
        <time>2023-05-06T11:17:49Z</time>
      </trkpt>
      <trkpt lat="44.37801" lon="3.65263">
        <ele>818.7</ele>
        <time>2023-05-06T11:18:03Z</time>
      </trkpt>
      <trkpt lat="44.37802" lon="3.65264">
        <ele>819.18</ele>
        <time>2023-05-06T11:18:19Z</time>
      </trkpt>
      <trkpt lat="44.37803" lon="3.65264">
        <ele>820.14</ele>
        <time>2023-05-06T11:18:31Z</time>
      </trkpt>
      <trkpt lat="44.37803" lon="3.65267">
        <ele>821.58</ele>
        <time>2023-05-06T11:18:44Z</time>
      </trkpt>
      <trkpt lat="44.37804" lon="3.65268">
        <ele>822.06</ele>
        <time>2023-05-06T11:18:59Z</time>
      </trkpt>
      <trkpt lat="44.37805" lon="3.65269">
        <ele>822.06</ele>
        <time>2023-05-06T11:19:12Z</time>
      </trkpt>
      <trkpt lat="44.37807" lon="3.65268">
        <ele>822.55</ele>
        <time>2023-05-06T11:19:25Z</time>
      </trkpt>
      <trkpt lat="44.37807" lon="3.65268">
        <ele>823.03</ele>
        <time>2023-05-06T11:19:56Z</time>
      </trkpt>
      <trkpt lat="44.37807" lon="3.65268">
        <ele>823.99</ele>
        <time>2023-05-06T11:20:21Z</time>
      </trkpt>
      <trkpt lat="44.37806" lon="3.65267">
        <ele>824.95</ele>
        <time>2023-05-06T11:20:43Z</time>
      </trkpt>
      <trkpt lat="44.378" lon="3.65262">
        <ele>827.35</ele>
        <time>2023-05-06T11:21:01Z</time>
      </trkpt>
      <trkpt lat="44.37785" lon="3.65227">
        <ele>833.12</ele>
        <time>2023-05-06T11:21:21Z</time>
      </trkpt>
      <trkpt lat="44.37776" lon="3.65185">
        <ele>840.33</ele>
        <time>2023-05-06T11:21:41Z</time>
      </trkpt>
      <trkpt lat="44.37768" lon="3.65168">
        <ele>845.62</ele>
        <time>2023-05-06T11:22:00Z</time>
      </trkpt>
      <trkpt lat="44.37762" lon="3.65154">
        <ele>848.5</ele>
        <time>2023-05-06T11:22:09Z</time>
      </trkpt>
      <trkpt lat="44.37756" lon="3.65125">
        <ele>853.79</ele>
        <time>2023-05-06T11:22:25Z</time>
      </trkpt>
      <trkpt lat="44.37754" lon="3.65089">
        <ele>858.11</ele>
        <time>2023-05-06T11:22:44Z</time>
      </trkpt>
      <trkpt lat="44.37753" lon="3.65062">
        <ele>862.92</ele>
        <time>2023-05-06T11:23:01Z</time>
      </trkpt>
      <trkpt lat="44.3775" lon="3.65047">
        <ele>866.29</ele>
        <time>2023-05-06T11:23:15Z</time>
      </trkpt>
      <trkpt lat="44.37747" lon="3.65025">
        <ele>870.13</ele>
        <time>2023-05-06T11:23:32Z</time>
      </trkpt>
      <trkpt lat="44.37747" lon="3.65001">
        <ele>874.94</ele>
        <time>2023-05-06T11:23:52Z</time>
      </trkpt>
      <trkpt lat="44.37751" lon="3.64994">
        <ele>873.5</ele>
        <time>2023-05-06T11:24:18Z</time>
      </trkpt>
      <trkpt lat="44.37752" lon="3.64984">
        <ele>874.46</ele>
        <time>2023-05-06T11:24:36Z</time>
      </trkpt>
      <trkpt lat="44.37753" lon="3.64971">
        <ele>878.3</ele>
        <time>2023-05-06T11:24:57Z</time>
      </trkpt>
      <trkpt lat="44.37755" lon="3.64962">
        <ele>879.74</ele>
        <time>2023-05-06T11:25:17Z</time>
      </trkpt>
      <trkpt lat="44.37753" lon="3.64956">
        <ele>881.19</ele>
        <time>2023-05-06T11:25:37Z</time>
      </trkpt>
      <trkpt lat="44.37755" lon="3.64952">
        <ele>884.55</ele>
        <time>2023-05-06T11:26:03Z</time>
      </trkpt>
      <trkpt lat="44.37758" lon="3.64947">
        <ele>884.55</ele>
        <time>2023-05-06T11:26:20Z</time>
      </trkpt>
      <trkpt lat="44.37758" lon="3.64949">
        <ele>889.36</ele>
        <time>2023-05-06T11:26:39Z</time>
      </trkpt>
      <trkpt lat="44.37759" lon="3.64947">
        <ele>888.4</ele>
        <time>2023-05-06T11:26:56Z</time>
      </trkpt>
      <trkpt lat="44.37758" lon="3.64947">
        <ele>887.43</ele>
        <time>2023-05-06T11:27:19Z</time>
      </trkpt>
      <trkpt lat="44.37758" lon="3.64948">
        <ele>886.95</ele>
        <time>2023-05-06T11:27:34Z</time>
      </trkpt>
      <trkpt lat="44.37758" lon="3.64948">
        <ele>886.95</ele>
        <time>2023-05-06T11:27:50Z</time>
      </trkpt>
      <trkpt lat="44.37758" lon="3.64949">
        <ele>886.95</ele>
        <time>2023-05-06T11:28:01Z</time>
      </trkpt>
      <trkpt lat="44.37758" lon="3.6495">
        <ele>886.47</ele>
        <time>2023-05-06T11:28:23Z</time>
      </trkpt>
      <trkpt lat="44.37759" lon="3.64951">
        <ele>885.99</ele>
        <time>2023-05-06T11:28:45Z</time>
      </trkpt>
      <trkpt lat="44.3776" lon="3.64951">
        <ele>885.99</ele>
        <time>2023-05-06T11:29:12Z</time>
      </trkpt>
      <trkpt lat="44.37761" lon="3.64945">
        <ele>886.95</ele>
        <time>2023-05-06T11:29:38Z</time>
      </trkpt>
      <trkpt lat="44.37761" lon="3.6495">
        <ele>889.84</ele>
        <time>2023-05-06T11:30:01Z</time>
      </trkpt>
      <trkpt lat="44.37759" lon="3.64948">
        <ele>889.36</ele>
        <time>2023-05-06T11:30:25Z</time>
      </trkpt>
      <trkpt lat="44.37759" lon="3.64953">
        <ele>890.8</ele>
        <time>2023-05-06T11:30:52Z</time>
      </trkpt>
      <trkpt lat="44.3776" lon="3.64952">
        <ele>889.84</ele>
        <time>2023-05-06T11:31:23Z</time>
      </trkpt>
      <trkpt lat="44.37761" lon="3.64944">
        <ele>889.36</ele>
        <time>2023-05-06T11:31:50Z</time>
      </trkpt>
      <trkpt lat="44.37766" lon="3.64931">
        <ele>889.84</ele>
        <time>2023-05-06T11:31:59Z</time>
      </trkpt>
      <trkpt lat="44.37759" lon="3.64903">
        <ele>888.88</ele>
        <time>2023-05-06T11:32:20Z</time>
      </trkpt>
      <trkpt lat="44.37754" lon="3.6487">
        <ele>894.16</ele>
        <time>2023-05-06T11:32:42Z</time>
      </trkpt>
      <trkpt lat="44.37745" lon="3.6485">
        <ele>896.57</ele>
        <time>2023-05-06T11:32:56Z</time>
      </trkpt>
      <trkpt lat="44.37742" lon="3.64838">
        <ele>899.93</ele>
        <time>2023-05-06T11:33:13Z</time>
      </trkpt>
      <trkpt lat="44.37741" lon="3.64827">
        <ele>902.82</ele>
        <time>2023-05-06T11:33:35Z</time>
      </trkpt>
      <trkpt lat="44.37736" lon="3.64822">
        <ele>904.74</ele>
        <time>2023-05-06T11:33:41Z</time>
      </trkpt>
      <trkpt lat="44.37727" lon="3.64801">
        <ele>909.54</ele>
        <time>2023-05-06T11:34:05Z</time>
      </trkpt>
      <trkpt lat="44.37711" lon="3.64774">
        <ele>915.79</ele>
        <time>2023-05-06T11:34:28Z</time>
      </trkpt>
      <trkpt lat="44.377" lon="3.64751">
        <ele>922.52</ele>
        <time>2023-05-06T11:34:51Z</time>
      </trkpt>
      <trkpt lat="44.37694" lon="3.64745">
        <ele>926.37</ele>
        <time>2023-05-06T11:35:02Z</time>
      </trkpt>
      <trkpt lat="44.37674" lon="3.64741">
        <ele>933.1</ele>
        <time>2023-05-06T11:35:26Z</time>
      </trkpt>
      <trkpt lat="44.37653" lon="3.64725">
        <ele>935.98</ele>
        <time>2023-05-06T11:35:49Z</time>
      </trkpt>
      <trkpt lat="44.37635" lon="3.64705">
        <ele>943.67</ele>
        <time>2023-05-06T11:36:13Z</time>
      </trkpt>
      <trkpt lat="44.37642" lon="3.647">
        <ele>942.23</ele>
        <time>2023-05-06T11:36:28Z</time>
      </trkpt>
      <trkpt lat="44.37666" lon="3.64685">
        <ele>948.48</ele>
        <time>2023-05-06T11:36:52Z</time>
      </trkpt>
      <trkpt lat="44.37656" lon="3.64677">
        <ele>954.25</ele>
        <time>2023-05-06T11:37:11Z</time>
      </trkpt>
      <trkpt lat="44.37654" lon="3.64677">
        <ele>954.25</ele>
        <time>2023-05-06T11:37:13Z</time>
      </trkpt>
      <trkpt lat="44.37642" lon="3.64669">
        <ele>957.13</ele>
        <time>2023-05-06T11:37:23Z</time>
      </trkpt>
      <trkpt lat="44.37629" lon="3.64656">
        <ele>963.38</ele>
        <time>2023-05-06T11:37:43Z</time>
      </trkpt>
      <trkpt lat="44.37631" lon="3.64649">
        <ele>968.67</ele>
        <time>2023-05-06T11:38:02Z</time>
      </trkpt>
      <trkpt lat="44.37634" lon="3.64649">
        <ele>969.15</ele>
        <time>2023-05-06T11:38:05Z</time>
      </trkpt>
      <trkpt lat="44.3766" lon="3.64638">
        <ele>973.95</ele>
        <time>2023-05-06T11:38:30Z</time>
      </trkpt>
      <trkpt lat="44.37669" lon="3.64628">
        <ele>976.36</ele>
        <time>2023-05-06T11:38:40Z</time>
      </trkpt>
      <trkpt lat="44.3768" lon="3.64623">
        <ele>980.2</ele>
        <time>2023-05-06T11:39:02Z</time>
      </trkpt>
      <trkpt lat="44.37677" lon="3.64622">
        <ele>984.05</ele>
        <time>2023-05-06T11:39:22Z</time>
      </trkpt>
      <trkpt lat="44.37686" lon="3.64612">
        <ele>985.01</ele>
        <time>2023-05-06T11:39:43Z</time>
      </trkpt>
      <trkpt lat="44.37693" lon="3.64607">
        <ele>986.93</ele>
        <time>2023-05-06T11:40:03Z</time>
      </trkpt>
      <trkpt lat="44.37717" lon="3.64599">
        <ele>991.74</ele>
        <time>2023-05-06T11:40:26Z</time>
      </trkpt>
      <trkpt lat="44.37734" lon="3.64598">
        <ele>992.7</ele>
        <time>2023-05-06T11:40:46Z</time>
      </trkpt>
      <trkpt lat="44.37763" lon="3.64596">
        <ele>1000.39</ele>
        <time>2023-05-06T11:41:15Z</time>
      </trkpt>
      <trkpt lat="44.37773" lon="3.64584">
        <ele>1004.23</ele>
        <time>2023-05-06T11:41:34Z</time>
      </trkpt>
      <trkpt lat="44.37772" lon="3.64581">
        <ele>1004.23</ele>
        <time>2023-05-06T11:41:36Z</time>
      </trkpt>
      <trkpt lat="44.37755" lon="3.64564">
        <ele>1009.52</ele>
        <time>2023-05-06T11:41:58Z</time>
      </trkpt>
      <trkpt lat="44.37734" lon="3.64545">
        <ele>1014.81</ele>
        <time>2023-05-06T11:42:24Z</time>
      </trkpt>
      <trkpt lat="44.37735" lon="3.64547">
        <ele>1017.21</ele>
        <time>2023-05-06T11:42:47Z</time>
      </trkpt>
      <trkpt lat="44.37739" lon="3.64554">
        <ele>1016.25</ele>
        <time>2023-05-06T11:43:07Z</time>
      </trkpt>
      <trkpt lat="44.37735" lon="3.6454">
        <ele>1022.02</ele>
        <time>2023-05-06T11:43:29Z</time>
      </trkpt>
      <trkpt lat="44.37735" lon="3.64534">
        <ele>1025.38</ele>
        <time>2023-05-06T11:43:53Z</time>
      </trkpt>
      <trkpt lat="44.37734" lon="3.64539">
        <ele>1027.79</ele>
        <time>2023-05-06T11:44:14Z</time>
      </trkpt>
      <trkpt lat="44.37734" lon="3.64546">
        <ele>1027.79</ele>
        <time>2023-05-06T11:44:37Z</time>
      </trkpt>
      <trkpt lat="44.37732" lon="3.64545">
        <ele>1027.31</ele>
        <time>2023-05-06T11:45:03Z</time>
      </trkpt>
      <trkpt lat="44.37732" lon="3.64548">
        <ele>1027.31</ele>
        <time>2023-05-06T11:45:25Z</time>
      </trkpt>
      <trkpt lat="44.37733" lon="3.64553">
        <ele>1027.31</ele>
        <time>2023-05-06T11:45:32Z</time>
      </trkpt>
      <trkpt lat="44.37747" lon="3.6459">
        <ele>1023.46</ele>
        <time>2023-05-06T11:45:58Z</time>
      </trkpt>
      <trkpt lat="44.3774" lon="3.64565">
        <ele>1019.13</ele>
        <time>2023-05-06T11:46:48Z</time>
      </trkpt>
      <trkpt lat="44.37733" lon="3.64549">
        <ele>1021.06</ele>
        <time>2023-05-06T11:47:12Z</time>
      </trkpt>
      <trkpt lat="44.37734" lon="3.64551">
        <ele>1021.54</ele>
        <time>2023-05-06T11:47:38Z</time>
      </trkpt>
      <trkpt lat="44.37735" lon="3.6455">
        <ele>1022.02</ele>
        <time>2023-05-06T11:48:05Z</time>
      </trkpt>
      <trkpt lat="44.37736" lon="3.64545">
        <ele>1022.02</ele>
        <time>2023-05-06T11:48:28Z</time>
      </trkpt>
      <trkpt lat="44.37735" lon="3.64547">
        <ele>1022.02</ele>
        <time>2023-05-06T11:48:54Z</time>
      </trkpt>
      <trkpt lat="44.37736" lon="3.64548">
        <ele>1022.02</ele>
        <time>2023-05-06T11:49:16Z</time>
      </trkpt>
      <trkpt lat="44.37736" lon="3.64558">
        <ele>1022.02</ele>
        <time>2023-05-06T11:49:40Z</time>
      </trkpt>
      <trkpt lat="44.37735" lon="3.64557">
        <ele>1022.5</ele>
        <time>2023-05-06T11:50:06Z</time>
      </trkpt>
      <trkpt lat="44.37736" lon="3.64537">
        <ele>1022.5</ele>
        <time>2023-05-06T11:54:44Z</time>
      </trkpt>
      <trkpt lat="44.37735" lon="3.64533">
        <ele>1021.54</ele>
        <time>2023-05-06T11:55:07Z</time>
      </trkpt>
      <trkpt lat="44.37738" lon="3.64541">
        <ele>1022.02</ele>
        <time>2023-05-06T11:55:37Z</time>
      </trkpt>
      <trkpt lat="44.37736" lon="3.64548">
        <ele>1021.54</ele>
        <time>2023-05-06T11:56:06Z</time>
      </trkpt>
      <trkpt lat="44.37739" lon="3.64552">
        <ele>1020.58</ele>
        <time>2023-05-06T11:56:32Z</time>
      </trkpt>
      <trkpt lat="44.37739" lon="3.64551">
        <ele>1020.58</ele>
        <time>2023-05-06T11:56:59Z</time>
      </trkpt>
      <trkpt lat="44.37738" lon="3.64541">
        <ele>1020.58</ele>
        <time>2023-05-06T11:57:20Z</time>
      </trkpt>
      <trkpt lat="44.37738" lon="3.64524">
        <ele>1023.46</ele>
        <time>2023-05-06T11:58:04Z</time>
      </trkpt>
      <trkpt lat="44.37739" lon="3.64532">
        <ele>1023.46</ele>
        <time>2023-05-06T11:58:37Z</time>
      </trkpt>
      <trkpt lat="44.37742" lon="3.64542">
        <ele>1022.98</ele>
        <time>2023-05-06T11:59:02Z</time>
      </trkpt>
      <trkpt lat="44.37746" lon="3.6455">
        <ele>1022.98</ele>
        <time>2023-05-06T11:59:28Z</time>
      </trkpt>
      <trkpt lat="44.3774" lon="3.64548">
        <ele>1022.5</ele>
        <time>2023-05-06T11:59:48Z</time>
      </trkpt>
      <trkpt lat="44.37741" lon="3.64543">
        <ele>1022.5</ele>
        <time>2023-05-06T12:00:12Z</time>
      </trkpt>
      <trkpt lat="44.37752" lon="3.64546">
        <ele>1022.5</ele>
        <time>2023-05-06T12:08:54Z</time>
      </trkpt>
      <trkpt lat="44.37782" lon="3.64553">
        <ele>1025.38</ele>
        <time>2023-05-06T12:09:23Z</time>
      </trkpt>
      <trkpt lat="44.37751" lon="3.6455">
        <ele>1025.86</ele>
        <time>2023-05-06T12:10:58Z</time>
      </trkpt>
      <trkpt lat="44.37808" lon="3.64542">
        <ele>1030.19</ele>
        <time>2023-05-06T12:11:20Z</time>
      </trkpt>
      <trkpt lat="44.37826" lon="3.64539">
        <ele>1031.15</ele>
        <time>2023-05-06T12:11:41Z</time>
      </trkpt>
      <trkpt lat="44.37829" lon="3.64542">
        <ele>1031.15</ele>
        <time>2023-05-06T12:11:47Z</time>
      </trkpt>
      <trkpt lat="44.37837" lon="3.64546">
        <ele>1031.63</ele>
        <time>2023-05-06T12:12:07Z</time>
      </trkpt>
      <trkpt lat="44.3781" lon="3.64555">
        <ele>1031.63</ele>
        <time>2023-05-06T12:12:30Z</time>
      </trkpt>
      <trkpt lat="44.37806" lon="3.64561">
        <ele>1031.63</ele>
        <time>2023-05-06T12:12:36Z</time>
      </trkpt>
      <trkpt lat="44.37812" lon="3.64572">
        <ele>1031.63</ele>
        <time>2023-05-06T12:12:52Z</time>
      </trkpt>
      <trkpt lat="44.37876" lon="3.64594">
        <ele>1032.11</ele>
        <time>2023-05-06T12:13:40Z</time>
      </trkpt>
      <trkpt lat="44.37843" lon="3.64579">
        <ele>1036.44</ele>
        <time>2023-05-06T12:13:59Z</time>
      </trkpt>
      <trkpt lat="44.37838" lon="3.64584">
        <ele>1036.92</ele>
        <time>2023-05-06T12:14:04Z</time>
      </trkpt>
      <trkpt lat="44.37807" lon="3.64577">
        <ele>1040.28</ele>
        <time>2023-05-06T12:14:23Z</time>
      </trkpt>
      <trkpt lat="44.3779" lon="3.64568">
        <ele>1043.17</ele>
        <time>2023-05-06T12:14:43Z</time>
      </trkpt>
      <trkpt lat="44.3778" lon="3.6456">
        <ele>1044.13</ele>
        <time>2023-05-06T12:15:10Z</time>
      </trkpt>
      <trkpt lat="44.37782" lon="3.64554">
        <ele>1044.13</ele>
        <time>2023-05-06T12:15:34Z</time>
      </trkpt>
      <trkpt lat="44.37787" lon="3.64551">
        <ele>1044.13</ele>
        <time>2023-05-06T12:15:58Z</time>
      </trkpt>
      <trkpt lat="44.37784" lon="3.64545">
        <ele>1047.97</ele>
        <time>2023-05-06T12:16:29Z</time>
      </trkpt>
      <trkpt lat="44.37775" lon="3.6455">
        <ele>1047.49</ele>
        <time>2023-05-06T12:16:52Z</time>
      </trkpt>
      <trkpt lat="44.3778" lon="3.64574">
        <ele>1047.49</ele>
        <time>2023-05-06T12:17:38Z</time>
      </trkpt>
      <trkpt lat="44.37782" lon="3.64579">
        <ele>1047.49</ele>
        <time>2023-05-06T12:17:54Z</time>
      </trkpt>
      <trkpt lat="44.3777" lon="3.64581">
        <ele>1047.49</ele>
        <time>2023-05-06T12:18:35Z</time>
      </trkpt>
      <trkpt lat="44.37797" lon="3.646">
        <ele>1047.49</ele>
        <time>2023-05-06T12:18:49Z</time>
      </trkpt>
      <trkpt lat="44.37805" lon="3.64591">
        <ele>1047.49</ele>
        <time>2023-05-06T12:19:10Z</time>
      </trkpt>
      <trkpt lat="44.37766" lon="3.64584">
        <ele>1047.49</ele>
        <time>2023-05-06T12:20:02Z</time>
      </trkpt>
      <trkpt lat="44.37752" lon="3.64558">
        <ele>1047.97</ele>
        <time>2023-05-06T12:27:16Z</time>
      </trkpt>
      <trkpt lat="44.37737" lon="3.64552">
        <ele>1034.04</ele>
        <time>2023-05-06T12:27:39Z</time>
      </trkpt>
      <trkpt lat="44.37739" lon="3.64551">
        <ele>1026.34</ele>
        <time>2023-05-06T12:27:56Z</time>
      </trkpt>
      <trkpt lat="44.37736" lon="3.6455">
        <ele>1028.27</ele>
        <time>2023-05-06T12:28:19Z</time>
      </trkpt>
      <trkpt lat="44.37734" lon="3.64548">
        <ele>1028.75</ele>
        <time>2023-05-06T12:28:33Z</time>
      </trkpt>
      <trkpt lat="44.37735" lon="3.6454">
        <ele>1028.75</ele>
        <time>2023-05-06T12:28:47Z</time>
      </trkpt>
      <trkpt lat="44.37734" lon="3.64531">
        <ele>1030.19</ele>
        <time>2023-05-06T12:28:57Z</time>
      </trkpt>
      <trkpt lat="44.37743" lon="3.64512">
        <ele>1031.15</ele>
        <time>2023-05-06T12:29:14Z</time>
      </trkpt>
      <trkpt lat="44.37747" lon="3.64499">
        <ele>1030.67</ele>
        <time>2023-05-06T12:29:30Z</time>
      </trkpt>
      <trkpt lat="44.37748" lon="3.64499">
        <ele>1030.67</ele>
        <time>2023-05-06T12:29:51Z</time>
      </trkpt>
      <trkpt lat="44.37748" lon="3.64499">
        <ele>1030.67</ele>
        <time>2023-05-06T12:30:09Z</time>
      </trkpt>
      <trkpt lat="44.37748" lon="3.64499">
        <ele>1030.19</ele>
        <time>2023-05-06T12:30:33Z</time>
      </trkpt>
      <trkpt lat="44.37748" lon="3.64499">
        <ele>1029.71</ele>
        <time>2023-05-06T12:30:54Z</time>
      </trkpt>
      <trkpt lat="44.37748" lon="3.64498">
        <ele>1029.71</ele>
        <time>2023-05-06T12:31:05Z</time>
      </trkpt>
      <trkpt lat="44.37748" lon="3.64502">
        <ele>1030.67</ele>
        <time>2023-05-06T12:31:18Z</time>
      </trkpt>
      <trkpt lat="44.37748" lon="3.64502">
        <ele>1031.15</ele>
        <time>2023-05-06T12:31:44Z</time>
      </trkpt>
      <trkpt lat="44.37748" lon="3.64502">
        <ele>1031.15</ele>
        <time>2023-05-06T12:32:05Z</time>
      </trkpt>
      <trkpt lat="44.37749" lon="3.64502">
        <ele>1030.67</ele>
        <time>2023-05-06T12:32:21Z</time>
      </trkpt>
      <trkpt lat="44.37749" lon="3.64502">
        <ele>1030.67</ele>
        <time>2023-05-06T12:32:33Z</time>
      </trkpt>
      <trkpt lat="44.37748" lon="3.645">
        <ele>1030.19</ele>
        <time>2023-05-06T12:32:45Z</time>
      </trkpt>
      <trkpt lat="44.37748" lon="3.645">
        <ele>1030.19</ele>
        <time>2023-05-06T12:32:59Z</time>
      </trkpt>
      <trkpt lat="44.3775" lon="3.64501">
        <ele>1029.71</ele>
        <time>2023-05-06T12:33:12Z</time>
      </trkpt>
      <trkpt lat="44.37753" lon="3.64503">
        <ele>1030.19</ele>
        <time>2023-05-06T12:33:15Z</time>
      </trkpt>
      <trkpt lat="44.37755" lon="3.64503">
        <ele>1030.19</ele>
        <time>2023-05-06T12:33:17Z</time>
      </trkpt>
      <trkpt lat="44.3777" lon="3.6451">
        <ele>1029.71</ele>
        <time>2023-05-06T12:33:31Z</time>
      </trkpt>
      <trkpt lat="44.37778" lon="3.64515">
        <ele>1031.15</ele>
        <time>2023-05-06T12:33:40Z</time>
      </trkpt>
      <trkpt lat="44.37786" lon="3.64518">
        <ele>1032.11</ele>
        <time>2023-05-06T12:33:49Z</time>
      </trkpt>
      <trkpt lat="44.37796" lon="3.64518">
        <ele>1035.96</ele>
        <time>2023-05-06T12:34:01Z</time>
      </trkpt>
      <trkpt lat="44.37803" lon="3.64517">
        <ele>1037.88</ele>
        <time>2023-05-06T12:34:12Z</time>
      </trkpt>
      <trkpt lat="44.37813" lon="3.64515">
        <ele>1038.84</ele>
        <time>2023-05-06T12:34:22Z</time>
      </trkpt>
      <trkpt lat="44.37814" lon="3.64516">
        <ele>1038.84</ele>
        <time>2023-05-06T12:34:25Z</time>
      </trkpt>
      <trkpt lat="44.37825" lon="3.64514">
        <ele>1039.32</ele>
        <time>2023-05-06T12:34:36Z</time>
      </trkpt>
      <trkpt lat="44.37835" lon="3.64512">
        <ele>1041.25</ele>
        <time>2023-05-06T12:34:47Z</time>
      </trkpt>
      <trkpt lat="44.37845" lon="3.64509">
        <ele>1043.17</ele>
        <time>2023-05-06T12:34:59Z</time>
      </trkpt>
      <trkpt lat="44.37854" lon="3.64508">
        <ele>1044.61</ele>
        <time>2023-05-06T12:35:09Z</time>
      </trkpt>
      <trkpt lat="44.37867" lon="3.64508">
        <ele>1047.01</ele>
        <time>2023-05-06T12:35:23Z</time>
      </trkpt>
      <trkpt lat="44.37878" lon="3.64515">
        <ele>1048.45</ele>
        <time>2023-05-06T12:35:34Z</time>
      </trkpt>
      <trkpt lat="44.37885" lon="3.64524">
        <ele>1049.42</ele>
        <time>2023-05-06T12:35:44Z</time>
      </trkpt>
      <trkpt lat="44.37892" lon="3.64537">
        <ele>1049.42</ele>
        <time>2023-05-06T12:35:56Z</time>
      </trkpt>
      <trkpt lat="44.37901" lon="3.64553">
        <ele>1050.86</ele>
        <time>2023-05-06T12:36:08Z</time>
      </trkpt>
      <trkpt lat="44.37906" lon="3.64566">
        <ele>1052.3</ele>
        <time>2023-05-06T12:36:19Z</time>
      </trkpt>
      <trkpt lat="44.37911" lon="3.64581">
        <ele>1052.78</ele>
        <time>2023-05-06T12:36:29Z</time>
      </trkpt>
      <trkpt lat="44.3792" lon="3.646">
        <ele>1053.74</ele>
        <time>2023-05-06T12:36:42Z</time>
      </trkpt>
      <trkpt lat="44.37921" lon="3.64601">
        <ele>1053.74</ele>
        <time>2023-05-06T12:36:43Z</time>
      </trkpt>
      <trkpt lat="44.3793" lon="3.64613">
        <ele>1054.7</ele>
        <time>2023-05-06T12:36:52Z</time>
      </trkpt>
      <trkpt lat="44.37936" lon="3.6462">
        <ele>1055.67</ele>
        <time>2023-05-06T12:37:06Z</time>
      </trkpt>
      <trkpt lat="44.37948" lon="3.64635">
        <ele>1058.55</ele>
        <time>2023-05-06T12:37:20Z</time>
      </trkpt>
      <trkpt lat="44.37957" lon="3.64648">
        <ele>1060.95</ele>
        <time>2023-05-06T12:37:31Z</time>
      </trkpt>
      <trkpt lat="44.37967" lon="3.64661">
        <ele>1062.39</ele>
        <time>2023-05-06T12:37:42Z</time>
      </trkpt>
      <trkpt lat="44.3797" lon="3.64666">
        <ele>1062.87</ele>
        <time>2023-05-06T12:37:46Z</time>
      </trkpt>
      <trkpt lat="44.37982" lon="3.64681">
        <ele>1063.36</ele>
        <time>2023-05-06T12:37:59Z</time>
      </trkpt>
      <trkpt lat="44.37993" lon="3.64695">
        <ele>1064.8</ele>
        <time>2023-05-06T12:38:11Z</time>
      </trkpt>
      <trkpt lat="44.38003" lon="3.64703">
        <ele>1064.8</ele>
        <time>2023-05-06T12:38:20Z</time>
      </trkpt>
      <trkpt lat="44.38013" lon="3.64712">
        <ele>1065.76</ele>
        <time>2023-05-06T12:38:29Z</time>
      </trkpt>
      <trkpt lat="44.38024" lon="3.64721">
        <ele>1066.24</ele>
        <time>2023-05-06T12:38:39Z</time>
      </trkpt>
      <trkpt lat="44.38037" lon="3.64731">
        <ele>1067.2</ele>
        <time>2023-05-06T12:38:50Z</time>
      </trkpt>
      <trkpt lat="44.38046" lon="3.64739">
        <ele>1067.68</ele>
        <time>2023-05-06T12:39:00Z</time>
      </trkpt>
      <trkpt lat="44.38059" lon="3.64744">
        <ele>1068.64</ele>
        <time>2023-05-06T12:39:11Z</time>
      </trkpt>
      <trkpt lat="44.38075" lon="3.64747">
        <ele>1070.08</ele>
        <time>2023-05-06T12:39:24Z</time>
      </trkpt>
      <trkpt lat="44.38089" lon="3.64749">
        <ele>1071.05</ele>
        <time>2023-05-06T12:39:34Z</time>
      </trkpt>
      <trkpt lat="44.38102" lon="3.64755">
        <ele>1071.53</ele>
        <time>2023-05-06T12:39:44Z</time>
      </trkpt>
      <trkpt lat="44.38115" lon="3.6476">
        <ele>1071.05</ele>
        <time>2023-05-06T12:39:54Z</time>
      </trkpt>
      <trkpt lat="44.3813" lon="3.64766">
        <ele>1072.01</ele>
        <time>2023-05-06T12:40:05Z</time>
      </trkpt>
      <trkpt lat="44.38141" lon="3.6477">
        <ele>1072.97</ele>
        <time>2023-05-06T12:40:16Z</time>
      </trkpt>
      <trkpt lat="44.38155" lon="3.64773">
        <ele>1074.41</ele>
        <time>2023-05-06T12:40:27Z</time>
      </trkpt>
      <trkpt lat="44.38169" lon="3.64776">
        <ele>1076.33</ele>
        <time>2023-05-06T12:40:39Z</time>
      </trkpt>
      <trkpt lat="44.38184" lon="3.64782">
        <ele>1077.78</ele>
        <time>2023-05-06T12:40:51Z</time>
      </trkpt>
      <trkpt lat="44.38196" lon="3.64788">
        <ele>1078.74</ele>
        <time>2023-05-06T12:41:00Z</time>
      </trkpt>
      <trkpt lat="44.38204" lon="3.64794">
        <ele>1079.22</ele>
        <time>2023-05-06T12:41:09Z</time>
      </trkpt>
      <trkpt lat="44.38213" lon="3.648">
        <ele>1079.22</ele>
        <time>2023-05-06T12:41:18Z</time>
      </trkpt>
      <trkpt lat="44.38225" lon="3.64808">
        <ele>1079.7</ele>
        <time>2023-05-06T12:41:27Z</time>
      </trkpt>
      <trkpt lat="44.38234" lon="3.64822">
        <ele>1080.18</ele>
        <time>2023-05-06T12:41:37Z</time>
      </trkpt>
      <trkpt lat="44.38236" lon="3.64824">
        <ele>1080.18</ele>
        <time>2023-05-06T12:41:39Z</time>
      </trkpt>
      <trkpt lat="44.38238" lon="3.64827">
        <ele>1080.18</ele>
        <time>2023-05-06T12:41:42Z</time>
      </trkpt>
      <trkpt lat="44.3825" lon="3.64846">
        <ele>1081.14</ele>
        <time>2023-05-06T12:41:55Z</time>
      </trkpt>
      <trkpt lat="44.38258" lon="3.64869">
        <ele>1082.1</ele>
        <time>2023-05-06T12:42:08Z</time>
      </trkpt>
      <trkpt lat="44.38255" lon="3.64878">
        <ele>1083.06</ele>
        <time>2023-05-06T12:42:19Z</time>
      </trkpt>
      <trkpt lat="44.38254" lon="3.64879">
        <ele>1083.06</ele>
        <time>2023-05-06T12:42:20Z</time>
      </trkpt>
      <trkpt lat="44.38251" lon="3.64885">
        <ele>1083.06</ele>
        <time>2023-05-06T12:42:27Z</time>
      </trkpt>
      <trkpt lat="44.38248" lon="3.6489">
        <ele>1083.54</ele>
        <time>2023-05-06T12:42:40Z</time>
      </trkpt>
      <trkpt lat="44.38248" lon="3.6489">
        <ele>1083.54</ele>
        <time>2023-05-06T12:43:01Z</time>
      </trkpt>
      <trkpt lat="44.38249" lon="3.6489">
        <ele>1084.02</ele>
        <time>2023-05-06T12:43:27Z</time>
      </trkpt>
      <trkpt lat="44.38251" lon="3.64885">
        <ele>1084.02</ele>
        <time>2023-05-06T12:43:42Z</time>
      </trkpt>
      <trkpt lat="44.38254" lon="3.64869">
        <ele>1084.5</ele>
        <time>2023-05-06T12:44:01Z</time>
      </trkpt>
      <trkpt lat="44.38254" lon="3.64876">
        <ele>1084.5</ele>
        <time>2023-05-06T12:44:25Z</time>
      </trkpt>
      <trkpt lat="44.38254" lon="3.64879">
        <ele>1084.02</ele>
        <time>2023-05-06T12:44:43Z</time>
      </trkpt>
      <trkpt lat="44.38252" lon="3.64878">
        <ele>1084.5</ele>
        <time>2023-05-06T12:45:05Z</time>
      </trkpt>
      <trkpt lat="44.38251" lon="3.64878">
        <ele>1084.5</ele>
        <time>2023-05-06T12:45:28Z</time>
      </trkpt>
      <trkpt lat="44.38254" lon="3.6488">
        <ele>1084.5</ele>
        <time>2023-05-06T12:45:44Z</time>
      </trkpt>
      <trkpt lat="44.38263" lon="3.64882">
        <ele>1083.54</ele>
        <time>2023-05-06T12:45:52Z</time>
      </trkpt>
      <trkpt lat="44.38268" lon="3.64888">
        <ele>1083.54</ele>
        <time>2023-05-06T12:45:57Z</time>
      </trkpt>
      <trkpt lat="44.38282" lon="3.649">
        <ele>1083.54</ele>
        <time>2023-05-06T12:46:17Z</time>
      </trkpt>
      <trkpt lat="44.38282" lon="3.64901">
        <ele>1083.06</ele>
        <time>2023-05-06T12:46:23Z</time>
      </trkpt>
      <trkpt lat="44.38293" lon="3.64905">
        <ele>1082.58</ele>
        <time>2023-05-06T12:46:42Z</time>
      </trkpt>
      <trkpt lat="44.383" lon="3.64911">
        <ele>1081.14</ele>
        <time>2023-05-06T12:46:50Z</time>
      </trkpt>
      <trkpt lat="44.38316" lon="3.64917">
        <ele>1080.18</ele>
        <time>2023-05-06T12:47:11Z</time>
      </trkpt>
      <trkpt lat="44.38325" lon="3.64921">
        <ele>1080.18</ele>
        <time>2023-05-06T12:47:34Z</time>
      </trkpt>
      <trkpt lat="44.38334" lon="3.64935">
        <ele>1081.14</ele>
        <time>2023-05-06T12:47:54Z</time>
      </trkpt>
      <trkpt lat="44.38347" lon="3.64938">
        <ele>1083.06</ele>
        <time>2023-05-06T12:48:09Z</time>
      </trkpt>
      <trkpt lat="44.38349" lon="3.64939">
        <ele>1083.06</ele>
        <time>2023-05-06T12:48:11Z</time>
      </trkpt>
      <trkpt lat="44.38372" lon="3.6496">
        <ele>1087.39</ele>
        <time>2023-05-06T12:48:35Z</time>
      </trkpt>
      <trkpt lat="44.38394" lon="3.64974">
        <ele>1093.64</ele>
        <time>2023-05-06T12:49:01Z</time>
      </trkpt>
      <trkpt lat="44.38414" lon="3.64988">
        <ele>1097</ele>
        <time>2023-05-06T12:49:24Z</time>
      </trkpt>
      <trkpt lat="44.38437" lon="3.65002">
        <ele>1100.37</ele>
        <time>2023-05-06T12:49:49Z</time>
      </trkpt>
      <trkpt lat="44.38459" lon="3.65016">
        <ele>1102.77</ele>
        <time>2023-05-06T12:50:13Z</time>
      </trkpt>
      <trkpt lat="44.38475" lon="3.65028">
        <ele>1103.25</ele>
        <time>2023-05-06T12:50:33Z</time>
      </trkpt>
      <trkpt lat="44.38492" lon="3.65039">
        <ele>1107.1</ele>
        <time>2023-05-06T12:50:56Z</time>
      </trkpt>
      <trkpt lat="44.38504" lon="3.65048">
        <ele>1110.94</ele>
        <time>2023-05-06T12:51:16Z</time>
      </trkpt>
      <trkpt lat="44.38527" lon="3.65067">
        <ele>1114.31</ele>
        <time>2023-05-06T12:51:39Z</time>
      </trkpt>
      <trkpt lat="44.38547" lon="3.65083">
        <ele>1117.67</ele>
        <time>2023-05-06T12:52:01Z</time>
      </trkpt>
      <trkpt lat="44.3857" lon="3.65098">
        <ele>1121.52</ele>
        <time>2023-05-06T12:52:21Z</time>
      </trkpt>
      <trkpt lat="44.38597" lon="3.65112">
        <ele>1124.88</ele>
        <time>2023-05-06T12:52:45Z</time>
      </trkpt>
      <trkpt lat="44.38622" lon="3.65124">
        <ele>1125.84</ele>
        <time>2023-05-06T12:53:07Z</time>
      </trkpt>
      <trkpt lat="44.38655" lon="3.65136">
        <ele>1127.76</ele>
        <time>2023-05-06T12:53:29Z</time>
      </trkpt>
      <trkpt lat="44.38682" lon="3.65143">
        <ele>1133.05</ele>
        <time>2023-05-06T12:53:50Z</time>
      </trkpt>
      <trkpt lat="44.38703" lon="3.65149">
        <ele>1137.86</ele>
        <time>2023-05-06T12:54:08Z</time>
      </trkpt>
      <trkpt lat="44.38733" lon="3.65156">
        <ele>1142.18</ele>
        <time>2023-05-06T12:54:32Z</time>
      </trkpt>
      <trkpt lat="44.38766" lon="3.65164">
        <ele>1148.43</ele>
        <time>2023-05-06T12:54:56Z</time>
      </trkpt>
      <trkpt lat="44.38789" lon="3.65169">
        <ele>1152.28</ele>
        <time>2023-05-06T12:55:16Z</time>
      </trkpt>
      <trkpt lat="44.3882" lon="3.65167">
        <ele>1157.56</ele>
        <time>2023-05-06T12:55:39Z</time>
      </trkpt>
      <trkpt lat="44.38856" lon="3.65163">
        <ele>1164.29</ele>
        <time>2023-05-06T12:56:02Z</time>
      </trkpt>
      <trkpt lat="44.38886" lon="3.65158">
        <ele>1168.62</ele>
        <time>2023-05-06T12:56:22Z</time>
      </trkpt>
      <trkpt lat="44.3892" lon="3.65151">
        <ele>1171.98</ele>
        <time>2023-05-06T12:56:44Z</time>
      </trkpt>
      <trkpt lat="44.38952" lon="3.65141">
        <ele>1173.91</ele>
        <time>2023-05-06T12:57:07Z</time>
      </trkpt>
      <trkpt lat="44.38981" lon="3.65132">
        <ele>1174.87</ele>
        <time>2023-05-06T12:57:28Z</time>
      </trkpt>
      <trkpt lat="44.39006" lon="3.65124">
        <ele>1174.87</ele>
        <time>2023-05-06T12:57:48Z</time>
      </trkpt>
      <trkpt lat="44.39034" lon="3.65116">
        <ele>1176.31</ele>
        <time>2023-05-06T12:58:08Z</time>
      </trkpt>
      <trkpt lat="44.3906" lon="3.65102">
        <ele>1177.75</ele>
        <time>2023-05-06T12:58:27Z</time>
      </trkpt>
      <trkpt lat="44.3909" lon="3.65086">
        <ele>1182.08</ele>
        <time>2023-05-06T12:58:52Z</time>
      </trkpt>
      <trkpt lat="44.39103" lon="3.65078">
        <ele>1192.65</ele>
        <time>2023-05-06T12:59:14Z</time>
      </trkpt>
      <trkpt lat="44.39116" lon="3.65071">
        <ele>1196.98</ele>
        <time>2023-05-06T12:59:34Z</time>
      </trkpt>
      <trkpt lat="44.39125" lon="3.65067">
        <ele>1199.38</ele>
        <time>2023-05-06T12:59:55Z</time>
      </trkpt>
      <trkpt lat="44.39125" lon="3.65067">
        <ele>1200.34</ele>
        <time>2023-05-06T13:00:29Z</time>
      </trkpt>
      <trkpt lat="44.39125" lon="3.65065">
        <ele>1201.3</ele>
        <time>2023-05-06T13:01:01Z</time>
      </trkpt>
      <trkpt lat="44.39122" lon="3.65063">
        <ele>1201.3</ele>
        <time>2023-05-06T13:01:24Z</time>
      </trkpt>
      <trkpt lat="44.39124" lon="3.65065">
        <ele>1200.34</ele>
        <time>2023-05-06T13:01:52Z</time>
      </trkpt>
      <trkpt lat="44.39116" lon="3.65065">
        <ele>1201.3</ele>
        <time>2023-05-06T13:02:15Z</time>
      </trkpt>
      <trkpt lat="44.39119" lon="3.65065">
        <ele>1201.3</ele>
        <time>2023-05-06T13:02:35Z</time>
      </trkpt>
      <trkpt lat="44.39122" lon="3.65067">
        <ele>1200.82</ele>
        <time>2023-05-06T13:02:57Z</time>
      </trkpt>
      <trkpt lat="44.39122" lon="3.65064">
        <ele>1199.38</ele>
        <time>2023-05-06T13:03:20Z</time>
      </trkpt>
      <trkpt lat="44.39126" lon="3.65065">
        <ele>1196.5</ele>
        <time>2023-05-06T13:03:44Z</time>
      </trkpt>
      <trkpt lat="44.39126" lon="3.65065">
        <ele>1196.02</ele>
        <time>2023-05-06T13:04:13Z</time>
      </trkpt>
      <trkpt lat="44.39128" lon="3.65065">
        <ele>1195.54</ele>
        <time>2023-05-06T13:04:44Z</time>
      </trkpt>
      <trkpt lat="44.39128" lon="3.65065">
        <ele>1196.02</ele>
        <time>2023-05-06T13:05:19Z</time>
      </trkpt>
      <trkpt lat="44.39127" lon="3.65065">
        <ele>1195.54</ele>
        <time>2023-05-06T13:05:51Z</time>
      </trkpt>
      <trkpt lat="44.39126" lon="3.65065">
        <ele>1195.54</ele>
        <time>2023-05-06T13:06:22Z</time>
      </trkpt>
      <trkpt lat="44.39126" lon="3.65066">
        <ele>1195.06</ele>
        <time>2023-05-06T13:06:48Z</time>
      </trkpt>
      <trkpt lat="44.39127" lon="3.65066">
        <ele>1195.06</ele>
        <time>2023-05-06T13:07:12Z</time>
      </trkpt>
      <trkpt lat="44.39127" lon="3.65066">
        <ele>1195.06</ele>
        <time>2023-05-06T13:07:37Z</time>
      </trkpt>
      <trkpt lat="44.39134" lon="3.65067">
        <ele>1195.06</ele>
        <time>2023-05-06T13:07:58Z</time>
      </trkpt>
      <trkpt lat="44.39138" lon="3.65059">
        <ele>1195.06</ele>
        <time>2023-05-06T13:08:21Z</time>
      </trkpt>
      <trkpt lat="44.39139" lon="3.65062">
        <ele>1194.58</ele>
        <time>2023-05-06T13:08:42Z</time>
      </trkpt>
      <trkpt lat="44.39127" lon="3.65067">
        <ele>1195.06</ele>
        <time>2023-05-06T13:09:05Z</time>
      </trkpt>
      <trkpt lat="44.39128" lon="3.65067">
        <ele>1195.06</ele>
        <time>2023-05-06T13:09:37Z</time>
      </trkpt>
      <trkpt lat="44.39126" lon="3.65066">
        <ele>1196.02</ele>
        <time>2023-05-06T13:10:07Z</time>
      </trkpt>
      <trkpt lat="44.39125" lon="3.65066">
        <ele>1196.5</ele>
        <time>2023-05-06T13:10:39Z</time>
      </trkpt>
      <trkpt lat="44.39124" lon="3.65066">
        <ele>1196.98</ele>
        <time>2023-05-06T13:11:08Z</time>
      </trkpt>
      <trkpt lat="44.39124" lon="3.65067">
        <ele>1197.46</ele>
        <time>2023-05-06T13:11:40Z</time>
      </trkpt>
      <trkpt lat="44.39124" lon="3.65066">
        <ele>1198.42</ele>
        <time>2023-05-06T13:12:09Z</time>
      </trkpt>
      <trkpt lat="44.39126" lon="3.65066">
        <ele>1198.42</ele>
        <time>2023-05-06T13:12:41Z</time>
      </trkpt>
      <trkpt lat="44.39131" lon="3.65065">
        <ele>1198.42</ele>
        <time>2023-05-06T13:13:06Z</time>
      </trkpt>
      <trkpt lat="44.39131" lon="3.65066">
        <ele>1197.94</ele>
        <time>2023-05-06T13:13:32Z</time>
      </trkpt>
      <trkpt lat="44.39126" lon="3.6507">
        <ele>1197.46</ele>
        <time>2023-05-06T13:13:58Z</time>
      </trkpt>
      <trkpt lat="44.39128" lon="3.65068">
        <ele>1196.5</ele>
        <time>2023-05-06T13:14:26Z</time>
      </trkpt>
      <trkpt lat="44.39119" lon="3.65064">
        <ele>1194.58</ele>
        <time>2023-05-06T13:14:52Z</time>
      </trkpt>
      <trkpt lat="44.39123" lon="3.65066">
        <ele>1195.06</ele>
        <time>2023-05-06T13:15:19Z</time>
      </trkpt>
      <trkpt lat="44.39119" lon="3.65064">
        <ele>1194.09</ele>
        <time>2023-05-06T13:15:42Z</time>
      </trkpt>
      <trkpt lat="44.39123" lon="3.65065">
        <ele>1193.13</ele>
        <time>2023-05-06T13:16:09Z</time>
      </trkpt>
      <trkpt lat="44.39125" lon="3.65066">
        <ele>1193.13</ele>
        <time>2023-05-06T13:16:38Z</time>
      </trkpt>
      <trkpt lat="44.39123" lon="3.65066">
        <ele>1190.73</ele>
        <time>2023-05-06T13:17:04Z</time>
      </trkpt>
      <trkpt lat="44.39121" lon="3.65066">
        <ele>1190.73</ele>
        <time>2023-05-06T13:17:30Z</time>
      </trkpt>
      <trkpt lat="44.39125" lon="3.6507">
        <ele>1194.09</ele>
        <time>2023-05-06T13:17:47Z</time>
      </trkpt>
      <trkpt lat="44.39123" lon="3.65069">
        <ele>1196.02</ele>
        <time>2023-05-06T13:18:07Z</time>
      </trkpt>
      <trkpt lat="44.39135" lon="3.65058">
        <ele>1195.54</ele>
        <time>2023-05-06T13:18:25Z</time>
      </trkpt>
      <trkpt lat="44.39155" lon="3.65042">
        <ele>1195.06</ele>
        <time>2023-05-06T13:18:45Z</time>
      </trkpt>
      <trkpt lat="44.39183" lon="3.6502">
        <ele>1197.46</ele>
        <time>2023-05-06T13:19:10Z</time>
      </trkpt>
      <trkpt lat="44.39194" lon="3.65008">
        <ele>1207.07</ele>
        <time>2023-05-06T13:19:21Z</time>
      </trkpt>
      <trkpt lat="44.39204" lon="3.64994">
        <ele>1209</ele>
        <time>2023-05-06T13:19:31Z</time>
      </trkpt>
      <trkpt lat="44.39205" lon="3.64993">
        <ele>1209</ele>
        <time>2023-05-06T13:19:32Z</time>
      </trkpt>
      <trkpt lat="44.39213" lon="3.64982">
        <ele>1210.44</ele>
        <time>2023-05-06T13:19:42Z</time>
      </trkpt>
      <trkpt lat="44.39223" lon="3.6497">
        <ele>1210.44</ele>
        <time>2023-05-06T13:19:55Z</time>
      </trkpt>
      <trkpt lat="44.3923" lon="3.64962">
        <ele>1210.44</ele>
        <time>2023-05-06T13:20:04Z</time>
      </trkpt>
      <trkpt lat="44.39247" lon="3.64949">
        <ele>1210.44</ele>
        <time>2023-05-06T13:20:18Z</time>
      </trkpt>
      <trkpt lat="44.39261" lon="3.64939">
        <ele>1210.44</ele>
        <time>2023-05-06T13:20:29Z</time>
      </trkpt>
      <trkpt lat="44.39276" lon="3.64928">
        <ele>1209.96</ele>
        <time>2023-05-06T13:20:40Z</time>
      </trkpt>
      <trkpt lat="44.39289" lon="3.64919">
        <ele>1208.51</ele>
        <time>2023-05-06T13:20:50Z</time>
      </trkpt>
      <trkpt lat="44.39291" lon="3.64917">
        <ele>1208.51</ele>
        <time>2023-05-06T13:20:54Z</time>
      </trkpt>
      <trkpt lat="44.39298" lon="3.64912">
        <ele>1208.03</ele>
        <time>2023-05-06T13:20:58Z</time>
      </trkpt>
      <trkpt lat="44.39309" lon="3.64902">
        <ele>1208.03</ele>
        <time>2023-05-06T13:21:09Z</time>
      </trkpt>
      <trkpt lat="44.39319" lon="3.64894">
        <ele>1207.55</ele>
        <time>2023-05-06T13:21:17Z</time>
      </trkpt>
      <trkpt lat="44.3933" lon="3.64886">
        <ele>1207.55</ele>
        <time>2023-05-06T13:21:28Z</time>
      </trkpt>
      <trkpt lat="44.39343" lon="3.64876">
        <ele>1207.07</ele>
        <time>2023-05-06T13:21:39Z</time>
      </trkpt>
      <trkpt lat="44.39356" lon="3.64867">
        <ele>1206.59</ele>
        <time>2023-05-06T13:21:49Z</time>
      </trkpt>
      <trkpt lat="44.39369" lon="3.64859">
        <ele>1206.11</ele>
        <time>2023-05-06T13:21:59Z</time>
      </trkpt>
      <trkpt lat="44.39376" lon="3.64855">
        <ele>1205.63</ele>
        <time>2023-05-06T13:22:08Z</time>
      </trkpt>
      <trkpt lat="44.39387" lon="3.64848">
        <ele>1205.63</ele>
        <time>2023-05-06T13:22:17Z</time>
      </trkpt>
      <trkpt lat="44.39391" lon="3.64846">
        <ele>1205.63</ele>
        <time>2023-05-06T13:22:20Z</time>
      </trkpt>
      <trkpt lat="44.39406" lon="3.64841">
        <ele>1206.11</ele>
        <time>2023-05-06T13:22:32Z</time>
      </trkpt>
      <trkpt lat="44.39423" lon="3.64836">
        <ele>1204.19</ele>
        <time>2023-05-06T13:22:45Z</time>
      </trkpt>
      <trkpt lat="44.3944" lon="3.64833">
        <ele>1199.86</ele>
        <time>2023-05-06T13:22:57Z</time>
      </trkpt>
      <trkpt lat="44.39452" lon="3.64831">
        <ele>1197.94</ele>
        <time>2023-05-06T13:23:07Z</time>
      </trkpt>
      <trkpt lat="44.39464" lon="3.64829">
        <ele>1196.5</ele>
        <time>2023-05-06T13:23:18Z</time>
      </trkpt>
      <trkpt lat="44.39473" lon="3.64827">
        <ele>1195.54</ele>
        <time>2023-05-06T13:23:27Z</time>
      </trkpt>
      <trkpt lat="44.39489" lon="3.64823">
        <ele>1195.54</ele>
        <time>2023-05-06T13:23:37Z</time>
      </trkpt>
      <trkpt lat="44.39504" lon="3.64819">
        <ele>1195.06</ele>
        <time>2023-05-06T13:23:48Z</time>
      </trkpt>
      <trkpt lat="44.39519" lon="3.64815">
        <ele>1194.09</ele>
        <time>2023-05-06T13:23:59Z</time>
      </trkpt>
      <trkpt lat="44.39534" lon="3.64811">
        <ele>1193.61</ele>
        <time>2023-05-06T13:24:10Z</time>
      </trkpt>
      <trkpt lat="44.3955" lon="3.64806">
        <ele>1193.61</ele>
        <time>2023-05-06T13:24:22Z</time>
      </trkpt>
      <trkpt lat="44.39567" lon="3.64801">
        <ele>1192.65</ele>
        <time>2023-05-06T13:24:36Z</time>
      </trkpt>
      <trkpt lat="44.39586" lon="3.64795">
        <ele>1192.65</ele>
        <time>2023-05-06T13:24:48Z</time>
      </trkpt>
      <trkpt lat="44.39602" lon="3.64794">
        <ele>1193.13</ele>
        <time>2023-05-06T13:25:00Z</time>
      </trkpt>
      <trkpt lat="44.39617" lon="3.64794">
        <ele>1194.09</ele>
        <time>2023-05-06T13:25:12Z</time>
      </trkpt>
      <trkpt lat="44.39631" lon="3.64795">
        <ele>1194.58</ele>
        <time>2023-05-06T13:25:23Z</time>
      </trkpt>
      <trkpt lat="44.39648" lon="3.64794">
        <ele>1195.06</ele>
        <time>2023-05-06T13:25:34Z</time>
      </trkpt>
      <trkpt lat="44.39659" lon="3.64794">
        <ele>1194.58</ele>
        <time>2023-05-06T13:25:44Z</time>
      </trkpt>
      <trkpt lat="44.39673" lon="3.64798">
        <ele>1193.13</ele>
        <time>2023-05-06T13:25:56Z</time>
      </trkpt>
      <trkpt lat="44.39689" lon="3.64796">
        <ele>1193.13</ele>
        <time>2023-05-06T13:26:08Z</time>
      </trkpt>
      <trkpt lat="44.39704" lon="3.64793">
        <ele>1194.09</ele>
        <time>2023-05-06T13:26:20Z</time>
      </trkpt>
      <trkpt lat="44.39717" lon="3.6479">
        <ele>1195.06</ele>
        <time>2023-05-06T13:26:30Z</time>
      </trkpt>
      <trkpt lat="44.3973" lon="3.64788">
        <ele>1196.5</ele>
        <time>2023-05-06T13:26:39Z</time>
      </trkpt>
      <trkpt lat="44.39743" lon="3.64784">
        <ele>1196.98</ele>
        <time>2023-05-06T13:26:50Z</time>
      </trkpt>
      <trkpt lat="44.39752" lon="3.64782">
        <ele>1197.94</ele>
        <time>2023-05-06T13:26:58Z</time>
      </trkpt>
      <trkpt lat="44.39762" lon="3.64779">
        <ele>1199.38</ele>
        <time>2023-05-06T13:27:07Z</time>
      </trkpt>
      <trkpt lat="44.39772" lon="3.64783">
        <ele>1201.3</ele>
        <time>2023-05-06T13:27:26Z</time>
      </trkpt>
      <trkpt lat="44.39772" lon="3.64783">
        <ele>1200.34</ele>
        <time>2023-05-06T13:27:52Z</time>
      </trkpt>
      <trkpt lat="44.39774" lon="3.64778">
        <ele>1199.86</ele>
        <time>2023-05-06T13:28:07Z</time>
      </trkpt>
      <trkpt lat="44.39781" lon="3.64768">
        <ele>1199.38</ele>
        <time>2023-05-06T13:28:16Z</time>
      </trkpt>
      <trkpt lat="44.39805" lon="3.64749">
        <ele>1198.9</ele>
        <time>2023-05-06T13:28:41Z</time>
      </trkpt>
      <trkpt lat="44.39824" lon="3.64731">
        <ele>1200.34</ele>
        <time>2023-05-06T13:29:02Z</time>
      </trkpt>
      <trkpt lat="44.39826" lon="3.64726">
        <ele>1200.34</ele>
        <time>2023-05-06T13:29:06Z</time>
      </trkpt>
      <trkpt lat="44.39838" lon="3.64719">
        <ele>1198.9</ele>
        <time>2023-05-06T13:29:25Z</time>
      </trkpt>
      <trkpt lat="44.39846" lon="3.64716">
        <ele>1197.94</ele>
        <time>2023-05-06T13:29:45Z</time>
      </trkpt>
      <trkpt lat="44.39847" lon="3.64716">
        <ele>1197.94</ele>
        <time>2023-05-06T13:30:07Z</time>
      </trkpt>
      <trkpt lat="44.39849" lon="3.64716">
        <ele>1197.94</ele>
        <time>2023-05-06T13:30:32Z</time>
      </trkpt>
      <trkpt lat="44.39842" lon="3.64708">
        <ele>1196.98</ele>
        <time>2023-05-06T13:30:44Z</time>
      </trkpt>
      <trkpt lat="44.39846" lon="3.64693">
        <ele>1193.61</ele>
        <time>2023-05-06T13:31:02Z</time>
      </trkpt>
      <trkpt lat="44.39848" lon="3.64691">
        <ele>1193.13</ele>
        <time>2023-05-06T13:31:05Z</time>
      </trkpt>
      <trkpt lat="44.39871" lon="3.6467">
        <ele>1186.88</ele>
        <time>2023-05-06T13:31:28Z</time>
      </trkpt>
      <trkpt lat="44.39893" lon="3.64657">
        <ele>1181.6</ele>
        <time>2023-05-06T13:31:52Z</time>
      </trkpt>
      <trkpt lat="44.39927" lon="3.64634">
        <ele>1179.19</ele>
        <time>2023-05-06T13:32:17Z</time>
      </trkpt>
      <trkpt lat="44.39951" lon="3.64622">
        <ele>1179.19</ele>
        <time>2023-05-06T13:32:41Z</time>
      </trkpt>
      <trkpt lat="44.39952" lon="3.64623">
        <ele>1179.19</ele>
        <time>2023-05-06T13:32:59Z</time>
      </trkpt>
      <trkpt lat="44.39955" lon="3.64623">
        <ele>1179.19</ele>
        <time>2023-05-06T13:33:07Z</time>
      </trkpt>
      <trkpt lat="44.3995" lon="3.64619">
        <ele>1178.23</ele>
        <time>2023-05-06T13:33:24Z</time>
      </trkpt>
      <trkpt lat="44.39985" lon="3.64625">
        <ele>1179.19</ele>
        <time>2023-05-06T13:33:47Z</time>
      </trkpt>
      <trkpt lat="44.40017" lon="3.64627">
        <ele>1181.12</ele>
        <time>2023-05-06T13:34:12Z</time>
      </trkpt>
      <trkpt lat="44.40046" lon="3.64627">
        <ele>1182.08</ele>
        <time>2023-05-06T13:34:36Z</time>
      </trkpt>
      <trkpt lat="44.40073" lon="3.64625">
        <ele>1182.08</ele>
        <time>2023-05-06T13:34:56Z</time>
      </trkpt>
      <trkpt lat="44.40102" lon="3.64622">
        <ele>1182.08</ele>
        <time>2023-05-06T13:35:19Z</time>
      </trkpt>
      <trkpt lat="44.40133" lon="3.6461">
        <ele>1182.08</ele>
        <time>2023-05-06T13:35:43Z</time>
      </trkpt>
      <trkpt lat="44.40161" lon="3.64602">
        <ele>1181.6</ele>
        <time>2023-05-06T13:36:07Z</time>
      </trkpt>
      <trkpt lat="44.40181" lon="3.64606">
        <ele>1179.19</ele>
        <time>2023-05-06T13:36:26Z</time>
      </trkpt>
      <trkpt lat="44.40213" lon="3.6462">
        <ele>1175.35</ele>
        <time>2023-05-06T13:36:49Z</time>
      </trkpt>
      <trkpt lat="44.40241" lon="3.64622">
        <ele>1171.98</ele>
        <time>2023-05-06T13:37:09Z</time>
      </trkpt>
      <trkpt lat="44.40265" lon="3.64606">
        <ele>1172.95</ele>
        <time>2023-05-06T13:37:32Z</time>
      </trkpt>
      <trkpt lat="44.40267" lon="3.64598">
        <ele>1173.43</ele>
        <time>2023-05-06T13:37:48Z</time>
      </trkpt>
      <trkpt lat="44.40266" lon="3.64598">
        <ele>1173.91</ele>
        <time>2023-05-06T13:38:07Z</time>
      </trkpt>
      <trkpt lat="44.40257" lon="3.64583">
        <ele>1173.43</ele>
        <time>2023-05-06T13:38:30Z</time>
      </trkpt>
      <trkpt lat="44.40246" lon="3.64568">
        <ele>1174.39</ele>
        <time>2023-05-06T13:38:44Z</time>
      </trkpt>
      <trkpt lat="44.4023" lon="3.64546">
        <ele>1174.39</ele>
        <time>2023-05-06T13:39:07Z</time>
      </trkpt>
      <trkpt lat="44.40216" lon="3.6452">
        <ele>1173.43</ele>
        <time>2023-05-06T13:39:26Z</time>
      </trkpt>
      <trkpt lat="44.40203" lon="3.64483">
        <ele>1172.47</ele>
        <time>2023-05-06T13:39:47Z</time>
      </trkpt>
      <trkpt lat="44.40179" lon="3.64463">
        <ele>1168.14</ele>
        <time>2023-05-06T13:40:08Z</time>
      </trkpt>
      <trkpt lat="44.40155" lon="3.64444">
        <ele>1159.49</ele>
        <time>2023-05-06T13:40:31Z</time>
      </trkpt>
      <trkpt lat="44.40128" lon="3.64423">
        <ele>1155.16</ele>
        <time>2023-05-06T13:40:53Z</time>
      </trkpt>
      <trkpt lat="44.40101" lon="3.64411">
        <ele>1151.32</ele>
        <time>2023-05-06T13:41:16Z</time>
      </trkpt>
      <trkpt lat="44.40096" lon="3.64401">
        <ele>1149.87</ele>
        <time>2023-05-06T13:41:24Z</time>
      </trkpt>
      <trkpt lat="44.401" lon="3.64394">
        <ele>1148.91</ele>
        <time>2023-05-06T13:41:29Z</time>
      </trkpt>
      <trkpt lat="44.40121" lon="3.64378">
        <ele>1145.07</ele>
        <time>2023-05-06T13:41:49Z</time>
      </trkpt>
      <trkpt lat="44.40145" lon="3.64354">
        <ele>1140.26</ele>
        <time>2023-05-06T13:42:11Z</time>
      </trkpt>
      <trkpt lat="44.40166" lon="3.64326">
        <ele>1134.97</ele>
        <time>2023-05-06T13:42:32Z</time>
      </trkpt>
      <trkpt lat="44.40191" lon="3.64304">
        <ele>1130.65</ele>
        <time>2023-05-06T13:42:55Z</time>
      </trkpt>
      <trkpt lat="44.40213" lon="3.64326">
        <ele>1127.76</ele>
        <time>2023-05-06T13:43:16Z</time>
      </trkpt>
      <trkpt lat="44.40216" lon="3.64341">
        <ele>1125.36</ele>
        <time>2023-05-06T13:43:24Z</time>
      </trkpt>
      <trkpt lat="44.40237" lon="3.64371">
        <ele>1121.03</ele>
        <time>2023-05-06T13:43:46Z</time>
      </trkpt>
      <trkpt lat="44.4027" lon="3.64374">
        <ele>1123.92</ele>
        <time>2023-05-06T13:44:07Z</time>
      </trkpt>
      <trkpt lat="44.40287" lon="3.64364">
        <ele>1124.88</ele>
        <time>2023-05-06T13:44:23Z</time>
      </trkpt>
      <trkpt lat="44.40298" lon="3.64353">
        <ele>1124.4</ele>
        <time>2023-05-06T13:44:32Z</time>
      </trkpt>
      <trkpt lat="44.40311" lon="3.64336">
        <ele>1123.44</ele>
        <time>2023-05-06T13:44:43Z</time>
      </trkpt>
      <trkpt lat="44.40321" lon="3.64321">
        <ele>1120.55</ele>
        <time>2023-05-06T13:44:54Z</time>
      </trkpt>
      <trkpt lat="44.40329" lon="3.6431">
        <ele>1119.11</ele>
        <time>2023-05-06T13:45:01Z</time>
      </trkpt>
      <trkpt lat="44.40341" lon="3.64295">
        <ele>1116.23</ele>
        <time>2023-05-06T13:45:12Z</time>
      </trkpt>
      <trkpt lat="44.40352" lon="3.64282">
        <ele>1113.82</ele>
        <time>2023-05-06T13:45:22Z</time>
      </trkpt>
      <trkpt lat="44.40362" lon="3.64271">
        <ele>1113.82</ele>
        <time>2023-05-06T13:45:33Z</time>
      </trkpt>
      <trkpt lat="44.40374" lon="3.64255">
        <ele>1113.34</ele>
        <time>2023-05-06T13:45:47Z</time>
      </trkpt>
      <trkpt lat="44.40381" lon="3.64246">
        <ele>1112.38</ele>
        <time>2023-05-06T13:45:58Z</time>
      </trkpt>
      <trkpt lat="44.40389" lon="3.64238">
        <ele>1112.38</ele>
        <time>2023-05-06T13:46:07Z</time>
      </trkpt>
      <trkpt lat="44.40389" lon="3.64237">
        <ele>1112.38</ele>
        <time>2023-05-06T13:46:09Z</time>
      </trkpt>
      <trkpt lat="44.40401" lon="3.64226">
        <ele>1110.94</ele>
        <time>2023-05-06T13:46:19Z</time>
      </trkpt>
      <trkpt lat="44.40405" lon="3.64214">
        <ele>1109.02</ele>
        <time>2023-05-06T13:46:28Z</time>
      </trkpt>
      <trkpt lat="44.40405" lon="3.64206">
        <ele>1107.58</ele>
        <time>2023-05-06T13:46:42Z</time>
      </trkpt>
      <trkpt lat="44.40405" lon="3.64193">
        <ele>1105.65</ele>
        <time>2023-05-06T13:46:55Z</time>
      </trkpt>
      <trkpt lat="44.40405" lon="3.64186">
        <ele>1105.65</ele>
        <time>2023-05-06T13:47:02Z</time>
      </trkpt>
      <trkpt lat="44.40417" lon="3.64172">
        <ele>1102.77</ele>
        <time>2023-05-06T13:47:12Z</time>
      </trkpt>
      <trkpt lat="44.40419" lon="3.64171">
        <ele>1101.81</ele>
        <time>2023-05-06T13:47:14Z</time>
      </trkpt>
      <trkpt lat="44.40424" lon="3.64164">
        <ele>1101.33</ele>
        <time>2023-05-06T13:47:18Z</time>
      </trkpt>
      <trkpt lat="44.40435" lon="3.64157">
        <ele>1101.33</ele>
        <time>2023-05-06T13:47:29Z</time>
      </trkpt>
      <trkpt lat="44.40443" lon="3.64155">
        <ele>1101.81</ele>
        <time>2023-05-06T13:47:43Z</time>
      </trkpt>
      <trkpt lat="44.40454" lon="3.64159">
        <ele>1103.25</ele>
        <time>2023-05-06T13:47:59Z</time>
      </trkpt>
      <trkpt lat="44.40461" lon="3.64159">
        <ele>1104.69</ele>
        <time>2023-05-06T13:48:08Z</time>
      </trkpt>
      <trkpt lat="44.40477" lon="3.64157">
        <ele>1107.1</ele>
        <time>2023-05-06T13:48:19Z</time>
      </trkpt>
      <trkpt lat="44.40494" lon="3.64154">
        <ele>1110.46</ele>
        <time>2023-05-06T13:48:31Z</time>
      </trkpt>
      <trkpt lat="44.40509" lon="3.64152">
        <ele>1112.86</ele>
        <time>2023-05-06T13:48:42Z</time>
      </trkpt>
      <trkpt lat="44.40521" lon="3.6415">
        <ele>1115.27</ele>
        <time>2023-05-06T13:48:52Z</time>
      </trkpt>
      <trkpt lat="44.40536" lon="3.64152">
        <ele>1115.27</ele>
        <time>2023-05-06T13:49:02Z</time>
      </trkpt>
      <trkpt lat="44.40548" lon="3.64155">
        <ele>1115.27</ele>
        <time>2023-05-06T13:49:13Z</time>
      </trkpt>
      <trkpt lat="44.40562" lon="3.64152">
        <ele>1114.79</ele>
        <time>2023-05-06T13:49:23Z</time>
      </trkpt>
      <trkpt lat="44.40567" lon="3.64153">
        <ele>1115.27</ele>
        <time>2023-05-06T13:49:32Z</time>
      </trkpt>
      <trkpt lat="44.40575" lon="3.64152">
        <ele>1114.79</ele>
        <time>2023-05-06T13:49:37Z</time>
      </trkpt>
      <trkpt lat="44.40593" lon="3.64151">
        <ele>1113.34</ele>
        <time>2023-05-06T13:49:53Z</time>
      </trkpt>
      <trkpt lat="44.40599" lon="3.64143">
        <ele>1113.34</ele>
        <time>2023-05-06T13:50:07Z</time>
      </trkpt>
      <trkpt lat="44.40606" lon="3.64142">
        <ele>1115.75</ele>
        <time>2023-05-06T13:50:21Z</time>
      </trkpt>
      <trkpt lat="44.40613" lon="3.64152">
        <ele>1121.03</ele>
        <time>2023-05-06T13:50:38Z</time>
      </trkpt>
      <trkpt lat="44.40622" lon="3.64147">
        <ele>1126.32</ele>
        <time>2023-05-06T13:50:57Z</time>
      </trkpt>
      <trkpt lat="44.40635" lon="3.64129">
        <ele>1125.36</ele>
        <time>2023-05-06T13:51:13Z</time>
      </trkpt>
      <trkpt lat="44.40645" lon="3.64131">
        <ele>1127.28</ele>
        <time>2023-05-06T13:51:33Z</time>
      </trkpt>
      <trkpt lat="44.40657" lon="3.64132">
        <ele>1130.17</ele>
        <time>2023-05-06T13:51:51Z</time>
      </trkpt>
      <trkpt lat="44.40659" lon="3.64133">
        <ele>1129.69</ele>
        <time>2023-05-06T13:52:06Z</time>
      </trkpt>
      <trkpt lat="44.40677" lon="3.64121">
        <ele>1131.13</ele>
        <time>2023-05-06T13:52:25Z</time>
      </trkpt>
      <trkpt lat="44.40678" lon="3.6412">
        <ele>1131.61</ele>
        <time>2023-05-06T13:52:26Z</time>
      </trkpt>
      <trkpt lat="44.407" lon="3.64097">
        <ele>1132.57</ele>
        <time>2023-05-06T13:52:46Z</time>
      </trkpt>
      <trkpt lat="44.40716" lon="3.64082">
        <ele>1136.42</ele>
        <time>2023-05-06T13:53:02Z</time>
      </trkpt>
      <trkpt lat="44.40732" lon="3.64071">
        <ele>1139.78</ele>
        <time>2023-05-06T13:53:19Z</time>
      </trkpt>
      <trkpt lat="44.40737" lon="3.6407">
        <ele>1141.22</ele>
        <time>2023-05-06T13:53:24Z</time>
      </trkpt>
      <trkpt lat="44.40757" lon="3.64064">
        <ele>1145.07</ele>
        <time>2023-05-06T13:53:42Z</time>
      </trkpt>
      <trkpt lat="44.40782" lon="3.64047">
        <ele>1146.51</ele>
        <time>2023-05-06T13:54:02Z</time>
      </trkpt>
      <trkpt lat="44.40798" lon="3.64041">
        <ele>1146.99</ele>
        <time>2023-05-06T13:54:21Z</time>
      </trkpt>
      <trkpt lat="44.40801" lon="3.64037">
        <ele>1145.55</ele>
        <time>2023-05-06T13:54:40Z</time>
      </trkpt>
      <trkpt lat="44.40807" lon="3.64032">
        <ele>1145.07</ele>
        <time>2023-05-06T13:55:01Z</time>
      </trkpt>
      <trkpt lat="44.40827" lon="3.64002">
        <ele>1144.59</ele>
        <time>2023-05-06T13:55:21Z</time>
      </trkpt>
      <trkpt lat="44.40838" lon="3.63984">
        <ele>1146.51</ele>
        <time>2023-05-06T13:55:38Z</time>
      </trkpt>
      <trkpt lat="44.40846" lon="3.63974">
        <ele>1149.39</ele>
        <time>2023-05-06T13:55:53Z</time>
      </trkpt>
      <trkpt lat="44.40857" lon="3.63967">
        <ele>1148.91</ele>
        <time>2023-05-06T13:56:07Z</time>
      </trkpt>
      <trkpt lat="44.40873" lon="3.63946">
        <ele>1148.43</ele>
        <time>2023-05-06T13:56:25Z</time>
      </trkpt>
      <trkpt lat="44.40885" lon="3.63937">
        <ele>1150.35</ele>
        <time>2023-05-06T13:56:42Z</time>
      </trkpt>
      <trkpt lat="44.40898" lon="3.63925">
        <ele>1152.28</ele>
        <time>2023-05-06T13:56:58Z</time>
      </trkpt>
      <trkpt lat="44.40907" lon="3.63921">
        <ele>1149.87</ele>
        <time>2023-05-06T13:57:02Z</time>
      </trkpt>
      <trkpt lat="44.40918" lon="3.63914">
        <ele>1148.43</ele>
        <time>2023-05-06T13:57:14Z</time>
      </trkpt>
      <trkpt lat="44.40928" lon="3.63907">
        <ele>1148.43</ele>
        <time>2023-05-06T13:57:28Z</time>
      </trkpt>
      <trkpt lat="44.40933" lon="3.63905">
        <ele>1148.43</ele>
        <time>2023-05-06T13:57:33Z</time>
      </trkpt>
      <trkpt lat="44.40943" lon="3.63899">
        <ele>1148.43</ele>
        <time>2023-05-06T13:57:44Z</time>
      </trkpt>
      <trkpt lat="44.40955" lon="3.63891">
        <ele>1148.91</ele>
        <time>2023-05-06T13:57:55Z</time>
      </trkpt>
      <trkpt lat="44.40964" lon="3.63887">
        <ele>1149.39</ele>
        <time>2023-05-06T13:58:08Z</time>
      </trkpt>
      <trkpt lat="44.40969" lon="3.63887">
        <ele>1148.91</ele>
        <time>2023-05-06T13:58:14Z</time>
      </trkpt>
      <trkpt lat="44.40976" lon="3.63884">
        <ele>1150.35</ele>
        <time>2023-05-06T13:58:22Z</time>
      </trkpt>
      <trkpt lat="44.40986" lon="3.63873">
        <ele>1151.8</ele>
        <time>2023-05-06T13:58:32Z</time>
      </trkpt>
      <trkpt lat="44.40989" lon="3.6387">
        <ele>1152.76</ele>
        <time>2023-05-06T13:58:39Z</time>
      </trkpt>
      <trkpt lat="44.40993" lon="3.63862">
        <ele>1154.68</ele>
        <time>2023-05-06T13:58:46Z</time>
      </trkpt>
      <trkpt lat="44.41" lon="3.63856">
        <ele>1154.68</ele>
        <time>2023-05-06T13:58:57Z</time>
      </trkpt>
      <trkpt lat="44.41009" lon="3.63847">
        <ele>1155.64</ele>
        <time>2023-05-06T13:59:09Z</time>
      </trkpt>
      <trkpt lat="44.41014" lon="3.63844">
        <ele>1156.6</ele>
        <time>2023-05-06T13:59:14Z</time>
      </trkpt>
      <trkpt lat="44.41015" lon="3.63842">
        <ele>1156.6</ele>
        <time>2023-05-06T13:59:17Z</time>
      </trkpt>
      <trkpt lat="44.41026" lon="3.63836">
        <ele>1156.6</ele>
        <time>2023-05-06T13:59:28Z</time>
      </trkpt>
      <trkpt lat="44.41037" lon="3.63829">
        <ele>1157.08</ele>
        <time>2023-05-06T13:59:40Z</time>
      </trkpt>
      <trkpt lat="44.41048" lon="3.63826">
        <ele>1159.01</ele>
        <time>2023-05-06T13:59:53Z</time>
      </trkpt>
      <trkpt lat="44.41063" lon="3.63817">
        <ele>1162.85</ele>
        <time>2023-05-06T14:00:12Z</time>
      </trkpt>
      <trkpt lat="44.41071" lon="3.63809">
        <ele>1164.29</ele>
        <time>2023-05-06T14:00:25Z</time>
      </trkpt>
      <trkpt lat="44.41078" lon="3.63801">
        <ele>1165.26</ele>
        <time>2023-05-06T14:00:38Z</time>
      </trkpt>
      <trkpt lat="44.41083" lon="3.63786">
        <ele>1168.14</ele>
        <time>2023-05-06T14:00:52Z</time>
      </trkpt>
      <trkpt lat="44.41088" lon="3.63779">
        <ele>1169.1</ele>
        <time>2023-05-06T14:01:13Z</time>
      </trkpt>
      <trkpt lat="44.41098" lon="3.63775">
        <ele>1172.95</ele>
        <time>2023-05-06T14:01:32Z</time>
      </trkpt>
      <trkpt lat="44.41103" lon="3.63771">
        <ele>1175.83</ele>
        <time>2023-05-06T14:01:48Z</time>
      </trkpt>
      <trkpt lat="44.41103" lon="3.63772">
        <ele>1176.31</ele>
        <time>2023-05-06T14:02:06Z</time>
      </trkpt>
      <trkpt lat="44.41116" lon="3.63772">
        <ele>1176.31</ele>
        <time>2023-05-06T14:02:22Z</time>
      </trkpt>
      <trkpt lat="44.41119" lon="3.6377">
        <ele>1174.39</ele>
        <time>2023-05-06T14:02:42Z</time>
      </trkpt>
      <trkpt lat="44.41118" lon="3.63767">
        <ele>1173.43</ele>
        <time>2023-05-06T14:02:59Z</time>
      </trkpt>
      <trkpt lat="44.41118" lon="3.63767">
        <ele>1173.43</ele>
        <time>2023-05-06T14:03:19Z</time>
      </trkpt>
      <trkpt lat="44.41118" lon="3.63767">
        <ele>1172.95</ele>
        <time>2023-05-06T14:03:33Z</time>
      </trkpt>
      <trkpt lat="44.41115" lon="3.63753">
        <ele>1172.95</ele>
        <time>2023-05-06T14:03:46Z</time>
      </trkpt>
      <trkpt lat="44.41116" lon="3.6375">
        <ele>1171.02</ele>
        <time>2023-05-06T14:04:00Z</time>
      </trkpt>
      <trkpt lat="44.41117" lon="3.63747">
        <ele>1171.02</ele>
        <time>2023-05-06T14:04:19Z</time>
      </trkpt>
      <trkpt lat="44.4112" lon="3.63731">
        <ele>1174.87</ele>
        <time>2023-05-06T14:04:34Z</time>
      </trkpt>
      <trkpt lat="44.41117" lon="3.63721">
        <ele>1176.31</ele>
        <time>2023-05-06T14:04:46Z</time>
      </trkpt>
      <trkpt lat="44.41117" lon="3.63718">
        <ele>1177.27</ele>
        <time>2023-05-06T14:04:49Z</time>
      </trkpt>
      <trkpt lat="44.41116" lon="3.63715">
        <ele>1177.27</ele>
        <time>2023-05-06T14:04:53Z</time>
      </trkpt>
      <trkpt lat="44.41113" lon="3.63712">
        <ele>1177.75</ele>
        <time>2023-05-06T14:04:57Z</time>
      </trkpt>
      <trkpt lat="44.41116" lon="3.63702">
        <ele>1179.19</ele>
        <time>2023-05-06T14:05:05Z</time>
      </trkpt>
      <trkpt lat="44.41124" lon="3.63699">
        <ele>1180.64</ele>
        <time>2023-05-06T14:05:16Z</time>
      </trkpt>
      <trkpt lat="44.4113" lon="3.63693">
        <ele>1184.48</ele>
        <time>2023-05-06T14:05:26Z</time>
      </trkpt>
      <trkpt lat="44.41132" lon="3.63693">
        <ele>1184.96</ele>
        <time>2023-05-06T14:05:29Z</time>
      </trkpt>
      <trkpt lat="44.41136" lon="3.63687">
        <ele>1185.44</ele>
        <time>2023-05-06T14:05:35Z</time>
      </trkpt>
      <trkpt lat="44.41139" lon="3.63687">
        <ele>1185.44</ele>
        <time>2023-05-06T14:05:37Z</time>
      </trkpt>
      <trkpt lat="44.41149" lon="3.63677">
        <ele>1187.37</ele>
        <time>2023-05-06T14:05:47Z</time>
      </trkpt>
      <trkpt lat="44.41157" lon="3.63668">
        <ele>1191.69</ele>
        <time>2023-05-06T14:05:57Z</time>
      </trkpt>
      <trkpt lat="44.41161" lon="3.63658">
        <ele>1196.02</ele>
        <time>2023-05-06T14:06:07Z</time>
      </trkpt>
      <trkpt lat="44.41162" lon="3.63658">
        <ele>1196.5</ele>
        <time>2023-05-06T14:06:08Z</time>
      </trkpt>
      <trkpt lat="44.41165" lon="3.63657">
        <ele>1196.98</ele>
        <time>2023-05-06T14:06:11Z</time>
      </trkpt>
      <trkpt lat="44.41169" lon="3.63654">
        <ele>1197.94</ele>
        <time>2023-05-06T14:06:16Z</time>
      </trkpt>
      <trkpt lat="44.41176" lon="3.63644">
        <ele>1198.42</ele>
        <time>2023-05-06T14:06:26Z</time>
      </trkpt>
      <trkpt lat="44.4118" lon="3.63637">
        <ele>1199.86</ele>
        <time>2023-05-06T14:06:34Z</time>
      </trkpt>
      <trkpt lat="44.41183" lon="3.63635">
        <ele>1200.34</ele>
        <time>2023-05-06T14:06:37Z</time>
      </trkpt>
      <trkpt lat="44.41188" lon="3.63627">
        <ele>1200.82</ele>
        <time>2023-05-06T14:06:48Z</time>
      </trkpt>
      <trkpt lat="44.4119" lon="3.63623">
        <ele>1201.3</ele>
        <time>2023-05-06T14:07:00Z</time>
      </trkpt>
      <trkpt lat="44.41194" lon="3.63618">
        <ele>1201.79</ele>
        <time>2023-05-06T14:07:13Z</time>
      </trkpt>
      <trkpt lat="44.41201" lon="3.63607">
        <ele>1203.71</ele>
        <time>2023-05-06T14:07:25Z</time>
      </trkpt>
      <trkpt lat="44.41202" lon="3.63604">
        <ele>1203.71</ele>
        <time>2023-05-06T14:07:41Z</time>
      </trkpt>
      <trkpt lat="44.41206" lon="3.63599">
        <ele>1206.11</ele>
        <time>2023-05-06T14:07:59Z</time>
      </trkpt>
      <trkpt lat="44.41213" lon="3.63589">
        <ele>1208.51</ele>
        <time>2023-05-06T14:08:09Z</time>
      </trkpt>
      <trkpt lat="44.41215" lon="3.63574">
        <ele>1208.03</ele>
        <time>2023-05-06T14:08:19Z</time>
      </trkpt>
      <trkpt lat="44.41217" lon="3.63555">
        <ele>1209.96</ele>
        <time>2023-05-06T14:08:33Z</time>
      </trkpt>
      <trkpt lat="44.41217" lon="3.63539">
        <ele>1212.36</ele>
        <time>2023-05-06T14:08:46Z</time>
      </trkpt>
      <trkpt lat="44.41217" lon="3.63529">
        <ele>1214.76</ele>
        <time>2023-05-06T14:08:56Z</time>
      </trkpt>
      <trkpt lat="44.41215" lon="3.63515">
        <ele>1216.69</ele>
        <time>2023-05-06T14:09:05Z</time>
      </trkpt>
      <trkpt lat="44.41216" lon="3.6351">
        <ele>1217.17</ele>
        <time>2023-05-06T14:09:18Z</time>
      </trkpt>
      <trkpt lat="44.41216" lon="3.63507">
        <ele>1215.72</ele>
        <time>2023-05-06T14:09:41Z</time>
      </trkpt>
      <trkpt lat="44.4121" lon="3.63497">
        <ele>1218.13</ele>
        <time>2023-05-06T14:10:00Z</time>
      </trkpt>
      <trkpt lat="44.41204" lon="3.63498">
        <ele>1220.53</ele>
        <time>2023-05-06T14:10:10Z</time>
      </trkpt>
      <trkpt lat="44.41202" lon="3.63497">
        <ele>1221.01</ele>
        <time>2023-05-06T14:10:33Z</time>
      </trkpt>
      <trkpt lat="44.41201" lon="3.63496">
        <ele>1220.05</ele>
        <time>2023-05-06T14:10:52Z</time>
      </trkpt>
      <trkpt lat="44.41202" lon="3.63496">
        <ele>1219.57</ele>
        <time>2023-05-06T14:11:14Z</time>
      </trkpt>
      <trkpt lat="44.41202" lon="3.63495">
        <ele>1219.09</ele>
        <time>2023-05-06T14:11:38Z</time>
      </trkpt>
      <trkpt lat="44.41202" lon="3.63496">
        <ele>1219.57</ele>
        <time>2023-05-06T14:11:55Z</time>
      </trkpt>
      <trkpt lat="44.41202" lon="3.63496">
        <ele>1220.05</ele>
        <time>2023-05-06T14:12:25Z</time>
      </trkpt>
      <trkpt lat="44.41203" lon="3.63496">
        <ele>1219.57</ele>
        <time>2023-05-06T14:12:54Z</time>
      </trkpt>
      <trkpt lat="44.41203" lon="3.63496">
        <ele>1219.57</ele>
        <time>2023-05-06T14:13:30Z</time>
      </trkpt>
      <trkpt lat="44.41203" lon="3.63495">
        <ele>1219.09</ele>
        <time>2023-05-06T14:14:00Z</time>
      </trkpt>
      <trkpt lat="44.41203" lon="3.63495">
        <ele>1219.57</ele>
        <time>2023-05-06T14:14:26Z</time>
      </trkpt>
      <trkpt lat="44.41203" lon="3.63496">
        <ele>1220.05</ele>
        <time>2023-05-06T14:14:58Z</time>
      </trkpt>
      <trkpt lat="44.41203" lon="3.63497">
        <ele>1220.53</ele>
        <time>2023-05-06T14:15:31Z</time>
      </trkpt>
      <trkpt lat="44.41203" lon="3.63497">
        <ele>1221.01</ele>
        <time>2023-05-06T14:16:03Z</time>
      </trkpt>
      <trkpt lat="44.41203" lon="3.63496">
        <ele>1220.53</ele>
        <time>2023-05-06T14:16:44Z</time>
      </trkpt>
      <trkpt lat="44.41203" lon="3.63496">
        <ele>1220.05</ele>
        <time>2023-05-06T14:17:15Z</time>
      </trkpt>
      <trkpt lat="44.41203" lon="3.63496">
        <ele>1219.57</ele>
        <time>2023-05-06T14:17:38Z</time>
      </trkpt>
      <trkpt lat="44.41203" lon="3.63496">
        <ele>1219.57</ele>
        <time>2023-05-06T14:18:03Z</time>
      </trkpt>
      <trkpt lat="44.41204" lon="3.63495">
        <ele>1219.57</ele>
        <time>2023-05-06T14:18:30Z</time>
      </trkpt>
      <trkpt lat="44.41203" lon="3.63496">
        <ele>1219.09</ele>
        <time>2023-05-06T14:18:51Z</time>
      </trkpt>
      <trkpt lat="44.41203" lon="3.63496">
        <ele>1218.61</ele>
        <time>2023-05-06T14:19:15Z</time>
      </trkpt>
      <trkpt lat="44.41203" lon="3.63496">
        <ele>1219.09</ele>
        <time>2023-05-06T14:19:38Z</time>
      </trkpt>
      <trkpt lat="44.41204" lon="3.63496">
        <ele>1219.57</ele>
        <time>2023-05-06T14:20:03Z</time>
      </trkpt>
      <trkpt lat="44.41204" lon="3.63496">
        <ele>1220.05</ele>
        <time>2023-05-06T14:20:27Z</time>
      </trkpt>
      <trkpt lat="44.41203" lon="3.63497">
        <ele>1220.05</ele>
        <time>2023-05-06T14:20:50Z</time>
      </trkpt>
      <trkpt lat="44.41203" lon="3.63495">
        <ele>1220.05</ele>
        <time>2023-05-06T14:21:04Z</time>
      </trkpt>
      <trkpt lat="44.41206" lon="3.63495">
        <ele>1220.05</ele>
        <time>2023-05-06T14:21:26Z</time>
      </trkpt>
      <trkpt lat="44.41207" lon="3.63489">
        <ele>1220.53</ele>
        <time>2023-05-06T14:21:43Z</time>
      </trkpt>
      <trkpt lat="44.41216" lon="3.63462">
        <ele>1220.53</ele>
        <time>2023-05-06T14:22:02Z</time>
      </trkpt>
      <trkpt lat="44.41218" lon="3.63459">
        <ele>1220.53</ele>
        <time>2023-05-06T14:22:04Z</time>
      </trkpt>
      <trkpt lat="44.41234" lon="3.63436">
        <ele>1220.53</ele>
        <time>2023-05-06T14:22:22Z</time>
      </trkpt>
      <trkpt lat="44.41238" lon="3.63412">
        <ele>1220.53</ele>
        <time>2023-05-06T14:22:44Z</time>
      </trkpt>
      <trkpt lat="44.41233" lon="3.63394">
        <ele>1225.82</ele>
        <time>2023-05-06T14:22:56Z</time>
      </trkpt>
      <trkpt lat="44.41231" lon="3.63378">
        <ele>1227.74</ele>
        <time>2023-05-06T14:23:08Z</time>
      </trkpt>
      <trkpt lat="44.41231" lon="3.6337">
        <ele>1228.7</ele>
        <time>2023-05-06T14:23:21Z</time>
      </trkpt>
      <trkpt lat="44.41231" lon="3.6337">
        <ele>1228.7</ele>
        <time>2023-05-06T14:23:43Z</time>
      </trkpt>
      <trkpt lat="44.41231" lon="3.6337">
        <ele>1228.7</ele>
        <time>2023-05-06T14:23:47Z</time>
      </trkpt>
      <trkpt lat="44.4123" lon="3.63367">
        <ele>1228.7</ele>
        <time>2023-05-06T14:23:50Z</time>
      </trkpt>
      <trkpt lat="44.41231" lon="3.63354">
        <ele>1229.18</ele>
        <time>2023-05-06T14:24:04Z</time>
      </trkpt>
      <trkpt lat="44.41227" lon="3.63336">
        <ele>1231.11</ele>
        <time>2023-05-06T14:24:19Z</time>
      </trkpt>
      <trkpt lat="44.41224" lon="3.63316">
        <ele>1233.99</ele>
        <time>2023-05-06T14:24:36Z</time>
      </trkpt>
      <trkpt lat="44.41223" lon="3.63313">
        <ele>1233.51</ele>
        <time>2023-05-06T14:24:58Z</time>
      </trkpt>
      <trkpt lat="44.41226" lon="3.63306">
        <ele>1233.99</ele>
        <time>2023-05-06T14:25:12Z</time>
      </trkpt>
      <trkpt lat="44.41225" lon="3.63304">
        <ele>1233.99</ele>
        <time>2023-05-06T14:25:25Z</time>
      </trkpt>
      <trkpt lat="44.4122" lon="3.63293">
        <ele>1234.95</ele>
        <time>2023-05-06T14:25:34Z</time>
      </trkpt>
      <trkpt lat="44.41217" lon="3.63273">
        <ele>1235.91</ele>
        <time>2023-05-06T14:25:52Z</time>
      </trkpt>
      <trkpt lat="44.41208" lon="3.63243">
        <ele>1237.35</ele>
        <time>2023-05-06T14:26:14Z</time>
      </trkpt>
      <trkpt lat="44.41201" lon="3.63214">
        <ele>1238.32</ele>
        <time>2023-05-06T14:26:33Z</time>
      </trkpt>
      <trkpt lat="44.41198" lon="3.63187">
        <ele>1239.76</ele>
        <time>2023-05-06T14:26:51Z</time>
      </trkpt>
      <trkpt lat="44.41193" lon="3.63158">
        <ele>1241.2</ele>
        <time>2023-05-06T14:27:09Z</time>
      </trkpt>
      <trkpt lat="44.4118" lon="3.6314">
        <ele>1241.2</ele>
        <time>2023-05-06T14:27:24Z</time>
      </trkpt>
      <trkpt lat="44.41177" lon="3.6314">
        <ele>1241.2</ele>
        <time>2023-05-06T14:27:27Z</time>
      </trkpt>
      <trkpt lat="44.41159" lon="3.63162">
        <ele>1240.24</ele>
        <time>2023-05-06T14:27:46Z</time>
      </trkpt>
      <trkpt lat="44.41143" lon="3.63186">
        <ele>1241.2</ele>
        <time>2023-05-06T14:28:07Z</time>
      </trkpt>
      <trkpt lat="44.41121" lon="3.63205">
        <ele>1241.68</ele>
        <time>2023-05-06T14:28:27Z</time>
      </trkpt>
      <trkpt lat="44.41093" lon="3.63212">
        <ele>1241.2</ele>
        <time>2023-05-06T14:28:48Z</time>
      </trkpt>
      <trkpt lat="44.4106" lon="3.63227">
        <ele>1239.76</ele>
        <time>2023-05-06T14:29:13Z</time>
      </trkpt>
      <trkpt lat="44.41032" lon="3.63231">
        <ele>1238.8</ele>
        <time>2023-05-06T14:29:34Z</time>
      </trkpt>
      <trkpt lat="44.41006" lon="3.63233">
        <ele>1236.39</ele>
        <time>2023-05-06T14:29:58Z</time>
      </trkpt>
      <trkpt lat="44.40987" lon="3.63231">
        <ele>1234.95</ele>
        <time>2023-05-06T14:30:15Z</time>
      </trkpt>
      <trkpt lat="44.40965" lon="3.63229">
        <ele>1233.51</ele>
        <time>2023-05-06T14:30:33Z</time>
      </trkpt>
      <trkpt lat="44.40947" lon="3.63229">
        <ele>1233.03</ele>
        <time>2023-05-06T14:30:50Z</time>
      </trkpt>
      <trkpt lat="44.40926" lon="3.63229">
        <ele>1233.03</ele>
        <time>2023-05-06T14:31:10Z</time>
      </trkpt>
      <trkpt lat="44.40923" lon="3.63228">
        <ele>1233.03</ele>
        <time>2023-05-06T14:31:26Z</time>
      </trkpt>
      <trkpt lat="44.40903" lon="3.63228">
        <ele>1232.55</ele>
        <time>2023-05-06T14:31:46Z</time>
      </trkpt>
      <trkpt lat="44.40891" lon="3.63231">
        <ele>1233.03</ele>
        <time>2023-05-06T14:32:01Z</time>
      </trkpt>
      <trkpt lat="44.40865" lon="3.63237">
        <ele>1232.55</ele>
        <time>2023-05-06T14:32:19Z</time>
      </trkpt>
      <trkpt lat="44.40839" lon="3.63249">
        <ele>1232.55</ele>
        <time>2023-05-06T14:32:40Z</time>
      </trkpt>
      <trkpt lat="44.40832" lon="3.63252">
        <ele>1232.07</ele>
        <time>2023-05-06T14:32:45Z</time>
      </trkpt>
      <trkpt lat="44.40813" lon="3.63257">
        <ele>1230.14</ele>
        <time>2023-05-06T14:32:58Z</time>
      </trkpt>
      <trkpt lat="44.40799" lon="3.63261">
        <ele>1231.11</ele>
        <time>2023-05-06T14:33:09Z</time>
      </trkpt>
      <trkpt lat="44.40788" lon="3.63265">
        <ele>1231.59</ele>
        <time>2023-05-06T14:33:18Z</time>
      </trkpt>
      <trkpt lat="44.40775" lon="3.63268">
        <ele>1231.11</ele>
        <time>2023-05-06T14:33:27Z</time>
      </trkpt>
      <trkpt lat="44.40762" lon="3.63269">
        <ele>1231.59</ele>
        <time>2023-05-06T14:33:37Z</time>
      </trkpt>
      <trkpt lat="44.4075" lon="3.63273">
        <ele>1231.59</ele>
        <time>2023-05-06T14:33:47Z</time>
      </trkpt>
      <trkpt lat="44.40737" lon="3.63277">
        <ele>1233.03</ele>
        <time>2023-05-06T14:33:57Z</time>
      </trkpt>
      <trkpt lat="44.40725" lon="3.6328">
        <ele>1233.99</ele>
        <time>2023-05-06T14:34:07Z</time>
      </trkpt>
      <trkpt lat="44.4071" lon="3.63286">
        <ele>1230.62</ele>
        <time>2023-05-06T14:34:20Z</time>
      </trkpt>
      <trkpt lat="44.40695" lon="3.6329">
        <ele>1225.82</ele>
        <time>2023-05-06T14:34:36Z</time>
      </trkpt>
      <trkpt lat="44.40662" lon="3.63303">
        <ele>1221.97</ele>
        <time>2023-05-06T14:35:01Z</time>
      </trkpt>
      <trkpt lat="44.40629" lon="3.6331">
        <ele>1226.3</ele>
        <time>2023-05-06T14:35:26Z</time>
      </trkpt>
      <trkpt lat="44.40599" lon="3.6331">
        <ele>1229.66</ele>
        <time>2023-05-06T14:35:50Z</time>
      </trkpt>
      <trkpt lat="44.40572" lon="3.6331">
        <ele>1233.03</ele>
        <time>2023-05-06T14:36:12Z</time>
      </trkpt>
      <trkpt lat="44.40547" lon="3.63314">
        <ele>1235.91</ele>
        <time>2023-05-06T14:36:36Z</time>
      </trkpt>
      <trkpt lat="44.40541" lon="3.63318">
        <ele>1236.87</ele>
        <time>2023-05-06T14:36:55Z</time>
      </trkpt>
      <trkpt lat="44.40537" lon="3.63311">
        <ele>1237.35</ele>
        <time>2023-05-06T14:37:18Z</time>
      </trkpt>
      <trkpt lat="44.40529" lon="3.63319">
        <ele>1235.91</ele>
        <time>2023-05-06T14:37:39Z</time>
      </trkpt>
      <trkpt lat="44.40521" lon="3.63322">
        <ele>1236.87</ele>
        <time>2023-05-06T14:37:57Z</time>
      </trkpt>
      <trkpt lat="44.40497" lon="3.63321">
        <ele>1238.8</ele>
        <time>2023-05-06T14:38:18Z</time>
      </trkpt>
      <trkpt lat="44.40492" lon="3.63323">
        <ele>1238.8</ele>
        <time>2023-05-06T14:38:23Z</time>
      </trkpt>
      <trkpt lat="44.40467" lon="3.63327">
        <ele>1241.2</ele>
        <time>2023-05-06T14:38:46Z</time>
      </trkpt>
      <trkpt lat="44.40438" lon="3.63335">
        <ele>1242.16</ele>
        <time>2023-05-06T14:39:10Z</time>
      </trkpt>
      <trkpt lat="44.40411" lon="3.63354">
        <ele>1239.28</ele>
        <time>2023-05-06T14:39:31Z</time>
      </trkpt>
      <trkpt lat="44.40384" lon="3.63372">
        <ele>1237.83</ele>
        <time>2023-05-06T14:39:54Z</time>
      </trkpt>
      <trkpt lat="44.40354" lon="3.63382">
        <ele>1233.99</ele>
        <time>2023-05-06T14:40:19Z</time>
      </trkpt>
      <trkpt lat="44.40328" lon="3.63379">
        <ele>1232.07</ele>
        <time>2023-05-06T14:40:41Z</time>
      </trkpt>
      <trkpt lat="44.40316" lon="3.63373">
        <ele>1232.07</ele>
        <time>2023-05-06T14:40:52Z</time>
      </trkpt>
      <trkpt lat="44.4031" lon="3.63367">
        <ele>1232.55</ele>
        <time>2023-05-06T14:40:57Z</time>
      </trkpt>
      <trkpt lat="44.40281" lon="3.63354">
        <ele>1233.03</ele>
        <time>2023-05-06T14:41:23Z</time>
      </trkpt>
      <trkpt lat="44.40268" lon="3.63351">
        <ele>1232.07</ele>
        <time>2023-05-06T14:41:33Z</time>
      </trkpt>
      <trkpt lat="44.40259" lon="3.63348">
        <ele>1231.11</ele>
        <time>2023-05-06T14:41:41Z</time>
      </trkpt>
      <trkpt lat="44.40246" lon="3.63346">
        <ele>1231.11</ele>
        <time>2023-05-06T14:41:51Z</time>
      </trkpt>
      <trkpt lat="44.4023" lon="3.63344">
        <ele>1230.14</ele>
        <time>2023-05-06T14:42:03Z</time>
      </trkpt>
      <trkpt lat="44.40215" lon="3.63341">
        <ele>1227.74</ele>
        <time>2023-05-06T14:42:13Z</time>
      </trkpt>
      <trkpt lat="44.40211" lon="3.63339">
        <ele>1226.3</ele>
        <time>2023-05-06T14:42:23Z</time>
      </trkpt>
      <trkpt lat="44.40197" lon="3.63338">
        <ele>1226.3</ele>
        <time>2023-05-06T14:42:32Z</time>
      </trkpt>
      <trkpt lat="44.40183" lon="3.63338">
        <ele>1227.74</ele>
        <time>2023-05-06T14:42:41Z</time>
      </trkpt>
      <trkpt lat="44.4017" lon="3.63337">
        <ele>1228.22</ele>
        <time>2023-05-06T14:42:50Z</time>
      </trkpt>
      <trkpt lat="44.40159" lon="3.63338">
        <ele>1227.26</ele>
        <time>2023-05-06T14:43:00Z</time>
      </trkpt>
      <trkpt lat="44.40144" lon="3.63337">
        <ele>1226.3</ele>
        <time>2023-05-06T14:43:10Z</time>
      </trkpt>
      <trkpt lat="44.40133" lon="3.63339">
        <ele>1224.38</ele>
        <time>2023-05-06T14:43:19Z</time>
      </trkpt>
      <trkpt lat="44.4012" lon="3.6334">
        <ele>1222.45</ele>
        <time>2023-05-06T14:43:29Z</time>
      </trkpt>
      <trkpt lat="44.40119" lon="3.6334">
        <ele>1222.45</ele>
        <time>2023-05-06T14:43:30Z</time>
      </trkpt>
      <trkpt lat="44.4011" lon="3.63342">
        <ele>1221.01</ele>
        <time>2023-05-06T14:43:37Z</time>
      </trkpt>
      <trkpt lat="44.40101" lon="3.63344">
        <ele>1218.61</ele>
        <time>2023-05-06T14:43:43Z</time>
      </trkpt>
      <trkpt lat="44.40093" lon="3.63351">
        <ele>1216.69</ele>
        <time>2023-05-06T14:43:54Z</time>
      </trkpt>
      <trkpt lat="44.40085" lon="3.63361">
        <ele>1213.32</ele>
        <time>2023-05-06T14:44:03Z</time>
      </trkpt>
      <trkpt lat="44.40082" lon="3.63365">
        <ele>1212.84</ele>
        <time>2023-05-06T14:44:08Z</time>
      </trkpt>
      <trkpt lat="44.4008" lon="3.63369">
        <ele>1213.8</ele>
        <time>2023-05-06T14:44:11Z</time>
      </trkpt>
      <trkpt lat="44.40074" lon="3.63382">
        <ele>1212.84</ele>
        <time>2023-05-06T14:44:19Z</time>
      </trkpt>
      <trkpt lat="44.40071" lon="3.63385">
        <ele>1211.88</ele>
        <time>2023-05-06T14:44:22Z</time>
      </trkpt>
      <trkpt lat="44.40065" lon="3.63398">
        <ele>1210.92</ele>
        <time>2023-05-06T14:44:31Z</time>
      </trkpt>
      <trkpt lat="44.40061" lon="3.634">
        <ele>1210.92</ele>
        <time>2023-05-06T14:44:34Z</time>
      </trkpt>
      <trkpt lat="44.40058" lon="3.63402">
        <ele>1210.92</ele>
        <time>2023-05-06T14:44:38Z</time>
      </trkpt>
      <trkpt lat="44.40057" lon="3.63407">
        <ele>1211.4</ele>
        <time>2023-05-06T14:44:51Z</time>
      </trkpt>
      <trkpt lat="44.40055" lon="3.63408">
        <ele>1211.4</ele>
        <time>2023-05-06T14:45:03Z</time>
      </trkpt>
      <trkpt lat="44.40053" lon="3.63409">
        <ele>1211.4</ele>
        <time>2023-05-06T14:45:05Z</time>
      </trkpt>
      <trkpt lat="44.4004" lon="3.63413">
        <ele>1209.96</ele>
        <time>2023-05-06T14:45:14Z</time>
      </trkpt>
      <trkpt lat="44.40025" lon="3.63416">
        <ele>1207.55</ele>
        <time>2023-05-06T14:45:26Z</time>
      </trkpt>
      <trkpt lat="44.40003" lon="3.63407">
        <ele>1205.63</ele>
        <time>2023-05-06T14:45:43Z</time>
      </trkpt>
      <trkpt lat="44.39985" lon="3.63396">
        <ele>1206.11</ele>
        <time>2023-05-06T14:45:57Z</time>
      </trkpt>
      <trkpt lat="44.39974" lon="3.63389">
        <ele>1206.11</ele>
        <time>2023-05-06T14:46:07Z</time>
      </trkpt>
      <trkpt lat="44.39963" lon="3.63382">
        <ele>1205.63</ele>
        <time>2023-05-06T14:46:17Z</time>
      </trkpt>
      <trkpt lat="44.39952" lon="3.63373">
        <ele>1205.15</ele>
        <time>2023-05-06T14:46:26Z</time>
      </trkpt>
      <trkpt lat="44.39936" lon="3.63363">
        <ele>1202.75</ele>
        <time>2023-05-06T14:46:38Z</time>
      </trkpt>
      <trkpt lat="44.39925" lon="3.63359">
        <ele>1200.82</ele>
        <time>2023-05-06T14:46:47Z</time>
      </trkpt>
      <trkpt lat="44.39916" lon="3.63352">
        <ele>1199.86</ele>
        <time>2023-05-06T14:46:55Z</time>
      </trkpt>
      <trkpt lat="44.39915" lon="3.63352">
        <ele>1199.86</ele>
        <time>2023-05-06T14:46:56Z</time>
      </trkpt>
      <trkpt lat="44.39899" lon="3.6335">
        <ele>1197.46</ele>
        <time>2023-05-06T14:47:10Z</time>
      </trkpt>
      <trkpt lat="44.39886" lon="3.63345">
        <ele>1194.58</ele>
        <time>2023-05-06T14:47:19Z</time>
      </trkpt>
      <trkpt lat="44.39872" lon="3.63342">
        <ele>1191.69</ele>
        <time>2023-05-06T14:47:29Z</time>
      </trkpt>
      <trkpt lat="44.39862" lon="3.63338">
        <ele>1189.77</ele>
        <time>2023-05-06T14:47:38Z</time>
      </trkpt>
      <trkpt lat="44.39851" lon="3.63333">
        <ele>1187.85</ele>
        <time>2023-05-06T14:47:47Z</time>
      </trkpt>
      <trkpt lat="44.39839" lon="3.63333">
        <ele>1186.88</ele>
        <time>2023-05-06T14:47:56Z</time>
      </trkpt>
      <trkpt lat="44.39828" lon="3.63331">
        <ele>1186.88</ele>
        <time>2023-05-06T14:48:04Z</time>
      </trkpt>
      <trkpt lat="44.39817" lon="3.63331">
        <ele>1186.88</ele>
        <time>2023-05-06T14:48:12Z</time>
      </trkpt>
      <trkpt lat="44.39816" lon="3.63331">
        <ele>1186.4</ele>
        <time>2023-05-06T14:48:14Z</time>
      </trkpt>
      <trkpt lat="44.39806" lon="3.63331">
        <ele>1184.96</ele>
        <time>2023-05-06T14:48:23Z</time>
      </trkpt>
      <trkpt lat="44.39792" lon="3.63329">
        <ele>1183.04</ele>
        <time>2023-05-06T14:48:32Z</time>
      </trkpt>
      <trkpt lat="44.39776" lon="3.63327">
        <ele>1181.6</ele>
        <time>2023-05-06T14:48:43Z</time>
      </trkpt>
      <trkpt lat="44.39766" lon="3.63326">
        <ele>1180.16</ele>
        <time>2023-05-06T14:48:52Z</time>
      </trkpt>
      <trkpt lat="44.39764" lon="3.63326">
        <ele>1180.16</ele>
        <time>2023-05-06T14:48:53Z</time>
      </trkpt>
      <trkpt lat="44.3975" lon="3.63327">
        <ele>1178.71</ele>
        <time>2023-05-06T14:49:02Z</time>
      </trkpt>
      <trkpt lat="44.39741" lon="3.63326">
        <ele>1178.71</ele>
        <time>2023-05-06T14:49:11Z</time>
      </trkpt>
      <trkpt lat="44.39733" lon="3.63326">
        <ele>1177.75</ele>
        <time>2023-05-06T14:49:25Z</time>
      </trkpt>
      <trkpt lat="44.39714" lon="3.6332">
        <ele>1175.83</ele>
        <time>2023-05-06T14:49:40Z</time>
      </trkpt>
      <trkpt lat="44.39705" lon="3.63318">
        <ele>1175.83</ele>
        <time>2023-05-06T14:49:47Z</time>
      </trkpt>
      <trkpt lat="44.39696" lon="3.63313">
        <ele>1174.87</ele>
        <time>2023-05-06T14:49:55Z</time>
      </trkpt>
      <trkpt lat="44.39677" lon="3.63303">
        <ele>1172.47</ele>
        <time>2023-05-06T14:50:08Z</time>
      </trkpt>
      <trkpt lat="44.39661" lon="3.63297">
        <ele>1170.06</ele>
        <time>2023-05-06T14:50:19Z</time>
      </trkpt>
      <trkpt lat="44.39648" lon="3.63293">
        <ele>1171.02</ele>
        <time>2023-05-06T14:50:29Z</time>
      </trkpt>
      <trkpt lat="44.39635" lon="3.63288">
        <ele>1169.58</ele>
        <time>2023-05-06T14:50:40Z</time>
      </trkpt>
      <trkpt lat="44.39623" lon="3.63283">
        <ele>1167.18</ele>
        <time>2023-05-06T14:50:50Z</time>
      </trkpt>
      <trkpt lat="44.39607" lon="3.6328">
        <ele>1165.26</ele>
        <time>2023-05-06T14:51:00Z</time>
      </trkpt>
      <trkpt lat="44.39595" lon="3.6328">
        <ele>1164.77</ele>
        <time>2023-05-06T14:51:09Z</time>
      </trkpt>
      <trkpt lat="44.3958" lon="3.63274">
        <ele>1164.77</ele>
        <time>2023-05-06T14:51:19Z</time>
      </trkpt>
      <trkpt lat="44.39568" lon="3.63273">
        <ele>1163.81</ele>
        <time>2023-05-06T14:51:29Z</time>
      </trkpt>
      <trkpt lat="44.39557" lon="3.63272">
        <ele>1162.85</ele>
        <time>2023-05-06T14:51:39Z</time>
      </trkpt>
      <trkpt lat="44.39548" lon="3.6327">
        <ele>1161.41</ele>
        <time>2023-05-06T14:51:46Z</time>
      </trkpt>
      <trkpt lat="44.39536" lon="3.63267">
        <ele>1160.93</ele>
        <time>2023-05-06T14:51:53Z</time>
      </trkpt>
      <trkpt lat="44.39525" lon="3.63265">
        <ele>1160.93</ele>
        <time>2023-05-06T14:52:02Z</time>
      </trkpt>
      <trkpt lat="44.39516" lon="3.63262">
        <ele>1159.01</ele>
        <time>2023-05-06T14:52:11Z</time>
      </trkpt>
      <trkpt lat="44.39503" lon="3.63257">
        <ele>1158.05</ele>
        <time>2023-05-06T14:52:20Z</time>
      </trkpt>
      <trkpt lat="44.39489" lon="3.63253">
        <ele>1157.08</ele>
        <time>2023-05-06T14:52:30Z</time>
      </trkpt>
      <trkpt lat="44.39477" lon="3.63251">
        <ele>1157.08</ele>
        <time>2023-05-06T14:52:38Z</time>
      </trkpt>
      <trkpt lat="44.39466" lon="3.63247">
        <ele>1154.68</ele>
        <time>2023-05-06T14:52:46Z</time>
      </trkpt>
      <trkpt lat="44.39455" lon="3.63242">
        <ele>1153.24</ele>
        <time>2023-05-06T14:52:56Z</time>
      </trkpt>
      <trkpt lat="44.39445" lon="3.63237">
        <ele>1150.84</ele>
        <time>2023-05-06T14:53:05Z</time>
      </trkpt>
      <trkpt lat="44.39435" lon="3.63234">
        <ele>1150.84</ele>
        <time>2023-05-06T14:53:13Z</time>
      </trkpt>
      <trkpt lat="44.39421" lon="3.6323">
        <ele>1149.87</ele>
        <time>2023-05-06T14:53:22Z</time>
      </trkpt>
      <trkpt lat="44.39408" lon="3.63228">
        <ele>1147.47</ele>
        <time>2023-05-06T14:53:32Z</time>
      </trkpt>
      <trkpt lat="44.39394" lon="3.63226">
        <ele>1145.07</ele>
        <time>2023-05-06T14:53:41Z</time>
      </trkpt>
      <trkpt lat="44.39382" lon="3.63225">
        <ele>1144.11</ele>
        <time>2023-05-06T14:53:51Z</time>
      </trkpt>
      <trkpt lat="44.39369" lon="3.63222">
        <ele>1143.14</ele>
        <time>2023-05-06T14:54:03Z</time>
      </trkpt>
      <trkpt lat="44.39359" lon="3.6322">
        <ele>1143.14</ele>
        <time>2023-05-06T14:54:11Z</time>
      </trkpt>
      <trkpt lat="44.3935" lon="3.63217">
        <ele>1143.14</ele>
        <time>2023-05-06T14:54:18Z</time>
      </trkpt>
      <trkpt lat="44.39349" lon="3.63217">
        <ele>1143.14</ele>
        <time>2023-05-06T14:54:19Z</time>
      </trkpt>
      <trkpt lat="44.3934" lon="3.63217">
        <ele>1142.18</ele>
        <time>2023-05-06T14:54:28Z</time>
      </trkpt>
      <trkpt lat="44.39331" lon="3.63219">
        <ele>1141.7</ele>
        <time>2023-05-06T14:54:35Z</time>
      </trkpt>
      <trkpt lat="44.39326" lon="3.63219">
        <ele>1141.22</ele>
        <time>2023-05-06T14:54:41Z</time>
      </trkpt>
      <trkpt lat="44.39309" lon="3.63219">
        <ele>1137.38</ele>
        <time>2023-05-06T14:54:54Z</time>
      </trkpt>
      <trkpt lat="44.39306" lon="3.6322">
        <ele>1136.9</ele>
        <time>2023-05-06T14:54:56Z</time>
      </trkpt>
      <trkpt lat="44.39304" lon="3.63219">
        <ele>1135.94</ele>
        <time>2023-05-06T14:54:59Z</time>
      </trkpt>
      <trkpt lat="44.39294" lon="3.63222">
        <ele>1132.09</ele>
        <time>2023-05-06T14:55:08Z</time>
      </trkpt>
      <trkpt lat="44.39285" lon="3.63227">
        <ele>1127.28</ele>
        <time>2023-05-06T14:55:16Z</time>
      </trkpt>
      <trkpt lat="44.39282" lon="3.63231">
        <ele>1125.36</ele>
        <time>2023-05-06T14:55:21Z</time>
      </trkpt>
      <trkpt lat="44.39277" lon="3.63238">
        <ele>1123.92</ele>
        <time>2023-05-06T14:55:32Z</time>
      </trkpt>
      <trkpt lat="44.39277" lon="3.63238">
        <ele>1123.92</ele>
        <time>2023-05-06T14:55:33Z</time>
      </trkpt>
      <trkpt lat="44.39272" lon="3.63243">
        <ele>1122.96</ele>
        <time>2023-05-06T14:55:38Z</time>
      </trkpt>
      <trkpt lat="44.39271" lon="3.63246">
        <ele>1122.96</ele>
        <time>2023-05-06T14:55:45Z</time>
      </trkpt>
      <trkpt lat="44.39268" lon="3.6325">
        <ele>1122.48</ele>
        <time>2023-05-06T14:55:56Z</time>
      </trkpt>
      <trkpt lat="44.39268" lon="3.63251">
        <ele>1122.48</ele>
        <time>2023-05-06T14:55:57Z</time>
      </trkpt>
      <trkpt lat="44.39257" lon="3.63265">
        <ele>1121.03</ele>
        <time>2023-05-06T14:56:07Z</time>
      </trkpt>
      <trkpt lat="44.3925" lon="3.6328">
        <ele>1118.63</ele>
        <time>2023-05-06T14:56:18Z</time>
      </trkpt>
      <trkpt lat="44.39244" lon="3.63297">
        <ele>1115.75</ele>
        <time>2023-05-06T14:56:30Z</time>
      </trkpt>
      <trkpt lat="44.39238" lon="3.63319">
        <ele>1110.94</ele>
        <time>2023-05-06T14:56:42Z</time>
      </trkpt>
      <trkpt lat="44.39234" lon="3.63333">
        <ele>1109.02</ele>
        <time>2023-05-06T14:56:52Z</time>
      </trkpt>
      <trkpt lat="44.39229" lon="3.63352">
        <ele>1107.1</ele>
        <time>2023-05-06T14:57:03Z</time>
      </trkpt>
      <trkpt lat="44.39224" lon="3.63365">
        <ele>1106.13</ele>
        <time>2023-05-06T14:57:13Z</time>
      </trkpt>
      <trkpt lat="44.39216" lon="3.63377">
        <ele>1105.17</ele>
        <time>2023-05-06T14:57:23Z</time>
      </trkpt>
      <trkpt lat="44.39209" lon="3.63386">
        <ele>1103.25</ele>
        <time>2023-05-06T14:57:32Z</time>
      </trkpt>
      <trkpt lat="44.39195" lon="3.63393">
        <ele>1098.44</ele>
        <time>2023-05-06T14:57:43Z</time>
      </trkpt>
      <trkpt lat="44.39189" lon="3.63393">
        <ele>1097.48</ele>
        <time>2023-05-06T14:57:48Z</time>
      </trkpt>
      <trkpt lat="44.39176" lon="3.634">
        <ele>1095.56</ele>
        <time>2023-05-06T14:57:59Z</time>
      </trkpt>
      <trkpt lat="44.39167" lon="3.63412">
        <ele>1092.2</ele>
        <time>2023-05-06T14:58:10Z</time>
      </trkpt>
      <trkpt lat="44.39153" lon="3.63417">
        <ele>1089.31</ele>
        <time>2023-05-06T14:58:21Z</time>
      </trkpt>
      <trkpt lat="44.3914" lon="3.63422">
        <ele>1085.95</ele>
        <time>2023-05-06T14:58:31Z</time>
      </trkpt>
      <trkpt lat="44.39139" lon="3.63423">
        <ele>1085.47</ele>
        <time>2023-05-06T14:58:33Z</time>
      </trkpt>
      <trkpt lat="44.39136" lon="3.63423">
        <ele>1083.54</ele>
        <time>2023-05-06T14:58:37Z</time>
      </trkpt>
      <trkpt lat="44.39124" lon="3.63432">
        <ele>1078.74</ele>
        <time>2023-05-06T14:58:50Z</time>
      </trkpt>
      <trkpt lat="44.39116" lon="3.63438">
        <ele>1077.78</ele>
        <time>2023-05-06T14:58:59Z</time>
      </trkpt>
      <trkpt lat="44.39109" lon="3.63441">
        <ele>1076.33</ele>
        <time>2023-05-06T14:59:09Z</time>
      </trkpt>
      <trkpt lat="44.39098" lon="3.6345">
        <ele>1073.45</ele>
        <time>2023-05-06T14:59:20Z</time>
      </trkpt>
      <trkpt lat="44.39091" lon="3.63457">
        <ele>1072.01</ele>
        <time>2023-05-06T14:59:28Z</time>
      </trkpt>
      <trkpt lat="44.39084" lon="3.63461">
        <ele>1066.72</ele>
        <time>2023-05-06T14:59:32Z</time>
      </trkpt>
      <trkpt lat="44.39068" lon="3.6347">
        <ele>1060.47</ele>
        <time>2023-05-06T14:59:42Z</time>
      </trkpt>
      <trkpt lat="44.3906" lon="3.63476">
        <ele>1059.51</ele>
        <time>2023-05-06T14:59:51Z</time>
      </trkpt>
      <trkpt lat="44.39048" lon="3.63483">
        <ele>1051.82</ele>
        <time>2023-05-06T15:00:00Z</time>
      </trkpt>
      <trkpt lat="44.39035" lon="3.63493">
        <ele>1044.61</ele>
        <time>2023-05-06T15:00:13Z</time>
      </trkpt>
      <trkpt lat="44.3902" lon="3.63505">
        <ele>1052.78</ele>
        <time>2023-05-06T15:00:27Z</time>
      </trkpt>
      <trkpt lat="44.3901" lon="3.63513">
        <ele>1054.22</ele>
        <time>2023-05-06T15:00:37Z</time>
      </trkpt>
      <trkpt lat="44.38999" lon="3.63521">
        <ele>1054.22</ele>
        <time>2023-05-06T15:00:46Z</time>
      </trkpt>
      <trkpt lat="44.38988" lon="3.63533">
        <ele>1054.22</ele>
        <time>2023-05-06T15:00:56Z</time>
      </trkpt>
      <trkpt lat="44.38982" lon="3.63541">
        <ele>1052.3</ele>
        <time>2023-05-06T15:01:04Z</time>
      </trkpt>
      <trkpt lat="44.38978" lon="3.63538">
        <ele>1051.34</ele>
        <time>2023-05-06T15:01:12Z</time>
      </trkpt>
      <trkpt lat="44.38978" lon="3.63535">
        <ele>1052.78</ele>
        <time>2023-05-06T15:01:20Z</time>
      </trkpt>
      <trkpt lat="44.3898" lon="3.63541">
        <ele>1054.22</ele>
        <time>2023-05-06T15:01:34Z</time>
      </trkpt>
      <trkpt lat="44.38981" lon="3.6354">
        <ele>1054.7</ele>
        <time>2023-05-06T15:01:47Z</time>
      </trkpt>
      <trkpt lat="44.3898" lon="3.63538">
        <ele>1055.18</ele>
        <time>2023-05-06T15:01:50Z</time>
      </trkpt>
      <trkpt lat="44.38977" lon="3.63535">
        <ele>1054.7</ele>
        <time>2023-05-06T15:02:02Z</time>
      </trkpt>
      <trkpt lat="44.38976" lon="3.63532">
        <ele>1055.67</ele>
        <time>2023-05-06T15:02:07Z</time>
      </trkpt>
      <trkpt lat="44.38971" lon="3.63516">
        <ele>1057.59</ele>
        <time>2023-05-06T15:02:20Z</time>
      </trkpt>
      <trkpt lat="44.38971" lon="3.63505">
        <ele>1058.07</ele>
        <time>2023-05-06T15:02:30Z</time>
      </trkpt>
      <trkpt lat="44.38968" lon="3.63498">
        <ele>1056.63</ele>
        <time>2023-05-06T15:02:39Z</time>
      </trkpt>
      <trkpt lat="44.38967" lon="3.63486">
        <ele>1054.7</ele>
        <time>2023-05-06T15:02:47Z</time>
      </trkpt>
      <trkpt lat="44.38966" lon="3.63466">
        <ele>1051.82</ele>
        <time>2023-05-06T15:02:59Z</time>
      </trkpt>
      <trkpt lat="44.38966" lon="3.63449">
        <ele>1049.42</ele>
        <time>2023-05-06T15:03:09Z</time>
      </trkpt>
      <trkpt lat="44.38969" lon="3.63433">
        <ele>1047.49</ele>
        <time>2023-05-06T15:03:19Z</time>
      </trkpt>
      <trkpt lat="44.38971" lon="3.63418">
        <ele>1045.57</ele>
        <time>2023-05-06T15:03:29Z</time>
      </trkpt>
      <trkpt lat="44.38976" lon="3.63403">
        <ele>1045.09</ele>
        <time>2023-05-06T15:03:39Z</time>
      </trkpt>
      <trkpt lat="44.38982" lon="3.63386">
        <ele>1045.09</ele>
        <time>2023-05-06T15:03:50Z</time>
      </trkpt>
      <trkpt lat="44.38991" lon="3.63367">
        <ele>1045.09</ele>
        <time>2023-05-06T15:04:01Z</time>
      </trkpt>
      <trkpt lat="44.38999" lon="3.63349">
        <ele>1045.57</ele>
        <time>2023-05-06T15:04:12Z</time>
      </trkpt>
      <trkpt lat="44.39006" lon="3.63334">
        <ele>1044.61</ele>
        <time>2023-05-06T15:04:22Z</time>
      </trkpt>
      <trkpt lat="44.39014" lon="3.63314">
        <ele>1044.61</ele>
        <time>2023-05-06T15:04:34Z</time>
      </trkpt>
      <trkpt lat="44.39022" lon="3.63297">
        <ele>1044.61</ele>
        <time>2023-05-06T15:04:45Z</time>
      </trkpt>
      <trkpt lat="44.39027" lon="3.63288">
        <ele>1045.09</ele>
        <time>2023-05-06T15:04:55Z</time>
      </trkpt>
      <trkpt lat="44.39032" lon="3.63275">
        <ele>1046.05</ele>
        <time>2023-05-06T15:05:06Z</time>
      </trkpt>
      <trkpt lat="44.39037" lon="3.63258">
        <ele>1047.01</ele>
        <time>2023-05-06T15:05:16Z</time>
      </trkpt>
      <trkpt lat="44.39042" lon="3.63241">
        <ele>1047.97</ele>
        <time>2023-05-06T15:05:26Z</time>
      </trkpt>
      <trkpt lat="44.39051" lon="3.63221">
        <ele>1047.49</ele>
        <time>2023-05-06T15:05:37Z</time>
      </trkpt>
      <trkpt lat="44.39056" lon="3.63202">
        <ele>1048.45</ele>
        <time>2023-05-06T15:05:47Z</time>
      </trkpt>
      <trkpt lat="44.39056" lon="3.632">
        <ele>1048.45</ele>
        <time>2023-05-06T15:05:49Z</time>
      </trkpt>
      <trkpt lat="44.39061" lon="3.63173">
        <ele>1049.9</ele>
        <time>2023-05-06T15:06:01Z</time>
      </trkpt>
      <trkpt lat="44.39058" lon="3.63169">
        <ele>1050.38</ele>
        <time>2023-05-06T15:06:05Z</time>
      </trkpt>
      <trkpt lat="44.39051" lon="3.63156">
        <ele>1049.9</ele>
        <time>2023-05-06T15:06:11Z</time>
      </trkpt>
      <trkpt lat="44.39046" lon="3.63135">
        <ele>1047.97</ele>
        <time>2023-05-06T15:06:23Z</time>
      </trkpt>
      <trkpt lat="44.39041" lon="3.6312">
        <ele>1045.09</ele>
        <time>2023-05-06T15:06:34Z</time>
      </trkpt>
      <trkpt lat="44.39039" lon="3.631">
        <ele>1042.21</ele>
        <time>2023-05-06T15:06:45Z</time>
      </trkpt>
      <trkpt lat="44.3904" lon="3.63078">
        <ele>1040.76</ele>
        <time>2023-05-06T15:06:56Z</time>
      </trkpt>
      <trkpt lat="44.3904" lon="3.63068">
        <ele>1039.8</ele>
        <time>2023-05-06T15:07:00Z</time>
      </trkpt>
      <trkpt lat="44.39044" lon="3.63039">
        <ele>1038.84</ele>
        <time>2023-05-06T15:07:14Z</time>
      </trkpt>
      <trkpt lat="44.39046" lon="3.63024">
        <ele>1037.88</ele>
        <time>2023-05-06T15:07:24Z</time>
      </trkpt>
      <trkpt lat="44.39053" lon="3.63003">
        <ele>1037.4</ele>
        <time>2023-05-06T15:07:34Z</time>
      </trkpt>
      <trkpt lat="44.39061" lon="3.62982">
        <ele>1036.44</ele>
        <time>2023-05-06T15:07:45Z</time>
      </trkpt>
      <trkpt lat="44.39061" lon="3.62977">
        <ele>1036.44</ele>
        <time>2023-05-06T15:07:48Z</time>
      </trkpt>
      <trkpt lat="44.39064" lon="3.62958">
        <ele>1036.44</ele>
        <time>2023-05-06T15:07:58Z</time>
      </trkpt>
      <trkpt lat="44.39064" lon="3.62933">
        <ele>1035.48</ele>
        <time>2023-05-06T15:08:09Z</time>
      </trkpt>
      <trkpt lat="44.39064" lon="3.62929">
        <ele>1035</ele>
        <time>2023-05-06T15:08:12Z</time>
      </trkpt>
      <trkpt lat="44.39063" lon="3.6292">
        <ele>1034.04</ele>
        <time>2023-05-06T15:08:16Z</time>
      </trkpt>
      <trkpt lat="44.39065" lon="3.62895">
        <ele>1032.11</ele>
        <time>2023-05-06T15:08:28Z</time>
      </trkpt>
      <trkpt lat="44.39068" lon="3.62873">
        <ele>1029.71</ele>
        <time>2023-05-06T15:08:39Z</time>
      </trkpt>
      <trkpt lat="44.39074" lon="3.62854">
        <ele>1027.79</ele>
        <time>2023-05-06T15:08:50Z</time>
      </trkpt>
      <trkpt lat="44.39084" lon="3.62838">
        <ele>1026.34</ele>
        <time>2023-05-06T15:09:00Z</time>
      </trkpt>
      <trkpt lat="44.39096" lon="3.62827">
        <ele>1024.9</ele>
        <time>2023-05-06T15:09:10Z</time>
      </trkpt>
      <trkpt lat="44.39108" lon="3.6282">
        <ele>1022.98</ele>
        <time>2023-05-06T15:09:20Z</time>
      </trkpt>
      <trkpt lat="44.39118" lon="3.62815">
        <ele>1022.02</ele>
        <time>2023-05-06T15:09:28Z</time>
      </trkpt>
      <trkpt lat="44.39135" lon="3.62804">
        <ele>1017.69</ele>
        <time>2023-05-06T15:09:41Z</time>
      </trkpt>
      <trkpt lat="44.39137" lon="3.62802">
        <ele>1018.17</ele>
        <time>2023-05-06T15:09:43Z</time>
      </trkpt>
      <trkpt lat="44.39155" lon="3.62793">
        <ele>1018.17</ele>
        <time>2023-05-06T15:09:56Z</time>
      </trkpt>
      <trkpt lat="44.39168" lon="3.62786">
        <ele>1017.21</ele>
        <time>2023-05-06T15:10:07Z</time>
      </trkpt>
      <trkpt lat="44.39179" lon="3.6278">
        <ele>1016.25</ele>
        <time>2023-05-06T15:10:16Z</time>
      </trkpt>
      <trkpt lat="44.39188" lon="3.62778">
        <ele>1015.77</ele>
        <time>2023-05-06T15:10:23Z</time>
      </trkpt>
      <trkpt lat="44.39197" lon="3.62775">
        <ele>1016.25</ele>
        <time>2023-05-06T15:10:29Z</time>
      </trkpt>
      <trkpt lat="44.39197" lon="3.62775">
        <ele>1016.73</ele>
        <time>2023-05-06T15:10:31Z</time>
      </trkpt>
      <trkpt lat="44.39206" lon="3.62772">
        <ele>1015.77</ele>
        <time>2023-05-06T15:10:40Z</time>
      </trkpt>
      <trkpt lat="44.3921" lon="3.62767">
        <ele>1014.33</ele>
        <time>2023-05-06T15:10:52Z</time>
      </trkpt>
      <trkpt lat="44.39211" lon="3.62766">
        <ele>1013.85</ele>
        <time>2023-05-06T15:11:02Z</time>
      </trkpt>
      <trkpt lat="44.39211" lon="3.62751">
        <ele>1011.93</ele>
        <time>2023-05-06T15:11:12Z</time>
      </trkpt>
      <trkpt lat="44.39203" lon="3.62735">
        <ele>1012.41</ele>
        <time>2023-05-06T15:11:24Z</time>
      </trkpt>
      <trkpt lat="44.39202" lon="3.62735">
        <ele>1012.89</ele>
        <time>2023-05-06T15:11:27Z</time>
      </trkpt>
      <trkpt lat="44.392" lon="3.62731">
        <ele>1013.37</ele>
        <time>2023-05-06T15:11:31Z</time>
      </trkpt>
      <trkpt lat="44.39193" lon="3.62716">
        <ele>1015.77</ele>
        <time>2023-05-06T15:11:41Z</time>
      </trkpt>
      <trkpt lat="44.39185" lon="3.62699">
        <ele>1019.13</ele>
        <time>2023-05-06T15:11:54Z</time>
      </trkpt>
      <trkpt lat="44.39183" lon="3.62696">
        <ele>1019.62</ele>
        <time>2023-05-06T15:11:57Z</time>
      </trkpt>
      <trkpt lat="44.39179" lon="3.62687">
        <ele>1020.1</ele>
        <time>2023-05-06T15:12:03Z</time>
      </trkpt>
      <trkpt lat="44.39179" lon="3.62682">
        <ele>1020.58</ele>
        <time>2023-05-06T15:12:06Z</time>
      </trkpt>
      <trkpt lat="44.39173" lon="3.62664">
        <ele>1022.5</ele>
        <time>2023-05-06T15:12:17Z</time>
      </trkpt>
      <trkpt lat="44.39168" lon="3.62655">
        <ele>1023.46</ele>
        <time>2023-05-06T15:12:24Z</time>
      </trkpt>
      <trkpt lat="44.39158" lon="3.62639">
        <ele>1025.86</ele>
        <time>2023-05-06T15:12:35Z</time>
      </trkpt>
      <trkpt lat="44.39151" lon="3.6263">
        <ele>1028.27</ele>
        <time>2023-05-06T15:12:45Z</time>
      </trkpt>
      <trkpt lat="44.39147" lon="3.62625">
        <ele>1028.27</ele>
        <time>2023-05-06T15:12:52Z</time>
      </trkpt>
      <trkpt lat="44.39146" lon="3.62623">
        <ele>1028.75</ele>
        <time>2023-05-06T15:12:54Z</time>
      </trkpt>
      <trkpt lat="44.3914" lon="3.62615">
        <ele>1028.75</ele>
        <time>2023-05-06T15:13:01Z</time>
      </trkpt>
      <trkpt lat="44.39128" lon="3.62604">
        <ele>1027.79</ele>
        <time>2023-05-06T15:13:11Z</time>
      </trkpt>
      <trkpt lat="44.39121" lon="3.62591">
        <ele>1028.75</ele>
        <time>2023-05-06T15:13:20Z</time>
      </trkpt>
      <trkpt lat="44.39115" lon="3.62571">
        <ele>1029.23</ele>
        <time>2023-05-06T15:13:30Z</time>
      </trkpt>
      <trkpt lat="44.39115" lon="3.6257">
        <ele>1029.23</ele>
        <time>2023-05-06T15:13:31Z</time>
      </trkpt>
      <trkpt lat="44.39118" lon="3.62556">
        <ele>1031.15</ele>
        <time>2023-05-06T15:13:41Z</time>
      </trkpt>
      <trkpt lat="44.39117" lon="3.62549">
        <ele>1031.63</ele>
        <time>2023-05-06T15:13:46Z</time>
      </trkpt>
      <trkpt lat="44.39111" lon="3.62534">
        <ele>1031.15</ele>
        <time>2023-05-06T15:13:56Z</time>
      </trkpt>
      <trkpt lat="44.39102" lon="3.62519">
        <ele>1027.79</ele>
        <time>2023-05-06T15:14:07Z</time>
      </trkpt>
      <trkpt lat="44.39096" lon="3.62511">
        <ele>1026.83</ele>
        <time>2023-05-06T15:14:14Z</time>
      </trkpt>
      <trkpt lat="44.39086" lon="3.62498">
        <ele>1024.42</ele>
        <time>2023-05-06T15:14:23Z</time>
      </trkpt>
      <trkpt lat="44.39077" lon="3.62483">
        <ele>1023.46</ele>
        <time>2023-05-06T15:14:33Z</time>
      </trkpt>
      <trkpt lat="44.39063" lon="3.62467">
        <ele>1022.5</ele>
        <time>2023-05-06T15:14:46Z</time>
      </trkpt>
      <trkpt lat="44.39052" lon="3.62458">
        <ele>1021.06</ele>
        <time>2023-05-06T15:14:56Z</time>
      </trkpt>
      <trkpt lat="44.39042" lon="3.62452">
        <ele>1019.13</ele>
        <time>2023-05-06T15:15:05Z</time>
      </trkpt>
      <trkpt lat="44.39027" lon="3.62439">
        <ele>1016.25</ele>
        <time>2023-05-06T15:15:18Z</time>
      </trkpt>
      <trkpt lat="44.39015" lon="3.62431">
        <ele>1013.37</ele>
        <time>2023-05-06T15:15:30Z</time>
      </trkpt>
      <trkpt lat="44.39005" lon="3.62424">
        <ele>1010.96</ele>
        <time>2023-05-06T15:15:40Z</time>
      </trkpt>
      <trkpt lat="44.38989" lon="3.62413">
        <ele>1002.31</ele>
        <time>2023-05-06T15:15:58Z</time>
      </trkpt>
      <trkpt lat="44.38968" lon="3.62404">
        <ele>996.54</ele>
        <time>2023-05-06T15:16:19Z</time>
      </trkpt>
      <trkpt lat="44.38954" lon="3.62397">
        <ele>995.1</ele>
        <time>2023-05-06T15:16:37Z</time>
      </trkpt>
      <trkpt lat="44.38968" lon="3.62393">
        <ele>997.02</ele>
        <time>2023-05-06T15:16:57Z</time>
      </trkpt>
      <trkpt lat="44.38974" lon="3.62389">
        <ele>998.47</ele>
        <time>2023-05-06T15:17:03Z</time>
      </trkpt>
      <trkpt lat="44.39" lon="3.62376">
        <ele>1000.87</ele>
        <time>2023-05-06T15:17:25Z</time>
      </trkpt>
      <trkpt lat="44.39022" lon="3.62364">
        <ele>999.91</ele>
        <time>2023-05-06T15:17:43Z</time>
      </trkpt>
      <trkpt lat="44.39036" lon="3.62354">
        <ele>998.47</ele>
        <time>2023-05-06T15:18:00Z</time>
      </trkpt>
      <trkpt lat="44.39038" lon="3.62349">
        <ele>998.47</ele>
        <time>2023-05-06T15:18:26Z</time>
      </trkpt>
      <trkpt lat="44.3904" lon="3.62345">
        <ele>997.51</ele>
        <time>2023-05-06T15:18:54Z</time>
      </trkpt>
      <trkpt lat="44.39032" lon="3.62336">
        <ele>999.91</ele>
        <time>2023-05-06T15:19:16Z</time>
      </trkpt>
      <trkpt lat="44.39006" lon="3.6232">
        <ele>1000.39</ele>
        <time>2023-05-06T15:19:41Z</time>
      </trkpt>
      <trkpt lat="44.38972" lon="3.62311">
        <ele>993.18</ele>
        <time>2023-05-06T15:19:56Z</time>
      </trkpt>
      <trkpt lat="44.38953" lon="3.62301">
        <ele>983.57</ele>
        <time>2023-05-06T15:20:08Z</time>
      </trkpt>
      <trkpt lat="44.38943" lon="3.62296">
        <ele>979.72</ele>
        <time>2023-05-06T15:20:18Z</time>
      </trkpt>
      <trkpt lat="44.38934" lon="3.62292">
        <ele>975.39</ele>
        <time>2023-05-06T15:20:27Z</time>
      </trkpt>
      <trkpt lat="44.3893" lon="3.62289">
        <ele>973.47</ele>
        <time>2023-05-06T15:20:37Z</time>
      </trkpt>
      <trkpt lat="44.3893" lon="3.62287">
        <ele>972.99</ele>
        <time>2023-05-06T15:20:41Z</time>
      </trkpt>
      <trkpt lat="44.3894" lon="3.62281">
        <ele>971.55</ele>
        <time>2023-05-06T15:20:52Z</time>
      </trkpt>
      <trkpt lat="44.38946" lon="3.62273">
        <ele>969.63</ele>
        <time>2023-05-06T15:21:02Z</time>
      </trkpt>
      <trkpt lat="44.38948" lon="3.62258">
        <ele>968.67</ele>
        <time>2023-05-06T15:21:15Z</time>
      </trkpt>
      <trkpt lat="44.38946" lon="3.62243">
        <ele>968.18</ele>
        <time>2023-05-06T15:21:30Z</time>
      </trkpt>
      <trkpt lat="44.38945" lon="3.62229">
        <ele>968.67</ele>
        <time>2023-05-06T15:21:46Z</time>
      </trkpt>
      <trkpt lat="44.38943" lon="3.6222">
        <ele>968.18</ele>
        <time>2023-05-06T15:21:56Z</time>
      </trkpt>
      <trkpt lat="44.38938" lon="3.62205">
        <ele>966.26</ele>
        <time>2023-05-06T15:22:08Z</time>
      </trkpt>
      <trkpt lat="44.38928" lon="3.62186">
        <ele>962.9</ele>
        <time>2023-05-06T15:22:25Z</time>
      </trkpt>
      <trkpt lat="44.38923" lon="3.62171">
        <ele>962.42</ele>
        <time>2023-05-06T15:22:38Z</time>
      </trkpt>
      <trkpt lat="44.38921" lon="3.62164">
        <ele>960.98</ele>
        <time>2023-05-06T15:22:45Z</time>
      </trkpt>
      <trkpt lat="44.38921" lon="3.62157">
        <ele>960.01</ele>
        <time>2023-05-06T15:22:49Z</time>
      </trkpt>
      <trkpt lat="44.3892" lon="3.62133">
        <ele>958.09</ele>
        <time>2023-05-06T15:23:02Z</time>
      </trkpt>
      <trkpt lat="44.38915" lon="3.62107">
        <ele>957.13</ele>
        <time>2023-05-06T15:23:15Z</time>
      </trkpt>
      <trkpt lat="44.38907" lon="3.6209">
        <ele>956.17</ele>
        <time>2023-05-06T15:23:25Z</time>
      </trkpt>
      <trkpt lat="44.38896" lon="3.6208">
        <ele>958.57</ele>
        <time>2023-05-06T15:23:34Z</time>
      </trkpt>
      <trkpt lat="44.38887" lon="3.62069">
        <ele>961.94</ele>
        <time>2023-05-06T15:23:43Z</time>
      </trkpt>
      <trkpt lat="44.3888" lon="3.62058">
        <ele>962.9</ele>
        <time>2023-05-06T15:23:52Z</time>
      </trkpt>
      <trkpt lat="44.38866" lon="3.62049">
        <ele>961.94</ele>
        <time>2023-05-06T15:24:04Z</time>
      </trkpt>
      <trkpt lat="44.3885" lon="3.6205">
        <ele>960.01</ele>
        <time>2023-05-06T15:24:13Z</time>
      </trkpt>
      <trkpt lat="44.38849" lon="3.6205">
        <ele>960.01</ele>
        <time>2023-05-06T15:24:16Z</time>
      </trkpt>
      <trkpt lat="44.38834" lon="3.62043">
        <ele>958.09</ele>
        <time>2023-05-06T15:24:26Z</time>
      </trkpt>
      <trkpt lat="44.38815" lon="3.62039">
        <ele>957.13</ele>
        <time>2023-05-06T15:24:40Z</time>
      </trkpt>
      <trkpt lat="44.38804" lon="3.62035">
        <ele>957.13</ele>
        <time>2023-05-06T15:24:51Z</time>
      </trkpt>
      <trkpt lat="44.38789" lon="3.62031">
        <ele>958.09</ele>
        <time>2023-05-06T15:25:02Z</time>
      </trkpt>
      <trkpt lat="44.38772" lon="3.62024">
        <ele>960.01</ele>
        <time>2023-05-06T15:25:17Z</time>
      </trkpt>
      <trkpt lat="44.38752" lon="3.62016">
        <ele>959.05</ele>
        <time>2023-05-06T15:25:30Z</time>
      </trkpt>
      <trkpt lat="44.38732" lon="3.6201">
        <ele>960.49</ele>
        <time>2023-05-06T15:25:42Z</time>
      </trkpt>
      <trkpt lat="44.38713" lon="3.61999">
        <ele>959.53</ele>
        <time>2023-05-06T15:25:56Z</time>
      </trkpt>
      <trkpt lat="44.38699" lon="3.61988">
        <ele>957.61</ele>
        <time>2023-05-06T15:26:06Z</time>
      </trkpt>
      <trkpt lat="44.38686" lon="3.61979">
        <ele>955.69</ele>
        <time>2023-05-06T15:26:17Z</time>
      </trkpt>
      <trkpt lat="44.38684" lon="3.61978">
        <ele>955.69</ele>
        <time>2023-05-06T15:26:18Z</time>
      </trkpt>
      <trkpt lat="44.38664" lon="3.61975">
        <ele>951.84</ele>
        <time>2023-05-06T15:26:32Z</time>
      </trkpt>
      <trkpt lat="44.38649" lon="3.6197">
        <ele>951.36</ele>
        <time>2023-05-06T15:26:42Z</time>
      </trkpt>
      <trkpt lat="44.38645" lon="3.61966">
        <ele>950.88</ele>
        <time>2023-05-06T15:26:49Z</time>
      </trkpt>
      <trkpt lat="44.38636" lon="3.61946">
        <ele>950.4</ele>
        <time>2023-05-06T15:27:01Z</time>
      </trkpt>
      <trkpt lat="44.38633" lon="3.6193">
        <ele>950.4</ele>
        <time>2023-05-06T15:27:11Z</time>
      </trkpt>
      <trkpt lat="44.3863" lon="3.61921">
        <ele>950.4</ele>
        <time>2023-05-06T15:27:16Z</time>
      </trkpt>
      <trkpt lat="44.38626" lon="3.61904">
        <ele>951.36</ele>
        <time>2023-05-06T15:27:28Z</time>
      </trkpt>
      <trkpt lat="44.38622" lon="3.61886">
        <ele>950.4</ele>
        <time>2023-05-06T15:27:39Z</time>
      </trkpt>
      <trkpt lat="44.38617" lon="3.61881">
        <ele>949.44</ele>
        <time>2023-05-06T15:27:50Z</time>
      </trkpt>
      <trkpt lat="44.38617" lon="3.61877">
        <ele>948.48</ele>
        <time>2023-05-06T15:28:03Z</time>
      </trkpt>
      <trkpt lat="44.38617" lon="3.61876">
        <ele>948.48</ele>
        <time>2023-05-06T15:28:29Z</time>
      </trkpt>
      <trkpt lat="44.38613" lon="3.6188">
        <ele>948</ele>
        <time>2023-05-06T15:28:50Z</time>
      </trkpt>
      <trkpt lat="44.38619" lon="3.61879">
        <ele>946.07</ele>
        <time>2023-05-06T15:29:07Z</time>
      </trkpt>
      <trkpt lat="44.38612" lon="3.61893">
        <ele>946.56</ele>
        <time>2023-05-06T15:29:21Z</time>
      </trkpt>
      <trkpt lat="44.38608" lon="3.61932">
        <ele>951.36</ele>
        <time>2023-05-06T15:29:43Z</time>
      </trkpt>
      <trkpt lat="44.38607" lon="3.61971">
        <ele>956.17</ele>
        <time>2023-05-06T15:30:02Z</time>
      </trkpt>
      <trkpt lat="44.38609" lon="3.62004">
        <ele>959.05</ele>
        <time>2023-05-06T15:30:21Z</time>
      </trkpt>
      <trkpt lat="44.38606" lon="3.62008">
        <ele>960.01</ele>
        <time>2023-05-06T15:30:24Z</time>
      </trkpt>
      <trkpt lat="44.38597" lon="3.62014">
        <ele>961.94</ele>
        <time>2023-05-06T15:30:40Z</time>
      </trkpt>
      <trkpt lat="44.3859" lon="3.62003">
        <ele>965.3</ele>
        <time>2023-05-06T15:30:51Z</time>
      </trkpt>
      <trkpt lat="44.38587" lon="3.61987">
        <ele>965.78</ele>
        <time>2023-05-06T15:30:55Z</time>
      </trkpt>
      <trkpt lat="44.3857" lon="3.61943">
        <ele>959.05</ele>
        <time>2023-05-06T15:31:18Z</time>
      </trkpt>
      <trkpt lat="44.3857" lon="3.61935">
        <ele>955.69</ele>
        <time>2023-05-06T15:31:36Z</time>
      </trkpt>
      <trkpt lat="44.38578" lon="3.61902">
        <ele>954.25</ele>
        <time>2023-05-06T15:31:58Z</time>
      </trkpt>
      <trkpt lat="44.38576" lon="3.61899">
        <ele>951.36</ele>
        <time>2023-05-06T15:32:23Z</time>
      </trkpt>
      <trkpt lat="44.38575" lon="3.61899">
        <ele>953.77</ele>
        <time>2023-05-06T15:32:42Z</time>
      </trkpt>
      <trkpt lat="44.38584" lon="3.61892">
        <ele>956.65</ele>
        <time>2023-05-06T15:33:01Z</time>
      </trkpt>
      <trkpt lat="44.38586" lon="3.61884">
        <ele>957.13</ele>
        <time>2023-05-06T15:33:22Z</time>
      </trkpt>
      <trkpt lat="44.3859" lon="3.61869">
        <ele>961.46</ele>
        <time>2023-05-06T15:33:37Z</time>
      </trkpt>
      <trkpt lat="44.38599" lon="3.61838">
        <ele>966.26</ele>
        <time>2023-05-06T15:34:00Z</time>
      </trkpt>
      <trkpt lat="44.38595" lon="3.61832">
        <ele>964.82</ele>
        <time>2023-05-06T15:34:27Z</time>
      </trkpt>
      <trkpt lat="44.38593" lon="3.61833">
        <ele>967.7</ele>
        <time>2023-05-06T15:34:49Z</time>
      </trkpt>
      <trkpt lat="44.38608" lon="3.61813">
        <ele>975.39</ele>
        <time>2023-05-06T15:35:04Z</time>
      </trkpt>
      <trkpt lat="44.38627" lon="3.61788">
        <ele>957.13</ele>
        <time>2023-05-06T15:35:20Z</time>
      </trkpt>
      <trkpt lat="44.38639" lon="3.61769">
        <ele>949.92</ele>
        <time>2023-05-06T15:35:35Z</time>
      </trkpt>
      <trkpt lat="44.38646" lon="3.61749">
        <ele>946.56</ele>
        <time>2023-05-06T15:35:50Z</time>
      </trkpt>
      <trkpt lat="44.38651" lon="3.61742">
        <ele>945.11</ele>
        <time>2023-05-06T15:35:55Z</time>
      </trkpt>
      <trkpt lat="44.38654" lon="3.61739">
        <ele>943.67</ele>
        <time>2023-05-06T15:35:58Z</time>
      </trkpt>
      <trkpt lat="44.38659" lon="3.61734">
        <ele>942.71</ele>
        <time>2023-05-06T15:36:03Z</time>
      </trkpt>
      <trkpt lat="44.38673" lon="3.61715">
        <ele>942.23</ele>
        <time>2023-05-06T15:36:19Z</time>
      </trkpt>
    </trkseg>
  </trk>
</gpx>